<?xml version="1.0" encoding="UTF-8" standalone="no" ?>
<gpx xmlns="http://www.topografix.com/GPX/1/1" xmlns:xsi="http://www.w3.org/2001/XMLSchema-instance" xsi:schemaLocation="http://www.topografix.com/GPX/1/1 http://www.topografix.com/GPX/1/1/gpx.xsd" version="1.1" creator="VisuGPX - https://www.visugpx.com">
  <metadata>
    <name>Tour en Thur 2023-05 17-21</name>
  </metadata>
  <trk>
    <name><![CDATA[21 mai 2023 à 07:02:53]]></name>
    <extensions>
      <line xmlns="http://www.topografix.com/GPX/gpx_style/0/2">
        <color>FFFF00</color>
        <width>9</width>
      </line>
    </extensions>
    <trkseg>
      <trkpt lat="47.87608" lon="6.91675">
        <ele>881</ele>
        <time>2023-05-21T05:02:53Z</time>
      </trkpt>
      <trkpt lat="47.87616" lon="6.9168">
        <ele>876.9</ele>
        <time>2023-05-21T05:02:54Z</time>
      </trkpt>
      <trkpt lat="47.8764" lon="6.91676">
        <ele>864.8</ele>
        <time>2023-05-21T05:02:59Z</time>
      </trkpt>
      <trkpt lat="47.87612" lon="6.91674">
        <ele>879.8</ele>
        <time>2023-05-21T05:03:18Z</time>
      </trkpt>
      <trkpt lat="47.87608" lon="6.91686">
        <ele>880</ele>
        <time>2023-05-21T05:03:31Z</time>
      </trkpt>
      <trkpt lat="47.87595" lon="6.91676">
        <ele>884.8</ele>
        <time>2023-05-21T05:03:33Z</time>
      </trkpt>
      <trkpt lat="47.87598" lon="6.91689">
        <ele>883.4</ele>
        <time>2023-05-21T05:03:42Z</time>
      </trkpt>
      <trkpt lat="47.876" lon="6.91698">
        <ele>882.3</ele>
        <time>2023-05-21T05:03:57Z</time>
      </trkpt>
      <trkpt lat="47.87598" lon="6.91745">
        <ele>883</ele>
        <time>2023-05-21T05:04:29Z</time>
      </trkpt>
      <trkpt lat="47.87599" lon="6.91752">
        <ele>882.4</ele>
        <time>2023-05-21T05:04:33Z</time>
      </trkpt>
      <trkpt lat="47.87598" lon="6.91768">
        <ele>882.1</ele>
        <time>2023-05-21T05:04:41Z</time>
      </trkpt>
      <trkpt lat="47.87597" lon="6.91774">
        <ele>882.3</ele>
        <time>2023-05-21T05:04:45Z</time>
      </trkpt>
      <trkpt lat="47.87598" lon="6.91782">
        <ele>881.5</ele>
        <time>2023-05-21T05:04:49Z</time>
      </trkpt>
      <trkpt lat="47.87602" lon="6.91808">
        <ele>879.5</ele>
        <time>2023-05-21T05:05:06Z</time>
      </trkpt>
      <trkpt lat="47.87605" lon="6.91813">
        <ele>878.3</ele>
        <time>2023-05-21T05:05:10Z</time>
      </trkpt>
      <trkpt lat="47.87606" lon="6.91819">
        <ele>878.3</ele>
        <time>2023-05-21T05:05:15Z</time>
      </trkpt>
      <trkpt lat="47.87609" lon="6.91826">
        <ele>877.4</ele>
        <time>2023-05-21T05:05:19Z</time>
      </trkpt>
      <trkpt lat="47.87612" lon="6.91858">
        <ele>877.4</ele>
        <time>2023-05-21T05:05:37Z</time>
      </trkpt>
      <trkpt lat="47.87611" lon="6.91865">
        <ele>877.9</ele>
        <time>2023-05-21T05:05:41Z</time>
      </trkpt>
      <trkpt lat="47.87612" lon="6.91871">
        <ele>877</ele>
        <time>2023-05-21T05:05:45Z</time>
      </trkpt>
      <trkpt lat="47.8761" lon="6.91879">
        <ele>878.1</ele>
        <time>2023-05-21T05:05:49Z</time>
      </trkpt>
      <trkpt lat="47.87611" lon="6.91926">
        <ele>876.4</ele>
        <time>2023-05-21T05:06:15Z</time>
      </trkpt>
      <trkpt lat="47.87613" lon="6.91939">
        <ele>875.3</ele>
        <time>2023-05-21T05:06:23Z</time>
      </trkpt>
      <trkpt lat="47.87622" lon="6.91954">
        <ele>871.1</ele>
        <time>2023-05-21T05:06:34Z</time>
      </trkpt>
      <trkpt lat="47.87626" lon="6.91966">
        <ele>871.5</ele>
        <time>2023-05-21T05:06:42Z</time>
      </trkpt>
      <trkpt lat="47.87628" lon="6.91984">
        <ele>874.1</ele>
        <time>2023-05-21T05:06:52Z</time>
      </trkpt>
      <trkpt lat="47.87637" lon="6.92025">
        <ele>870.6</ele>
        <time>2023-05-21T05:07:16Z</time>
      </trkpt>
      <trkpt lat="47.87639" lon="6.92077">
        <ele>870</ele>
        <time>2023-05-21T05:07:46Z</time>
      </trkpt>
      <trkpt lat="47.8764" lon="6.92085">
        <ele>870.6</ele>
        <time>2023-05-21T05:07:50Z</time>
      </trkpt>
      <trkpt lat="47.87643" lon="6.92091">
        <ele>869.8</ele>
        <time>2023-05-21T05:07:55Z</time>
      </trkpt>
      <trkpt lat="47.87648" lon="6.92095">
        <ele>866.7</ele>
        <time>2023-05-21T05:07:59Z</time>
      </trkpt>
      <trkpt lat="47.87663" lon="6.92127">
        <ele>862</ele>
        <time>2023-05-21T05:08:22Z</time>
      </trkpt>
      <trkpt lat="47.87666" lon="6.92144">
        <ele>863.5</ele>
        <time>2023-05-21T05:08:29Z</time>
      </trkpt>
      <trkpt lat="47.87671" lon="6.92157">
        <ele>862.2</ele>
        <time>2023-05-21T05:08:37Z</time>
      </trkpt>
      <trkpt lat="47.87673" lon="6.92165">
        <ele>862.3</ele>
        <time>2023-05-21T05:08:42Z</time>
      </trkpt>
      <trkpt lat="47.87686" lon="6.92189">
        <ele>859.6</ele>
        <time>2023-05-21T05:08:59Z</time>
      </trkpt>
      <trkpt lat="47.87689" lon="6.92204">
        <ele>861.4</ele>
        <time>2023-05-21T05:09:08Z</time>
      </trkpt>
      <trkpt lat="47.87691" lon="6.92219">
        <ele>863.8</ele>
        <time>2023-05-21T05:09:17Z</time>
      </trkpt>
      <trkpt lat="47.87699" lon="6.9223">
        <ele>861.2</ele>
        <time>2023-05-21T05:09:26Z</time>
      </trkpt>
      <trkpt lat="47.87703" lon="6.92252">
        <ele>864.6</ele>
        <time>2023-05-21T05:09:39Z</time>
      </trkpt>
      <trkpt lat="47.87707" lon="6.92259">
        <ele>864.2</ele>
        <time>2023-05-21T05:09:43Z</time>
      </trkpt>
      <trkpt lat="47.87706" lon="6.92267">
        <ele>867</ele>
        <time>2023-05-21T05:09:47Z</time>
      </trkpt>
      <trkpt lat="47.87706" lon="6.92276">
        <ele>869.4</ele>
        <time>2023-05-21T05:09:54Z</time>
      </trkpt>
      <trkpt lat="47.87715" lon="6.923">
        <ele>868.8</ele>
        <time>2023-05-21T05:10:10Z</time>
      </trkpt>
      <trkpt lat="47.87714" lon="6.92308">
        <ele>871</ele>
        <time>2023-05-21T05:10:14Z</time>
      </trkpt>
      <trkpt lat="47.87718" lon="6.92315">
        <ele>869.3</ele>
        <time>2023-05-21T05:10:19Z</time>
      </trkpt>
      <trkpt lat="47.87718" lon="6.92345">
        <ele>874.4</ele>
        <time>2023-05-21T05:10:38Z</time>
      </trkpt>
      <trkpt lat="47.87725" lon="6.92351">
        <ele>870.9</ele>
        <time>2023-05-21T05:10:45Z</time>
      </trkpt>
      <trkpt lat="47.87724" lon="6.92359">
        <ele>873.3</ele>
        <time>2023-05-21T05:10:50Z</time>
      </trkpt>
      <trkpt lat="47.87722" lon="6.9237">
        <ele>876.1</ele>
        <time>2023-05-21T05:10:58Z</time>
      </trkpt>
      <trkpt lat="47.87721" lon="6.92377">
        <ele>877.5</ele>
        <time>2023-05-21T05:11:06Z</time>
      </trkpt>
      <trkpt lat="47.8772" lon="6.92385">
        <ele>878.9</ele>
        <time>2023-05-21T05:11:11Z</time>
      </trkpt>
      <trkpt lat="47.87725" lon="6.92414">
        <ele>878.1</ele>
        <time>2023-05-21T05:11:28Z</time>
      </trkpt>
      <trkpt lat="47.87726" lon="6.92436">
        <ele>880.4</ele>
        <time>2023-05-21T05:11:40Z</time>
      </trkpt>
      <trkpt lat="47.87728" lon="6.9245">
        <ele>880.9</ele>
        <time>2023-05-21T05:11:50Z</time>
      </trkpt>
      <trkpt lat="47.87728" lon="6.92457">
        <ele>881.6</ele>
        <time>2023-05-21T05:11:54Z</time>
      </trkpt>
      <trkpt lat="47.87728" lon="6.92492">
        <ele>884.5</ele>
        <time>2023-05-21T05:12:18Z</time>
      </trkpt>
      <trkpt lat="47.87727" lon="6.92499">
        <ele>885.7</ele>
        <time>2023-05-21T05:12:23Z</time>
      </trkpt>
      <trkpt lat="47.87725" lon="6.92505">
        <ele>887</ele>
        <time>2023-05-21T05:12:28Z</time>
      </trkpt>
      <trkpt lat="47.87725" lon="6.92515">
        <ele>886.7</ele>
        <time>2023-05-21T05:12:35Z</time>
      </trkpt>
      <trkpt lat="47.87722" lon="6.92521">
        <ele>888.3</ele>
        <time>2023-05-21T05:12:39Z</time>
      </trkpt>
      <trkpt lat="47.87718" lon="6.92541">
        <ele>888.1</ele>
        <time>2023-05-21T05:12:51Z</time>
      </trkpt>
      <trkpt lat="47.87711" lon="6.92553">
        <ele>887.7</ele>
        <time>2023-05-21T05:13:02Z</time>
      </trkpt>
      <trkpt lat="47.87706" lon="6.92557">
        <ele>887.4</ele>
        <time>2023-05-21T05:13:06Z</time>
      </trkpt>
      <trkpt lat="47.87701" lon="6.92556">
        <ele>888.2</ele>
        <time>2023-05-21T05:13:10Z</time>
      </trkpt>
      <trkpt lat="47.87691" lon="6.92546">
        <ele>890.2</ele>
        <time>2023-05-21T05:13:26Z</time>
      </trkpt>
      <trkpt lat="47.87679" lon="6.92514">
        <ele>895.1</ele>
        <time>2023-05-21T05:13:46Z</time>
      </trkpt>
      <trkpt lat="47.87672" lon="6.92497">
        <ele>898.6</ele>
        <time>2023-05-21T05:14:04Z</time>
      </trkpt>
      <trkpt lat="47.87666" lon="6.92495">
        <ele>897.5</ele>
        <time>2023-05-21T05:14:08Z</time>
      </trkpt>
      <trkpt lat="47.87661" lon="6.92495">
        <ele>895.5</ele>
        <time>2023-05-21T05:14:12Z</time>
      </trkpt>
      <trkpt lat="47.87657" lon="6.92489">
        <ele>896.5</ele>
        <time>2023-05-21T05:14:19Z</time>
      </trkpt>
      <trkpt lat="47.87657" lon="6.92481">
        <ele>899.9</ele>
        <time>2023-05-21T05:14:23Z</time>
      </trkpt>
      <trkpt lat="47.8765" lon="6.92475">
        <ele>900.5</ele>
        <time>2023-05-21T05:14:31Z</time>
      </trkpt>
      <trkpt lat="47.87639" lon="6.92467">
        <ele>900.9</ele>
        <time>2023-05-21T05:14:43Z</time>
      </trkpt>
      <trkpt lat="47.8763" lon="6.92452">
        <ele>903.8</ele>
        <time>2023-05-21T05:14:57Z</time>
      </trkpt>
      <trkpt lat="47.87618" lon="6.9244">
        <ele>905.3</ele>
        <time>2023-05-21T05:15:09Z</time>
      </trkpt>
      <trkpt lat="47.87612" lon="6.92439">
        <ele>904.3</ele>
        <time>2023-05-21T05:15:13Z</time>
      </trkpt>
      <trkpt lat="47.87606" lon="6.9243">
        <ele>906.9</ele>
        <time>2023-05-21T05:15:24Z</time>
      </trkpt>
      <trkpt lat="47.87603" lon="6.92424">
        <ele>908.9</ele>
        <time>2023-05-21T05:15:29Z</time>
      </trkpt>
      <trkpt lat="47.87597" lon="6.92423">
        <ele>908.3</ele>
        <time>2023-05-21T05:15:35Z</time>
      </trkpt>
      <trkpt lat="47.87592" lon="6.9242">
        <ele>908.8</ele>
        <time>2023-05-21T05:15:39Z</time>
      </trkpt>
      <trkpt lat="47.87573" lon="6.92415">
        <ele>910</ele>
        <time>2023-05-21T05:15:57Z</time>
      </trkpt>
      <trkpt lat="47.87566" lon="6.92409">
        <ele>912.7</ele>
        <time>2023-05-21T05:16:06Z</time>
      </trkpt>
      <trkpt lat="47.87558" lon="6.92408">
        <ele>913.3</ele>
        <time>2023-05-21T05:16:15Z</time>
      </trkpt>
      <trkpt lat="47.87552" lon="6.92402">
        <ele>915</ele>
        <time>2023-05-21T05:16:23Z</time>
      </trkpt>
      <trkpt lat="47.87542" lon="6.924">
        <ele>913.8</ele>
        <time>2023-05-21T05:16:30Z</time>
      </trkpt>
      <trkpt lat="47.87537" lon="6.92394">
        <ele>915.4</ele>
        <time>2023-05-21T05:16:37Z</time>
      </trkpt>
      <trkpt lat="47.87523" lon="6.92384">
        <ele>916.3</ele>
        <time>2023-05-21T05:16:49Z</time>
      </trkpt>
      <trkpt lat="47.87517" lon="6.92374">
        <ele>918.4</ele>
        <time>2023-05-21T05:16:58Z</time>
      </trkpt>
      <trkpt lat="47.87502" lon="6.92364">
        <ele>917.4</ele>
        <time>2023-05-21T05:17:12Z</time>
      </trkpt>
      <trkpt lat="47.87497" lon="6.92363">
        <ele>916.2</ele>
        <time>2023-05-21T05:17:15Z</time>
      </trkpt>
      <trkpt lat="47.87489" lon="6.92357">
        <ele>916.2</ele>
        <time>2023-05-21T05:17:23Z</time>
      </trkpt>
      <trkpt lat="47.87486" lon="6.92352">
        <ele>917.2</ele>
        <time>2023-05-21T05:17:27Z</time>
      </trkpt>
      <trkpt lat="47.87481" lon="6.9235">
        <ele>916.4</ele>
        <time>2023-05-21T05:17:31Z</time>
      </trkpt>
      <trkpt lat="47.87454" lon="6.92324">
        <ele>918.6</ele>
        <time>2023-05-21T05:18:00Z</time>
      </trkpt>
      <trkpt lat="47.87449" lon="6.92322">
        <ele>917.9</ele>
        <time>2023-05-21T05:18:04Z</time>
      </trkpt>
      <trkpt lat="47.87445" lon="6.92317">
        <ele>918.6</ele>
        <time>2023-05-21T05:18:09Z</time>
      </trkpt>
      <trkpt lat="47.87442" lon="6.92311">
        <ele>920.1</ele>
        <time>2023-05-21T05:18:13Z</time>
      </trkpt>
      <trkpt lat="47.87428" lon="6.92302">
        <ele>918.8</ele>
        <time>2023-05-21T05:18:26Z</time>
      </trkpt>
      <trkpt lat="47.87394" lon="6.92269">
        <ele>917.9</ele>
        <time>2023-05-21T05:18:57Z</time>
      </trkpt>
      <trkpt lat="47.8739" lon="6.92266">
        <ele>917.3</ele>
        <time>2023-05-21T05:19:01Z</time>
      </trkpt>
      <trkpt lat="47.87389" lon="6.92259">
        <ele>918.8</ele>
        <time>2023-05-21T05:19:05Z</time>
      </trkpt>
      <trkpt lat="47.87382" lon="6.92249">
        <ele>918.1</ele>
        <time>2023-05-21T05:19:14Z</time>
      </trkpt>
      <trkpt lat="47.87376" lon="6.92236">
        <ele>919.5</ele>
        <time>2023-05-21T05:19:24Z</time>
      </trkpt>
      <trkpt lat="47.87369" lon="6.92226">
        <ele>919.5</ele>
        <time>2023-05-21T05:19:32Z</time>
      </trkpt>
      <trkpt lat="47.87362" lon="6.92209">
        <ele>920.8</ele>
        <time>2023-05-21T05:19:42Z</time>
      </trkpt>
      <trkpt lat="47.87354" lon="6.92202">
        <ele>918.6</ele>
        <time>2023-05-21T05:19:51Z</time>
      </trkpt>
      <trkpt lat="47.87344" lon="6.92186">
        <ele>919</ele>
        <time>2023-05-21T05:20:04Z</time>
      </trkpt>
      <trkpt lat="47.87327" lon="6.92171">
        <ele>916.6</ele>
        <time>2023-05-21T05:20:19Z</time>
      </trkpt>
      <trkpt lat="47.87324" lon="6.92167">
        <ele>916.5</ele>
        <time>2023-05-21T05:20:22Z</time>
      </trkpt>
      <trkpt lat="47.87322" lon="6.92157">
        <ele>919</ele>
        <time>2023-05-21T05:20:29Z</time>
      </trkpt>
      <trkpt lat="47.87308" lon="6.92136">
        <ele>920</ele>
        <time>2023-05-21T05:20:43Z</time>
      </trkpt>
      <trkpt lat="47.87299" lon="6.92129">
        <ele>918.7</ele>
        <time>2023-05-21T05:20:51Z</time>
      </trkpt>
      <trkpt lat="47.87295" lon="6.92124">
        <ele>918.6</ele>
        <time>2023-05-21T05:20:55Z</time>
      </trkpt>
      <trkpt lat="47.8729" lon="6.9212">
        <ele>917.8</ele>
        <time>2023-05-21T05:20:59Z</time>
      </trkpt>
      <trkpt lat="47.87287" lon="6.92114">
        <ele>918.2</ele>
        <time>2023-05-21T05:21:03Z</time>
      </trkpt>
      <trkpt lat="47.87282" lon="6.921">
        <ele>920.3</ele>
        <time>2023-05-21T05:21:11Z</time>
      </trkpt>
      <trkpt lat="47.87278" lon="6.92096">
        <ele>919.5</ele>
        <time>2023-05-21T05:21:15Z</time>
      </trkpt>
      <trkpt lat="47.87271" lon="6.92085">
        <ele>920.8</ele>
        <time>2023-05-21T05:21:23Z</time>
      </trkpt>
      <trkpt lat="47.87263" lon="6.92075">
        <ele>921.5</ele>
        <time>2023-05-21T05:21:31Z</time>
      </trkpt>
      <trkpt lat="47.8723" lon="6.92058">
        <ele>921.1</ele>
        <time>2023-05-21T05:22:01Z</time>
      </trkpt>
      <trkpt lat="47.87225" lon="6.92054">
        <ele>921.4</ele>
        <time>2023-05-21T05:22:05Z</time>
      </trkpt>
      <trkpt lat="47.8721" lon="6.92045">
        <ele>922.1</ele>
        <time>2023-05-21T05:22:22Z</time>
      </trkpt>
      <trkpt lat="47.87205" lon="6.92041">
        <ele>922.5</ele>
        <time>2023-05-21T05:22:27Z</time>
      </trkpt>
      <trkpt lat="47.87199" lon="6.92041">
        <ele>922.3</ele>
        <time>2023-05-21T05:22:29Z</time>
      </trkpt>
      <trkpt lat="47.87195" lon="6.92039">
        <ele>922.4</ele>
        <time>2023-05-21T05:22:32Z</time>
      </trkpt>
      <trkpt lat="47.87191" lon="6.92035">
        <ele>922.7</ele>
        <time>2023-05-21T05:22:36Z</time>
      </trkpt>
      <trkpt lat="47.87187" lon="6.9203">
        <ele>923.2</ele>
        <time>2023-05-21T05:22:39Z</time>
      </trkpt>
      <trkpt lat="47.87183" lon="6.92027">
        <ele>923.4</ele>
        <time>2023-05-21T05:22:43Z</time>
      </trkpt>
      <trkpt lat="47.87179" lon="6.9202">
        <ele>925</ele>
        <time>2023-05-21T05:22:45Z</time>
      </trkpt>
      <trkpt lat="47.87174" lon="6.92017">
        <ele>925.7</ele>
        <time>2023-05-21T05:22:50Z</time>
      </trkpt>
      <trkpt lat="47.8717" lon="6.92016">
        <ele>925.9</ele>
        <time>2023-05-21T05:22:54Z</time>
      </trkpt>
      <trkpt lat="47.87164" lon="6.92018">
        <ele>925.8</ele>
        <time>2023-05-21T05:23:01Z</time>
      </trkpt>
      <trkpt lat="47.8716" lon="6.92024">
        <ele>924.7</ele>
        <time>2023-05-21T05:23:08Z</time>
      </trkpt>
      <trkpt lat="47.87151" lon="6.9203">
        <ele>925.1</ele>
        <time>2023-05-21T05:23:17Z</time>
      </trkpt>
      <trkpt lat="47.87142" lon="6.92032">
        <ele>926.6</ele>
        <time>2023-05-21T05:23:25Z</time>
      </trkpt>
      <trkpt lat="47.87134" lon="6.9204">
        <ele>927</ele>
        <time>2023-05-21T05:23:34Z</time>
      </trkpt>
      <trkpt lat="47.87129" lon="6.92047">
        <ele>927</ele>
        <time>2023-05-21T05:23:39Z</time>
      </trkpt>
      <trkpt lat="47.87125" lon="6.92049">
        <ele>927.7</ele>
        <time>2023-05-21T05:23:44Z</time>
      </trkpt>
      <trkpt lat="47.87096" lon="6.92075">
        <ele>931.1</ele>
        <time>2023-05-21T05:24:15Z</time>
      </trkpt>
      <trkpt lat="47.87085" lon="6.92086">
        <ele>932.8</ele>
        <time>2023-05-21T05:24:29Z</time>
      </trkpt>
      <trkpt lat="47.87078" lon="6.92098">
        <ele>933.5</ele>
        <time>2023-05-21T05:24:37Z</time>
      </trkpt>
      <trkpt lat="47.8707" lon="6.92108">
        <ele>935.4</ele>
        <time>2023-05-21T05:24:45Z</time>
      </trkpt>
      <trkpt lat="47.87066" lon="6.9212">
        <ele>934.8</ele>
        <time>2023-05-21T05:24:53Z</time>
      </trkpt>
      <trkpt lat="47.87062" lon="6.92124">
        <ele>936</ele>
        <time>2023-05-21T05:24:57Z</time>
      </trkpt>
      <trkpt lat="47.87044" lon="6.92153">
        <ele>939.2</ele>
        <time>2023-05-21T05:25:21Z</time>
      </trkpt>
      <trkpt lat="47.87025" lon="6.92199">
        <ele>940.9</ele>
        <time>2023-05-21T05:25:54Z</time>
      </trkpt>
      <trkpt lat="47.87012" lon="6.92227">
        <ele>942.9</ele>
        <time>2023-05-21T05:26:14Z</time>
      </trkpt>
      <trkpt lat="47.87011" lon="6.92234">
        <ele>942.2</ele>
        <time>2023-05-21T05:26:17Z</time>
      </trkpt>
      <trkpt lat="47.87003" lon="6.92258">
        <ele>942.7</ele>
        <time>2023-05-21T05:26:33Z</time>
      </trkpt>
      <trkpt lat="47.86999" lon="6.92262">
        <ele>943.9</ele>
        <time>2023-05-21T05:26:42Z</time>
      </trkpt>
      <trkpt lat="47.86998" lon="6.92248">
        <ele>945</ele>
        <time>2023-05-21T05:27:13Z</time>
      </trkpt>
      <trkpt lat="47.86994" lon="6.92243">
        <ele>945.5</ele>
        <time>2023-05-21T05:27:21Z</time>
      </trkpt>
      <trkpt lat="47.86986" lon="6.92237">
        <ele>945.7</ele>
        <time>2023-05-21T05:27:30Z</time>
      </trkpt>
      <trkpt lat="47.86994" lon="6.92223">
        <ele>951.1</ele>
        <time>2023-05-21T05:27:46Z</time>
      </trkpt>
      <trkpt lat="47.86993" lon="6.92224">
        <ele>950.7</ele>
        <time>2023-05-21T05:27:55Z</time>
      </trkpt>
      <trkpt lat="47.86981" lon="6.92225">
        <ele>949</ele>
        <time>2023-05-21T05:28:09Z</time>
      </trkpt>
      <trkpt lat="47.86983" lon="6.92217">
        <ele>951.9</ele>
        <time>2023-05-21T05:28:17Z</time>
      </trkpt>
      <trkpt lat="47.86986" lon="6.92213">
        <ele>953.5</ele>
        <time>2023-05-21T05:28:24Z</time>
      </trkpt>
      <trkpt lat="47.86981" lon="6.92211">
        <ele>953.6</ele>
        <time>2023-05-21T05:28:36Z</time>
      </trkpt>
      <trkpt lat="47.86975" lon="6.92197">
        <ele>957.5</ele>
        <time>2023-05-21T05:28:47Z</time>
      </trkpt>
      <trkpt lat="47.86975" lon="6.9219">
        <ele>959</ele>
        <time>2023-05-21T05:28:52Z</time>
      </trkpt>
      <trkpt lat="47.86965" lon="6.9215">
        <ele>960.8</ele>
        <time>2023-05-21T05:29:21Z</time>
      </trkpt>
      <trkpt lat="47.86964" lon="6.92133">
        <ele>962.7</ele>
        <time>2023-05-21T05:29:32Z</time>
      </trkpt>
      <trkpt lat="47.86963" lon="6.9212">
        <ele>964.1</ele>
        <time>2023-05-21T05:29:40Z</time>
      </trkpt>
      <trkpt lat="47.8696" lon="6.92114">
        <ele>963.4</ele>
        <time>2023-05-21T05:29:44Z</time>
      </trkpt>
      <trkpt lat="47.86957" lon="6.92087">
        <ele>966.1</ele>
        <time>2023-05-21T05:30:05Z</time>
      </trkpt>
      <trkpt lat="47.86955" lon="6.92076">
        <ele>967</ele>
        <time>2023-05-21T05:30:15Z</time>
      </trkpt>
      <trkpt lat="47.86954" lon="6.92069">
        <ele>967.8</ele>
        <time>2023-05-21T05:30:18Z</time>
      </trkpt>
      <trkpt lat="47.86955" lon="6.9206">
        <ele>970.3</ele>
        <time>2023-05-21T05:30:22Z</time>
      </trkpt>
      <trkpt lat="47.86954" lon="6.92054">
        <ele>970.8</ele>
        <time>2023-05-21T05:30:25Z</time>
      </trkpt>
      <trkpt lat="47.86954" lon="6.92044">
        <ele>972.6</ele>
        <time>2023-05-21T05:30:39Z</time>
      </trkpt>
      <trkpt lat="47.86952" lon="6.92037">
        <ele>972.5</ele>
        <time>2023-05-21T05:30:46Z</time>
      </trkpt>
      <trkpt lat="47.86958" lon="6.92039">
        <ele>976.3</ele>
        <time>2023-05-21T05:30:57Z</time>
      </trkpt>
      <trkpt lat="47.8696" lon="6.92052">
        <ele>975.3</ele>
        <time>2023-05-21T05:31:05Z</time>
      </trkpt>
      <trkpt lat="47.86964" lon="6.92059">
        <ele>976.6</ele>
        <time>2023-05-21T05:31:10Z</time>
      </trkpt>
      <trkpt lat="47.86967" lon="6.92051">
        <ele>980.2</ele>
        <time>2023-05-21T05:31:17Z</time>
      </trkpt>
      <trkpt lat="47.86963" lon="6.92046">
        <ele>978.4</ele>
        <time>2023-05-21T05:31:21Z</time>
      </trkpt>
      <trkpt lat="47.86964" lon="6.92033">
        <ele>981.4</ele>
        <time>2023-05-21T05:31:33Z</time>
      </trkpt>
      <trkpt lat="47.86964" lon="6.92024">
        <ele>982.8</ele>
        <time>2023-05-21T05:31:40Z</time>
      </trkpt>
      <trkpt lat="47.86961" lon="6.92008">
        <ele>982.5</ele>
        <time>2023-05-21T05:31:52Z</time>
      </trkpt>
      <trkpt lat="47.86962" lon="6.92">
        <ele>984</ele>
        <time>2023-05-21T05:31:55Z</time>
      </trkpt>
      <trkpt lat="47.86961" lon="6.91981">
        <ele>985.9</ele>
        <time>2023-05-21T05:32:08Z</time>
      </trkpt>
      <trkpt lat="47.86959" lon="6.91961">
        <ele>985.5</ele>
        <time>2023-05-21T05:32:23Z</time>
      </trkpt>
      <trkpt lat="47.8696" lon="6.91955">
        <ele>986.2</ele>
        <time>2023-05-21T05:32:26Z</time>
      </trkpt>
      <trkpt lat="47.86964" lon="6.91949">
        <ele>989.1</ele>
        <time>2023-05-21T05:32:30Z</time>
      </trkpt>
      <trkpt lat="47.86962" lon="6.91941">
        <ele>987.7</ele>
        <time>2023-05-21T05:32:35Z</time>
      </trkpt>
      <trkpt lat="47.86965" lon="6.91905">
        <ele>991.8</ele>
        <time>2023-05-21T05:32:58Z</time>
      </trkpt>
      <trkpt lat="47.86961" lon="6.919">
        <ele>989.3</ele>
        <time>2023-05-21T05:33:04Z</time>
      </trkpt>
      <trkpt lat="47.86959" lon="6.9189">
        <ele>988.9</ele>
        <time>2023-05-21T05:33:11Z</time>
      </trkpt>
      <trkpt lat="47.86964" lon="6.91877">
        <ele>993.9</ele>
        <time>2023-05-21T05:33:18Z</time>
      </trkpt>
      <trkpt lat="47.86964" lon="6.91866">
        <ele>994.9</ele>
        <time>2023-05-21T05:33:25Z</time>
      </trkpt>
      <trkpt lat="47.86961" lon="6.91851">
        <ele>993.6</ele>
        <time>2023-05-21T05:33:36Z</time>
      </trkpt>
      <trkpt lat="47.86962" lon="6.91844">
        <ele>994.5</ele>
        <time>2023-05-21T05:33:40Z</time>
      </trkpt>
      <trkpt lat="47.86968" lon="6.91839">
        <ele>998.4</ele>
        <time>2023-05-21T05:33:45Z</time>
      </trkpt>
      <trkpt lat="47.86966" lon="6.91832">
        <ele>997.2</ele>
        <time>2023-05-21T05:33:50Z</time>
      </trkpt>
      <trkpt lat="47.86966" lon="6.91812">
        <ele>996.8</ele>
        <time>2023-05-21T05:34:02Z</time>
      </trkpt>
      <trkpt lat="47.86968" lon="6.91806">
        <ele>998.1</ele>
        <time>2023-05-21T05:34:06Z</time>
      </trkpt>
      <trkpt lat="47.86968" lon="6.91776">
        <ele>1000</ele>
        <time>2023-05-21T05:34:23Z</time>
      </trkpt>
      <trkpt lat="47.86965" lon="6.91766">
        <ele>999.8</ele>
        <time>2023-05-21T05:34:29Z</time>
      </trkpt>
      <trkpt lat="47.86962" lon="6.91754">
        <ele>1000.4</ele>
        <time>2023-05-21T05:34:38Z</time>
      </trkpt>
      <trkpt lat="47.86961" lon="6.91746">
        <ele>1001.7</ele>
        <time>2023-05-21T05:34:43Z</time>
      </trkpt>
      <trkpt lat="47.8696" lon="6.91729">
        <ele>1005.3</ele>
        <time>2023-05-21T05:34:56Z</time>
      </trkpt>
      <trkpt lat="47.86957" lon="6.91705">
        <ele>1005.2</ele>
        <time>2023-05-21T05:35:12Z</time>
      </trkpt>
      <trkpt lat="47.86958" lon="6.91697">
        <ele>1005.8</ele>
        <time>2023-05-21T05:35:17Z</time>
      </trkpt>
      <trkpt lat="47.86957" lon="6.91687">
        <ele>1006</ele>
        <time>2023-05-21T05:35:23Z</time>
      </trkpt>
      <trkpt lat="47.86953" lon="6.91681">
        <ele>1004.8</ele>
        <time>2023-05-21T05:35:29Z</time>
      </trkpt>
      <trkpt lat="47.86957" lon="6.91681">
        <ele>1006.6</ele>
        <time>2023-05-21T05:36:38Z</time>
      </trkpt>
      <trkpt lat="47.86959" lon="6.91673">
        <ele>1008.2</ele>
        <time>2023-05-21T05:36:44Z</time>
      </trkpt>
      <trkpt lat="47.86963" lon="6.91668">
        <ele>1009.9</ele>
        <time>2023-05-21T05:37:21Z</time>
      </trkpt>
      <trkpt lat="47.86966" lon="6.9166">
        <ele>1010.2</ele>
        <time>2023-05-21T05:37:27Z</time>
      </trkpt>
      <trkpt lat="47.86966" lon="6.91654">
        <ele>1009.4</ele>
        <time>2023-05-21T05:37:30Z</time>
      </trkpt>
      <trkpt lat="47.86965" lon="6.91628">
        <ele>1006.9</ele>
        <time>2023-05-21T05:37:43Z</time>
      </trkpt>
      <trkpt lat="47.86967" lon="6.9162">
        <ele>1008.5</ele>
        <time>2023-05-21T05:37:48Z</time>
      </trkpt>
      <trkpt lat="47.86965" lon="6.91606">
        <ele>1006.8</ele>
        <time>2023-05-21T05:37:54Z</time>
      </trkpt>
      <trkpt lat="47.86965" lon="6.91596">
        <ele>1006.5</ele>
        <time>2023-05-21T05:38:02Z</time>
      </trkpt>
      <trkpt lat="47.86965" lon="6.91589">
        <ele>1006.2</ele>
        <time>2023-05-21T05:38:06Z</time>
      </trkpt>
      <trkpt lat="47.86968" lon="6.91585">
        <ele>1008.6</ele>
        <time>2023-05-21T05:38:10Z</time>
      </trkpt>
      <trkpt lat="47.86969" lon="6.91573">
        <ele>1008.6</ele>
        <time>2023-05-21T05:38:18Z</time>
      </trkpt>
      <trkpt lat="47.86971" lon="6.91565">
        <ele>1009.7</ele>
        <time>2023-05-21T05:38:22Z</time>
      </trkpt>
      <trkpt lat="47.8697" lon="6.91552">
        <ele>1007.9</ele>
        <time>2023-05-21T05:38:30Z</time>
      </trkpt>
      <trkpt lat="47.86971" lon="6.91542">
        <ele>1007.6</ele>
        <time>2023-05-21T05:38:36Z</time>
      </trkpt>
      <trkpt lat="47.86974" lon="6.91501">
        <ele>1007.1</ele>
        <time>2023-05-21T05:38:52Z</time>
      </trkpt>
      <trkpt lat="47.86973" lon="6.91493">
        <ele>1007.9</ele>
        <time>2023-05-21T05:38:59Z</time>
      </trkpt>
      <trkpt lat="47.86975" lon="6.91486">
        <ele>1010.4</ele>
        <time>2023-05-21T05:39:04Z</time>
      </trkpt>
      <trkpt lat="47.86972" lon="6.91477">
        <ele>1010.9</ele>
        <time>2023-05-21T05:39:08Z</time>
      </trkpt>
      <trkpt lat="47.86974" lon="6.91469">
        <ele>1013.8</ele>
        <time>2023-05-21T05:39:11Z</time>
      </trkpt>
      <trkpt lat="47.8697" lon="6.91458">
        <ele>1016.7</ele>
        <time>2023-05-21T05:39:18Z</time>
      </trkpt>
      <trkpt lat="47.86962" lon="6.91461">
        <ele>1014</ele>
        <time>2023-05-21T05:39:28Z</time>
      </trkpt>
      <trkpt lat="47.86955" lon="6.91464">
        <ele>1011.4</ele>
        <time>2023-05-21T05:39:36Z</time>
      </trkpt>
      <trkpt lat="47.86955" lon="6.91457">
        <ele>1014.1</ele>
        <time>2023-05-21T05:39:39Z</time>
      </trkpt>
      <trkpt lat="47.86952" lon="6.91446">
        <ele>1017.8</ele>
        <time>2023-05-21T05:39:46Z</time>
      </trkpt>
      <trkpt lat="47.86947" lon="6.91446">
        <ele>1016.8</ele>
        <time>2023-05-21T05:39:50Z</time>
      </trkpt>
      <trkpt lat="47.86943" lon="6.91446">
        <ele>1015.7</ele>
        <time>2023-05-21T05:39:55Z</time>
      </trkpt>
      <trkpt lat="47.86944" lon="6.91434">
        <ele>1019.8</ele>
        <time>2023-05-21T05:40:02Z</time>
      </trkpt>
      <trkpt lat="47.86934" lon="6.91435">
        <ele>1015.7</ele>
        <time>2023-05-21T05:40:09Z</time>
      </trkpt>
      <trkpt lat="47.86931" lon="6.91429">
        <ele>1016.7</ele>
        <time>2023-05-21T05:40:13Z</time>
      </trkpt>
      <trkpt lat="47.86924" lon="6.91418">
        <ele>1018.6</ele>
        <time>2023-05-21T05:40:20Z</time>
      </trkpt>
      <trkpt lat="47.8692" lon="6.91415">
        <ele>1018.6</ele>
        <time>2023-05-21T05:40:24Z</time>
      </trkpt>
      <trkpt lat="47.86908" lon="6.91404">
        <ele>1018.1</ele>
        <time>2023-05-21T05:40:37Z</time>
      </trkpt>
      <trkpt lat="47.86907" lon="6.91396">
        <ele>1020.9</ele>
        <time>2023-05-21T05:40:42Z</time>
      </trkpt>
      <trkpt lat="47.86907" lon="6.91389">
        <ele>1023.8</ele>
        <time>2023-05-21T05:40:46Z</time>
      </trkpt>
      <trkpt lat="47.86902" lon="6.91385">
        <ele>1023.5</ele>
        <time>2023-05-21T05:40:49Z</time>
      </trkpt>
      <trkpt lat="47.86898" lon="6.91384">
        <ele>1022.3</ele>
        <time>2023-05-21T05:40:54Z</time>
      </trkpt>
      <trkpt lat="47.86893" lon="6.91384">
        <ele>1020.2</ele>
        <time>2023-05-21T05:40:58Z</time>
      </trkpt>
      <trkpt lat="47.86889" lon="6.91381">
        <ele>1020</ele>
        <time>2023-05-21T05:41:01Z</time>
      </trkpt>
      <trkpt lat="47.86881" lon="6.91376">
        <ele>1019.5</ele>
        <time>2023-05-21T05:41:12Z</time>
      </trkpt>
      <trkpt lat="47.86878" lon="6.91371">
        <ele>1020.7</ele>
        <time>2023-05-21T05:41:16Z</time>
      </trkpt>
      <trkpt lat="47.86879" lon="6.91364">
        <ele>1024.4</ele>
        <time>2023-05-21T05:41:19Z</time>
      </trkpt>
      <trkpt lat="47.86874" lon="6.91359">
        <ele>1024.2</ele>
        <time>2023-05-21T05:41:23Z</time>
      </trkpt>
      <trkpt lat="47.86871" lon="6.9135">
        <ele>1025.6</ele>
        <time>2023-05-21T05:41:31Z</time>
      </trkpt>
      <trkpt lat="47.86869" lon="6.91327">
        <ele>1031.2</ele>
        <time>2023-05-21T05:41:45Z</time>
      </trkpt>
      <trkpt lat="47.86863" lon="6.91324">
        <ele>1029.2</ele>
        <time>2023-05-21T05:41:48Z</time>
      </trkpt>
      <trkpt lat="47.86861" lon="6.91315">
        <ele>1030.6</ele>
        <time>2023-05-21T05:41:53Z</time>
      </trkpt>
      <trkpt lat="47.86857" lon="6.91312">
        <ele>1029.2</ele>
        <time>2023-05-21T05:41:56Z</time>
      </trkpt>
      <trkpt lat="47.86854" lon="6.91307">
        <ele>1029</ele>
        <time>2023-05-21T05:42:00Z</time>
      </trkpt>
      <trkpt lat="47.86849" lon="6.913">
        <ele>1028</ele>
        <time>2023-05-21T05:42:09Z</time>
      </trkpt>
      <trkpt lat="47.86849" lon="6.91292">
        <ele>1029.6</ele>
        <time>2023-05-21T05:42:12Z</time>
      </trkpt>
      <trkpt lat="47.86845" lon="6.91284">
        <ele>1029.1</ele>
        <time>2023-05-21T05:42:19Z</time>
      </trkpt>
      <trkpt lat="47.86844" lon="6.91278">
        <ele>1029.7</ele>
        <time>2023-05-21T05:42:22Z</time>
      </trkpt>
      <trkpt lat="47.86846" lon="6.91271">
        <ele>1031.1</ele>
        <time>2023-05-21T05:42:25Z</time>
      </trkpt>
      <trkpt lat="47.86848" lon="6.91266">
        <ele>1032.3</ele>
        <time>2023-05-21T05:42:28Z</time>
      </trkpt>
      <trkpt lat="47.86849" lon="6.91256">
        <ele>1033.2</ele>
        <time>2023-05-21T05:42:31Z</time>
      </trkpt>
      <trkpt lat="47.8685" lon="6.91251">
        <ele>1034</ele>
        <time>2023-05-21T05:42:35Z</time>
      </trkpt>
      <trkpt lat="47.86851" lon="6.91241">
        <ele>1035.2</ele>
        <time>2023-05-21T05:42:43Z</time>
      </trkpt>
      <trkpt lat="47.8685" lon="6.91234">
        <ele>1035</ele>
        <time>2023-05-21T05:42:46Z</time>
      </trkpt>
      <trkpt lat="47.86852" lon="6.91227">
        <ele>1036.7</ele>
        <time>2023-05-21T05:42:51Z</time>
      </trkpt>
      <trkpt lat="47.86846" lon="6.91216">
        <ele>1033.5</ele>
        <time>2023-05-21T05:43:01Z</time>
      </trkpt>
      <trkpt lat="47.86844" lon="6.91209">
        <ele>1032.5</ele>
        <time>2023-05-21T05:43:05Z</time>
      </trkpt>
      <trkpt lat="47.86843" lon="6.912">
        <ele>1032.1</ele>
        <time>2023-05-21T05:43:10Z</time>
      </trkpt>
      <trkpt lat="47.86844" lon="6.9119">
        <ele>1033.7</ele>
        <time>2023-05-21T05:43:14Z</time>
      </trkpt>
      <trkpt lat="47.8684" lon="6.91176">
        <ele>1032.7</ele>
        <time>2023-05-21T05:43:20Z</time>
      </trkpt>
      <trkpt lat="47.86837" lon="6.91165">
        <ele>1032.3</ele>
        <time>2023-05-21T05:43:26Z</time>
      </trkpt>
      <trkpt lat="47.86834" lon="6.91159">
        <ele>1031.7</ele>
        <time>2023-05-21T05:43:29Z</time>
      </trkpt>
      <trkpt lat="47.86834" lon="6.91152">
        <ele>1033.8</ele>
        <time>2023-05-21T05:43:32Z</time>
      </trkpt>
      <trkpt lat="47.86833" lon="6.91146">
        <ele>1034.7</ele>
        <time>2023-05-21T05:43:36Z</time>
      </trkpt>
      <trkpt lat="47.86832" lon="6.9114">
        <ele>1035.7</ele>
        <time>2023-05-21T05:43:40Z</time>
      </trkpt>
      <trkpt lat="47.86824" lon="6.91133">
        <ele>1031.7</ele>
        <time>2023-05-21T05:43:49Z</time>
      </trkpt>
      <trkpt lat="47.86824" lon="6.91124">
        <ele>1034.4</ele>
        <time>2023-05-21T05:43:56Z</time>
      </trkpt>
      <trkpt lat="47.86818" lon="6.91102">
        <ele>1037.3</ele>
        <time>2023-05-21T05:44:08Z</time>
      </trkpt>
      <trkpt lat="47.86813" lon="6.91097">
        <ele>1034.7</ele>
        <time>2023-05-21T05:44:14Z</time>
      </trkpt>
      <trkpt lat="47.8681" lon="6.91094">
        <ele>1032.9</ele>
        <time>2023-05-21T05:44:17Z</time>
      </trkpt>
      <trkpt lat="47.86808" lon="6.91085">
        <ele>1034.1</ele>
        <time>2023-05-21T05:44:22Z</time>
      </trkpt>
      <trkpt lat="47.86804" lon="6.91081">
        <ele>1032.2</ele>
        <time>2023-05-21T05:44:26Z</time>
      </trkpt>
      <trkpt lat="47.86795" lon="6.91071">
        <ele>1031.6</ele>
        <time>2023-05-21T05:44:37Z</time>
      </trkpt>
      <trkpt lat="47.86793" lon="6.91064">
        <ele>1033.6</ele>
        <time>2023-05-21T05:44:40Z</time>
      </trkpt>
      <trkpt lat="47.8679" lon="6.91057">
        <ele>1035</ele>
        <time>2023-05-21T05:44:44Z</time>
      </trkpt>
      <trkpt lat="47.86786" lon="6.91052">
        <ele>1035.3</ele>
        <time>2023-05-21T05:44:48Z</time>
      </trkpt>
      <trkpt lat="47.86769" lon="6.91045">
        <ele>1032.2</ele>
        <time>2023-05-21T05:45:03Z</time>
      </trkpt>
      <trkpt lat="47.86764" lon="6.91038">
        <ele>1034.7</ele>
        <time>2023-05-21T05:45:13Z</time>
      </trkpt>
      <trkpt lat="47.86754" lon="6.91034">
        <ele>1034.5</ele>
        <time>2023-05-21T05:45:26Z</time>
      </trkpt>
      <trkpt lat="47.86746" lon="6.91024">
        <ele>1037.3</ele>
        <time>2023-05-21T05:45:33Z</time>
      </trkpt>
      <trkpt lat="47.86741" lon="6.91022">
        <ele>1035.7</ele>
        <time>2023-05-21T05:45:36Z</time>
      </trkpt>
      <trkpt lat="47.86735" lon="6.91016">
        <ele>1035.5</ele>
        <time>2023-05-21T05:45:43Z</time>
      </trkpt>
      <trkpt lat="47.86731" lon="6.91008">
        <ele>1036.8</ele>
        <time>2023-05-21T05:45:50Z</time>
      </trkpt>
      <trkpt lat="47.86731" lon="6.91001">
        <ele>1040.2</ele>
        <time>2023-05-21T05:45:55Z</time>
      </trkpt>
      <trkpt lat="47.8673" lon="6.90995">
        <ele>1041.6</ele>
        <time>2023-05-21T05:45:57Z</time>
      </trkpt>
      <trkpt lat="47.86722" lon="6.90991">
        <ele>1036.4</ele>
        <time>2023-05-21T05:46:04Z</time>
      </trkpt>
      <trkpt lat="47.8672" lon="6.90984">
        <ele>1036.8</ele>
        <time>2023-05-21T05:46:09Z</time>
      </trkpt>
      <trkpt lat="47.86719" lon="6.90976">
        <ele>1038.1</ele>
        <time>2023-05-21T05:46:12Z</time>
      </trkpt>
      <trkpt lat="47.8672" lon="6.90967">
        <ele>1040.3</ele>
        <time>2023-05-21T05:46:15Z</time>
      </trkpt>
      <trkpt lat="47.86716" lon="6.90961">
        <ele>1037.3</ele>
        <time>2023-05-21T05:46:19Z</time>
      </trkpt>
      <trkpt lat="47.86717" lon="6.90954">
        <ele>1038.6</ele>
        <time>2023-05-21T05:46:23Z</time>
      </trkpt>
      <trkpt lat="47.86713" lon="6.9094">
        <ele>1037.3</ele>
        <time>2023-05-21T05:46:27Z</time>
      </trkpt>
      <trkpt lat="47.86715" lon="6.90925">
        <ele>1041.5</ele>
        <time>2023-05-21T05:46:34Z</time>
      </trkpt>
      <trkpt lat="47.86716" lon="6.90919">
        <ele>1043.2</ele>
        <time>2023-05-21T05:46:39Z</time>
      </trkpt>
      <trkpt lat="47.86712" lon="6.90914">
        <ele>1042.5</ele>
        <time>2023-05-21T05:46:41Z</time>
      </trkpt>
      <trkpt lat="47.86707" lon="6.90914">
        <ele>1039.8</ele>
        <time>2023-05-21T05:46:44Z</time>
      </trkpt>
      <trkpt lat="47.86699" lon="6.90911">
        <ele>1036.7</ele>
        <time>2023-05-21T05:46:54Z</time>
      </trkpt>
      <trkpt lat="47.86693" lon="6.90911">
        <ele>1034</ele>
        <time>2023-05-21T05:46:59Z</time>
      </trkpt>
      <trkpt lat="47.8669" lon="6.90903">
        <ele>1036.8</ele>
        <time>2023-05-21T05:47:06Z</time>
      </trkpt>
      <trkpt lat="47.86688" lon="6.90895">
        <ele>1039.9</ele>
        <time>2023-05-21T05:47:10Z</time>
      </trkpt>
      <trkpt lat="47.8668" lon="6.90892">
        <ele>1040.5</ele>
        <time>2023-05-21T05:47:17Z</time>
      </trkpt>
      <trkpt lat="47.86674" lon="6.90897">
        <ele>1037.5</ele>
        <time>2023-05-21T05:47:20Z</time>
      </trkpt>
      <trkpt lat="47.8667" lon="6.90901">
        <ele>1034.9</ele>
        <time>2023-05-21T05:47:23Z</time>
      </trkpt>
      <trkpt lat="47.86665" lon="6.90899">
        <ele>1035.9</ele>
        <time>2023-05-21T05:47:28Z</time>
      </trkpt>
      <trkpt lat="47.86659" lon="6.90903">
        <ele>1034.9</ele>
        <time>2023-05-21T05:47:34Z</time>
      </trkpt>
      <trkpt lat="47.86651" lon="6.90902">
        <ele>1037</ele>
        <time>2023-05-21T05:47:41Z</time>
      </trkpt>
      <trkpt lat="47.86646" lon="6.90902">
        <ele>1038</ele>
        <time>2023-05-21T05:47:44Z</time>
      </trkpt>
      <trkpt lat="47.86642" lon="6.90905">
        <ele>1037.3</ele>
        <time>2023-05-21T05:47:48Z</time>
      </trkpt>
      <trkpt lat="47.86635" lon="6.90911">
        <ele>1035.1</ele>
        <time>2023-05-21T05:47:54Z</time>
      </trkpt>
      <trkpt lat="47.86626" lon="6.90911">
        <ele>1035.6</ele>
        <time>2023-05-21T05:48:03Z</time>
      </trkpt>
      <trkpt lat="47.86621" lon="6.90912">
        <ele>1035.3</ele>
        <time>2023-05-21T05:48:06Z</time>
      </trkpt>
      <trkpt lat="47.86617" lon="6.90909">
        <ele>1037.3</ele>
        <time>2023-05-21T05:48:11Z</time>
      </trkpt>
      <trkpt lat="47.86604" lon="6.90913">
        <ele>1037.2</ele>
        <time>2023-05-21T05:48:20Z</time>
      </trkpt>
      <trkpt lat="47.86594" lon="6.90916">
        <ele>1037.8</ele>
        <time>2023-05-21T05:48:28Z</time>
      </trkpt>
      <trkpt lat="47.86589" lon="6.90919">
        <ele>1037.3</ele>
        <time>2023-05-21T05:48:32Z</time>
      </trkpt>
      <trkpt lat="47.86575" lon="6.90926">
        <ele>1037.6</ele>
        <time>2023-05-21T05:48:46Z</time>
      </trkpt>
      <trkpt lat="47.8657" lon="6.90934">
        <ele>1035.1</ele>
        <time>2023-05-21T05:48:54Z</time>
      </trkpt>
      <trkpt lat="47.86566" lon="6.90938">
        <ele>1034.4</ele>
        <time>2023-05-21T05:49:00Z</time>
      </trkpt>
      <trkpt lat="47.86561" lon="6.90941">
        <ele>1034.7</ele>
        <time>2023-05-21T05:49:03Z</time>
      </trkpt>
      <trkpt lat="47.86557" lon="6.90942">
        <ele>1035.6</ele>
        <time>2023-05-21T05:49:06Z</time>
      </trkpt>
      <trkpt lat="47.86548" lon="6.90941">
        <ele>1037.4</ele>
        <time>2023-05-21T05:49:15Z</time>
      </trkpt>
      <trkpt lat="47.86544" lon="6.90942">
        <ele>1037.5</ele>
        <time>2023-05-21T05:49:19Z</time>
      </trkpt>
      <trkpt lat="47.86539" lon="6.90946">
        <ele>1037.3</ele>
        <time>2023-05-21T05:49:22Z</time>
      </trkpt>
      <trkpt lat="47.86534" lon="6.90947">
        <ele>1038.1</ele>
        <time>2023-05-21T05:49:26Z</time>
      </trkpt>
      <trkpt lat="47.86531" lon="6.90943">
        <ele>1038.8</ele>
        <time>2023-05-21T05:49:30Z</time>
      </trkpt>
      <trkpt lat="47.86523" lon="6.90943">
        <ele>1039.2</ele>
        <time>2023-05-21T05:49:44Z</time>
      </trkpt>
      <trkpt lat="47.8652" lon="6.90937">
        <ele>1039.8</ele>
        <time>2023-05-21T05:49:48Z</time>
      </trkpt>
      <trkpt lat="47.86514" lon="6.90924">
        <ele>1040.5</ele>
        <time>2023-05-21T05:49:56Z</time>
      </trkpt>
      <trkpt lat="47.86504" lon="6.90908">
        <ele>1040.7</ele>
        <time>2023-05-21T05:50:07Z</time>
      </trkpt>
      <trkpt lat="47.86471" lon="6.90872">
        <ele>1040.9</ele>
        <time>2023-05-21T05:50:38Z</time>
      </trkpt>
      <trkpt lat="47.86466" lon="6.90872">
        <ele>1041</ele>
        <time>2023-05-21T05:50:42Z</time>
      </trkpt>
      <trkpt lat="47.86453" lon="6.90878">
        <ele>1040.4</ele>
        <time>2023-05-21T05:50:52Z</time>
      </trkpt>
      <trkpt lat="47.86446" lon="6.90888">
        <ele>1039.1</ele>
        <time>2023-05-21T05:50:59Z</time>
      </trkpt>
      <trkpt lat="47.8643" lon="6.90903">
        <ele>1040.5</ele>
        <time>2023-05-21T05:51:16Z</time>
      </trkpt>
      <trkpt lat="47.86423" lon="6.90912">
        <ele>1040.4</ele>
        <time>2023-05-21T05:51:22Z</time>
      </trkpt>
      <trkpt lat="47.86417" lon="6.90923">
        <ele>1040</ele>
        <time>2023-05-21T05:51:30Z</time>
      </trkpt>
      <trkpt lat="47.86409" lon="6.90932">
        <ele>1040.4</ele>
        <time>2023-05-21T05:51:37Z</time>
      </trkpt>
      <trkpt lat="47.86405" lon="6.90935">
        <ele>1040.4</ele>
        <time>2023-05-21T05:51:41Z</time>
      </trkpt>
      <trkpt lat="47.86386" lon="6.90959">
        <ele>1040.4</ele>
        <time>2023-05-21T05:51:59Z</time>
      </trkpt>
      <trkpt lat="47.86377" lon="6.90966">
        <ele>1041.4</ele>
        <time>2023-05-21T05:52:07Z</time>
      </trkpt>
      <trkpt lat="47.86374" lon="6.90971">
        <ele>1041.6</ele>
        <time>2023-05-21T05:52:10Z</time>
      </trkpt>
      <trkpt lat="47.86351" lon="6.90989">
        <ele>1042.1</ele>
        <time>2023-05-21T05:52:33Z</time>
      </trkpt>
      <trkpt lat="47.86354" lon="6.91">
        <ele>1042.7</ele>
        <time>2023-05-21T05:52:41Z</time>
      </trkpt>
      <trkpt lat="47.86354" lon="6.91008">
        <ele>1044.2</ele>
        <time>2023-05-21T05:52:45Z</time>
      </trkpt>
      <trkpt lat="47.86353" lon="6.91014">
        <ele>1045.1</ele>
        <time>2023-05-21T05:52:49Z</time>
      </trkpt>
      <trkpt lat="47.86339" lon="6.91039">
        <ele>1047.6</ele>
        <time>2023-05-21T05:53:09Z</time>
      </trkpt>
      <trkpt lat="47.8632" lon="6.91062">
        <ele>1052.5</ele>
        <time>2023-05-21T05:53:31Z</time>
      </trkpt>
      <trkpt lat="47.86307" lon="6.91063">
        <ele>1052.7</ele>
        <time>2023-05-21T05:53:43Z</time>
      </trkpt>
      <trkpt lat="47.86302" lon="6.91066">
        <ele>1054.3</ele>
        <time>2023-05-21T05:53:46Z</time>
      </trkpt>
      <trkpt lat="47.86286" lon="6.91064">
        <ele>1055.9</ele>
        <time>2023-05-21T05:54:00Z</time>
      </trkpt>
      <trkpt lat="47.86274" lon="6.91058">
        <ele>1055.8</ele>
        <time>2023-05-21T05:54:06Z</time>
      </trkpt>
      <trkpt lat="47.86268" lon="6.9106">
        <ele>1058</ele>
        <time>2023-05-21T05:54:14Z</time>
      </trkpt>
      <trkpt lat="47.86259" lon="6.91055">
        <ele>1058.6</ele>
        <time>2023-05-21T05:54:22Z</time>
      </trkpt>
      <trkpt lat="47.86251" lon="6.91045">
        <ele>1058.1</ele>
        <time>2023-05-21T05:54:31Z</time>
      </trkpt>
      <trkpt lat="47.86246" lon="6.91042">
        <ele>1058.7</ele>
        <time>2023-05-21T05:54:36Z</time>
      </trkpt>
      <trkpt lat="47.8624" lon="6.9104">
        <ele>1060</ele>
        <time>2023-05-21T05:54:39Z</time>
      </trkpt>
      <trkpt lat="47.86237" lon="6.91034">
        <ele>1059.3</ele>
        <time>2023-05-21T05:54:43Z</time>
      </trkpt>
      <trkpt lat="47.86217" lon="6.91028">
        <ele>1063.6</ele>
        <time>2023-05-21T05:55:01Z</time>
      </trkpt>
      <trkpt lat="47.86207" lon="6.91021">
        <ele>1065.2</ele>
        <time>2023-05-21T05:55:13Z</time>
      </trkpt>
      <trkpt lat="47.86202" lon="6.91028">
        <ele>1067.9</ele>
        <time>2023-05-21T05:55:19Z</time>
      </trkpt>
      <trkpt lat="47.86196" lon="6.91024">
        <ele>1069</ele>
        <time>2023-05-21T05:55:28Z</time>
      </trkpt>
      <trkpt lat="47.86192" lon="6.91022">
        <ele>1069.9</ele>
        <time>2023-05-21T05:55:32Z</time>
      </trkpt>
      <trkpt lat="47.86186" lon="6.91018">
        <ele>1071.2</ele>
        <time>2023-05-21T05:55:39Z</time>
      </trkpt>
      <trkpt lat="47.86184" lon="6.91011">
        <ele>1070.7</ele>
        <time>2023-05-21T05:55:43Z</time>
      </trkpt>
      <trkpt lat="47.8618" lon="6.91007">
        <ele>1071.3</ele>
        <time>2023-05-21T05:55:52Z</time>
      </trkpt>
      <trkpt lat="47.86176" lon="6.91008">
        <ele>1072.7</ele>
        <time>2023-05-21T05:55:56Z</time>
      </trkpt>
      <trkpt lat="47.86169" lon="6.91007">
        <ele>1074.6</ele>
        <time>2023-05-21T05:56:03Z</time>
      </trkpt>
      <trkpt lat="47.86165" lon="6.91009">
        <ele>1076</ele>
        <time>2023-05-21T05:56:08Z</time>
      </trkpt>
      <trkpt lat="47.8616" lon="6.91007">
        <ele>1076.6</ele>
        <time>2023-05-21T05:56:14Z</time>
      </trkpt>
      <trkpt lat="47.86152" lon="6.91002">
        <ele>1077.1</ele>
        <time>2023-05-21T05:56:23Z</time>
      </trkpt>
      <trkpt lat="47.86149" lon="6.91011">
        <ele>1079.7</ele>
        <time>2023-05-21T05:56:30Z</time>
      </trkpt>
      <trkpt lat="47.86122" lon="6.90999">
        <ele>1082.5</ele>
        <time>2023-05-21T05:56:53Z</time>
      </trkpt>
      <trkpt lat="47.86118" lon="6.90996">
        <ele>1082.8</ele>
        <time>2023-05-21T05:56:58Z</time>
      </trkpt>
      <trkpt lat="47.86112" lon="6.90995">
        <ele>1083.9</ele>
        <time>2023-05-21T05:57:02Z</time>
      </trkpt>
      <trkpt lat="47.86105" lon="6.90997">
        <ele>1085.5</ele>
        <time>2023-05-21T05:57:09Z</time>
      </trkpt>
      <trkpt lat="47.86099" lon="6.90991">
        <ele>1085.3</ele>
        <time>2023-05-21T05:57:16Z</time>
      </trkpt>
      <trkpt lat="47.8609" lon="6.90992">
        <ele>1086.9</ele>
        <time>2023-05-21T05:57:23Z</time>
      </trkpt>
      <trkpt lat="47.86086" lon="6.90995">
        <ele>1088.3</ele>
        <time>2023-05-21T05:57:27Z</time>
      </trkpt>
      <trkpt lat="47.86081" lon="6.90996">
        <ele>1089.3</ele>
        <time>2023-05-21T05:57:30Z</time>
      </trkpt>
      <trkpt lat="47.86076" lon="6.90994">
        <ele>1089.4</ele>
        <time>2023-05-21T05:57:35Z</time>
      </trkpt>
      <trkpt lat="47.86071" lon="6.90992">
        <ele>1089.6</ele>
        <time>2023-05-21T05:57:43Z</time>
      </trkpt>
      <trkpt lat="47.86053" lon="6.90998">
        <ele>1093</ele>
        <time>2023-05-21T05:58:00Z</time>
      </trkpt>
      <trkpt lat="47.86048" lon="6.90995">
        <ele>1093.2</ele>
        <time>2023-05-21T05:58:05Z</time>
      </trkpt>
      <trkpt lat="47.86044" lon="6.90992">
        <ele>1093.2</ele>
        <time>2023-05-21T05:58:08Z</time>
      </trkpt>
      <trkpt lat="47.86033" lon="6.90996">
        <ele>1095.5</ele>
        <time>2023-05-21T05:58:19Z</time>
      </trkpt>
      <trkpt lat="47.8601" lon="6.90988">
        <ele>1099</ele>
        <time>2023-05-21T05:58:40Z</time>
      </trkpt>
      <trkpt lat="47.86004" lon="6.9099">
        <ele>1100.9</ele>
        <time>2023-05-21T05:58:45Z</time>
      </trkpt>
      <trkpt lat="47.85985" lon="6.90985">
        <ele>1104.8</ele>
        <time>2023-05-21T05:59:06Z</time>
      </trkpt>
      <trkpt lat="47.85977" lon="6.90977">
        <ele>1105.5</ele>
        <time>2023-05-21T05:59:14Z</time>
      </trkpt>
      <trkpt lat="47.85972" lon="6.90979">
        <ele>1107.3</ele>
        <time>2023-05-21T05:59:19Z</time>
      </trkpt>
      <trkpt lat="47.85965" lon="6.90979">
        <ele>1108.9</ele>
        <time>2023-05-21T05:59:28Z</time>
      </trkpt>
      <trkpt lat="47.8596" lon="6.90973">
        <ele>1109.2</ele>
        <time>2023-05-21T05:59:41Z</time>
      </trkpt>
      <trkpt lat="47.85952" lon="6.90956">
        <ele>1109.8</ele>
        <time>2023-05-21T05:59:53Z</time>
      </trkpt>
      <trkpt lat="47.85945" lon="6.90955">
        <ele>1111.6</ele>
        <time>2023-05-21T06:00:00Z</time>
      </trkpt>
      <trkpt lat="47.85933" lon="6.90954">
        <ele>1112.8</ele>
        <time>2023-05-21T06:00:15Z</time>
      </trkpt>
      <trkpt lat="47.85928" lon="6.90956">
        <ele>1113.4</ele>
        <time>2023-05-21T06:00:20Z</time>
      </trkpt>
      <trkpt lat="47.85897" lon="6.90991">
        <ele>1114.9</ele>
        <time>2023-05-21T06:00:52Z</time>
      </trkpt>
      <trkpt lat="47.85886" lon="6.91004">
        <ele>1115.2</ele>
        <time>2023-05-21T06:01:04Z</time>
      </trkpt>
      <trkpt lat="47.85882" lon="6.91009">
        <ele>1115.5</ele>
        <time>2023-05-21T06:01:09Z</time>
      </trkpt>
      <trkpt lat="47.85872" lon="6.91019">
        <ele>1115.5</ele>
        <time>2023-05-21T06:01:21Z</time>
      </trkpt>
      <trkpt lat="47.85867" lon="6.91021">
        <ele>1115.1</ele>
        <time>2023-05-21T06:01:26Z</time>
      </trkpt>
      <trkpt lat="47.85862" lon="6.9102">
        <ele>1114.3</ele>
        <time>2023-05-21T06:01:31Z</time>
      </trkpt>
      <trkpt lat="47.85833" lon="6.91054">
        <ele>1116.6</ele>
        <time>2023-05-21T06:02:05Z</time>
      </trkpt>
      <trkpt lat="47.85823" lon="6.91069">
        <ele>1116.1</ele>
        <time>2023-05-21T06:02:17Z</time>
      </trkpt>
      <trkpt lat="47.85806" lon="6.91112">
        <ele>1119.2</ele>
        <time>2023-05-21T06:02:43Z</time>
      </trkpt>
      <trkpt lat="47.85795" lon="6.91125">
        <ele>1117.4</ele>
        <time>2023-05-21T06:02:55Z</time>
      </trkpt>
      <trkpt lat="47.85778" lon="6.91159">
        <ele>1117</ele>
        <time>2023-05-21T06:03:20Z</time>
      </trkpt>
      <trkpt lat="47.85777" lon="6.91165">
        <ele>1117.5</ele>
        <time>2023-05-21T06:03:24Z</time>
      </trkpt>
      <trkpt lat="47.85754" lon="6.91205">
        <ele>1114.6</ele>
        <time>2023-05-21T06:03:57Z</time>
      </trkpt>
      <trkpt lat="47.85748" lon="6.91216">
        <ele>1113.5</ele>
        <time>2023-05-21T06:04:04Z</time>
      </trkpt>
      <trkpt lat="47.8573" lon="6.91268">
        <ele>1108.8</ele>
        <time>2023-05-21T06:04:36Z</time>
      </trkpt>
      <trkpt lat="47.85713" lon="6.91322">
        <ele>1104.1</ele>
        <time>2023-05-21T06:05:08Z</time>
      </trkpt>
      <trkpt lat="47.85708" lon="6.91335">
        <ele>1102.5</ele>
        <time>2023-05-21T06:05:17Z</time>
      </trkpt>
      <trkpt lat="47.85705" lon="6.91341">
        <ele>1101.7</ele>
        <time>2023-05-21T06:05:21Z</time>
      </trkpt>
      <trkpt lat="47.85696" lon="6.91368">
        <ele>1100.2</ele>
        <time>2023-05-21T06:05:37Z</time>
      </trkpt>
      <trkpt lat="47.85691" lon="6.91381">
        <ele>1099.1</ele>
        <time>2023-05-21T06:05:46Z</time>
      </trkpt>
      <trkpt lat="47.85689" lon="6.91388">
        <ele>1099</ele>
        <time>2023-05-21T06:05:50Z</time>
      </trkpt>
      <trkpt lat="47.85669" lon="6.9142">
        <ele>1097.1</ele>
        <time>2023-05-21T06:06:15Z</time>
      </trkpt>
      <trkpt lat="47.85646" lon="6.91464">
        <ele>1094</ele>
        <time>2023-05-21T06:06:47Z</time>
      </trkpt>
      <trkpt lat="47.85633" lon="6.91495">
        <ele>1093.1</ele>
        <time>2023-05-21T06:07:05Z</time>
      </trkpt>
      <trkpt lat="47.85626" lon="6.91515">
        <ele>1092.8</ele>
        <time>2023-05-21T06:07:17Z</time>
      </trkpt>
      <trkpt lat="47.85624" lon="6.9152">
        <ele>1092.7</ele>
        <time>2023-05-21T06:07:21Z</time>
      </trkpt>
      <trkpt lat="47.85618" lon="6.91538">
        <ele>1092.4</ele>
        <time>2023-05-21T06:07:33Z</time>
      </trkpt>
      <trkpt lat="47.85614" lon="6.91552">
        <ele>1092.4</ele>
        <time>2023-05-21T06:07:41Z</time>
      </trkpt>
      <trkpt lat="47.85612" lon="6.91565">
        <ele>1092.5</ele>
        <time>2023-05-21T06:07:49Z</time>
      </trkpt>
      <trkpt lat="47.85608" lon="6.91579">
        <ele>1091.8</ele>
        <time>2023-05-21T06:07:57Z</time>
      </trkpt>
      <trkpt lat="47.85608" lon="6.91587">
        <ele>1092.1</ele>
        <time>2023-05-21T06:08:02Z</time>
      </trkpt>
      <trkpt lat="47.856" lon="6.91621">
        <ele>1090.1</ele>
        <time>2023-05-21T06:08:22Z</time>
      </trkpt>
      <trkpt lat="47.85599" lon="6.91629">
        <ele>1089.9</ele>
        <time>2023-05-21T06:08:26Z</time>
      </trkpt>
      <trkpt lat="47.85596" lon="6.91643">
        <ele>1089.3</ele>
        <time>2023-05-21T06:08:34Z</time>
      </trkpt>
      <trkpt lat="47.85596" lon="6.9165">
        <ele>1089.5</ele>
        <time>2023-05-21T06:08:38Z</time>
      </trkpt>
      <trkpt lat="47.85587" lon="6.91692">
        <ele>1088.7</ele>
        <time>2023-05-21T06:09:02Z</time>
      </trkpt>
      <trkpt lat="47.85583" lon="6.91695">
        <ele>1088</ele>
        <time>2023-05-21T06:09:10Z</time>
      </trkpt>
      <trkpt lat="47.85578" lon="6.91714">
        <ele>1088.3</ele>
        <time>2023-05-21T06:09:32Z</time>
      </trkpt>
      <trkpt lat="47.85571" lon="6.91726">
        <ele>1088.1</ele>
        <time>2023-05-21T06:09:40Z</time>
      </trkpt>
      <trkpt lat="47.85558" lon="6.91736">
        <ele>1087.6</ele>
        <time>2023-05-21T06:09:52Z</time>
      </trkpt>
      <trkpt lat="47.85529" lon="6.91746">
        <ele>1088.8</ele>
        <time>2023-05-21T06:10:16Z</time>
      </trkpt>
      <trkpt lat="47.85524" lon="6.91746">
        <ele>1089.1</ele>
        <time>2023-05-21T06:10:20Z</time>
      </trkpt>
      <trkpt lat="47.85515" lon="6.91752">
        <ele>1090</ele>
        <time>2023-05-21T06:10:28Z</time>
      </trkpt>
      <trkpt lat="47.8551" lon="6.91751">
        <ele>1090.3</ele>
        <time>2023-05-21T06:10:36Z</time>
      </trkpt>
      <trkpt lat="47.85506" lon="6.91754">
        <ele>1090.7</ele>
        <time>2023-05-21T06:10:42Z</time>
      </trkpt>
      <trkpt lat="47.85498" lon="6.91755">
        <ele>1091.3</ele>
        <time>2023-05-21T06:10:54Z</time>
      </trkpt>
      <trkpt lat="47.85489" lon="6.91759">
        <ele>1092</ele>
        <time>2023-05-21T06:11:01Z</time>
      </trkpt>
      <trkpt lat="47.85485" lon="6.91755">
        <ele>1092.2</ele>
        <time>2023-05-21T06:11:05Z</time>
      </trkpt>
      <trkpt lat="47.85481" lon="6.91751">
        <ele>1092.4</ele>
        <time>2023-05-21T06:11:08Z</time>
      </trkpt>
      <trkpt lat="47.85473" lon="6.91741">
        <ele>1092.6</ele>
        <time>2023-05-21T06:11:15Z</time>
      </trkpt>
      <trkpt lat="47.85467" lon="6.91731">
        <ele>1092.7</ele>
        <time>2023-05-21T06:11:22Z</time>
      </trkpt>
      <trkpt lat="47.85465" lon="6.91724">
        <ele>1092.6</ele>
        <time>2023-05-21T06:11:27Z</time>
      </trkpt>
      <trkpt lat="47.85461" lon="6.91708">
        <ele>1091.7</ele>
        <time>2023-05-21T06:11:59Z</time>
      </trkpt>
      <trkpt lat="47.85442" lon="6.91671">
        <ele>1091.6</ele>
        <time>2023-05-21T06:12:39Z</time>
      </trkpt>
      <trkpt lat="47.85435" lon="6.91666">
        <ele>1091.9</ele>
        <time>2023-05-21T06:12:53Z</time>
      </trkpt>
      <trkpt lat="47.8543" lon="6.91667">
        <ele>1092.6</ele>
        <time>2023-05-21T06:12:57Z</time>
      </trkpt>
      <trkpt lat="47.85422" lon="6.9167">
        <ele>1093.7</ele>
        <time>2023-05-21T06:13:58Z</time>
      </trkpt>
      <trkpt lat="47.85415" lon="6.91684">
        <ele>1095.6</ele>
        <time>2023-05-21T06:14:09Z</time>
      </trkpt>
      <trkpt lat="47.8541" lon="6.91686">
        <ele>1096.8</ele>
        <time>2023-05-21T06:14:13Z</time>
      </trkpt>
      <trkpt lat="47.85399" lon="6.91685">
        <ele>1098.9</ele>
        <time>2023-05-21T06:14:25Z</time>
      </trkpt>
      <trkpt lat="47.85394" lon="6.91681">
        <ele>1099.5</ele>
        <time>2023-05-21T06:14:32Z</time>
      </trkpt>
      <trkpt lat="47.85378" lon="6.91675">
        <ele>1102.4</ele>
        <time>2023-05-21T06:14:48Z</time>
      </trkpt>
      <trkpt lat="47.85374" lon="6.91674">
        <ele>1103.1</ele>
        <time>2023-05-21T06:14:53Z</time>
      </trkpt>
      <trkpt lat="47.85369" lon="6.91676">
        <ele>1104.5</ele>
        <time>2023-05-21T06:14:58Z</time>
      </trkpt>
      <trkpt lat="47.85364" lon="6.91675">
        <ele>1105.5</ele>
        <time>2023-05-21T06:15:02Z</time>
      </trkpt>
      <trkpt lat="47.85354" lon="6.91668">
        <ele>1107.3</ele>
        <time>2023-05-21T06:15:18Z</time>
      </trkpt>
      <trkpt lat="47.8533" lon="6.9166">
        <ele>1113</ele>
        <time>2023-05-21T06:15:49Z</time>
      </trkpt>
      <trkpt lat="47.85314" lon="6.91649">
        <ele>1116</ele>
        <time>2023-05-21T06:16:13Z</time>
      </trkpt>
      <trkpt lat="47.8531" lon="6.91649">
        <ele>1117.2</ele>
        <time>2023-05-21T06:16:18Z</time>
      </trkpt>
      <trkpt lat="47.85298" lon="6.91643">
        <ele>1119.8</ele>
        <time>2023-05-21T06:16:33Z</time>
      </trkpt>
      <trkpt lat="47.85271" lon="6.91629">
        <ele>1124.9</ele>
        <time>2023-05-21T06:17:07Z</time>
      </trkpt>
      <trkpt lat="47.85267" lon="6.91627">
        <ele>1125.6</ele>
        <time>2023-05-21T06:17:13Z</time>
      </trkpt>
      <trkpt lat="47.85236" lon="6.91622">
        <ele>1131.7</ele>
        <time>2023-05-21T06:17:46Z</time>
      </trkpt>
      <trkpt lat="47.85204" lon="6.91622">
        <ele>1137.4</ele>
        <time>2023-05-21T06:18:19Z</time>
      </trkpt>
      <trkpt lat="47.85198" lon="6.91619">
        <ele>1137.8</ele>
        <time>2023-05-21T06:18:27Z</time>
      </trkpt>
      <trkpt lat="47.85172" lon="6.91617">
        <ele>1141.9</ele>
        <time>2023-05-21T06:18:59Z</time>
      </trkpt>
      <trkpt lat="47.85167" lon="6.91616">
        <ele>1142.6</ele>
        <time>2023-05-21T06:19:04Z</time>
      </trkpt>
      <trkpt lat="47.85137" lon="6.91626">
        <ele>1148.4</ele>
        <time>2023-05-21T06:19:33Z</time>
      </trkpt>
      <trkpt lat="47.85131" lon="6.91625">
        <ele>1149.1</ele>
        <time>2023-05-21T06:19:40Z</time>
      </trkpt>
      <trkpt lat="47.85123" lon="6.91627">
        <ele>1150.6</ele>
        <time>2023-05-21T06:19:51Z</time>
      </trkpt>
      <trkpt lat="47.85113" lon="6.91636">
        <ele>1153.3</ele>
        <time>2023-05-21T06:20:06Z</time>
      </trkpt>
      <trkpt lat="47.85097" lon="6.91641">
        <ele>1155.8</ele>
        <time>2023-05-21T06:20:24Z</time>
      </trkpt>
      <trkpt lat="47.85091" lon="6.91642">
        <ele>1156.6</ele>
        <time>2023-05-21T06:20:31Z</time>
      </trkpt>
      <trkpt lat="47.85074" lon="6.91649">
        <ele>1159.3</ele>
        <time>2023-05-21T06:20:51Z</time>
      </trkpt>
      <trkpt lat="47.85043" lon="6.91659">
        <ele>1163</ele>
        <time>2023-05-21T06:21:24Z</time>
      </trkpt>
      <trkpt lat="47.85017" lon="6.91675">
        <ele>1167.5</ele>
        <time>2023-05-21T06:21:52Z</time>
      </trkpt>
      <trkpt lat="47.85012" lon="6.91674">
        <ele>1167.9</ele>
        <time>2023-05-21T06:22:00Z</time>
      </trkpt>
      <trkpt lat="47.85004" lon="6.91679">
        <ele>1169.4</ele>
        <time>2023-05-21T06:22:11Z</time>
      </trkpt>
      <trkpt lat="47.8498" lon="6.91699">
        <ele>1174.9</ele>
        <time>2023-05-21T06:22:44Z</time>
      </trkpt>
      <trkpt lat="47.8496" lon="6.91716">
        <ele>1178.9</ele>
        <time>2023-05-21T06:23:08Z</time>
      </trkpt>
      <trkpt lat="47.8493" lon="6.9173">
        <ele>1183</ele>
        <time>2023-05-21T06:23:37Z</time>
      </trkpt>
      <trkpt lat="47.8492" lon="6.91732">
        <ele>1183.9</ele>
        <time>2023-05-21T06:23:47Z</time>
      </trkpt>
      <trkpt lat="47.84912" lon="6.91737">
        <ele>1184.9</ele>
        <time>2023-05-21T06:23:55Z</time>
      </trkpt>
      <trkpt lat="47.84907" lon="6.91739">
        <ele>1185.5</ele>
        <time>2023-05-21T06:23:59Z</time>
      </trkpt>
      <trkpt lat="47.84879" lon="6.91757">
        <ele>1189</ele>
        <time>2023-05-21T06:24:29Z</time>
      </trkpt>
      <trkpt lat="47.84865" lon="6.91773">
        <ele>1190</ele>
        <time>2023-05-21T06:24:45Z</time>
      </trkpt>
      <trkpt lat="47.84859" lon="6.91785">
        <ele>1189.9</ele>
        <time>2023-05-21T06:25:03Z</time>
      </trkpt>
      <trkpt lat="47.84852" lon="6.91785">
        <ele>1189.5</ele>
        <time>2023-05-21T06:25:14Z</time>
      </trkpt>
      <trkpt lat="47.84847" lon="6.91787">
        <ele>1189</ele>
        <time>2023-05-21T06:25:19Z</time>
      </trkpt>
      <trkpt lat="47.84842" lon="6.91785">
        <ele>1188.9</ele>
        <time>2023-05-21T06:25:23Z</time>
      </trkpt>
      <trkpt lat="47.84834" lon="6.91777">
        <ele>1190.1</ele>
        <time>2023-05-21T06:25:30Z</time>
      </trkpt>
      <trkpt lat="47.84802" lon="6.91764">
        <ele>1191.6</ele>
        <time>2023-05-21T06:25:58Z</time>
      </trkpt>
      <trkpt lat="47.84791" lon="6.91756">
        <ele>1193.3</ele>
        <time>2023-05-21T06:26:10Z</time>
      </trkpt>
      <trkpt lat="47.84789" lon="6.91751">
        <ele>1195.2</ele>
        <time>2023-05-21T06:26:14Z</time>
      </trkpt>
      <trkpt lat="47.84774" lon="6.9173">
        <ele>1197.5</ele>
        <time>2023-05-21T06:26:31Z</time>
      </trkpt>
      <trkpt lat="47.84763" lon="6.91724">
        <ele>1198.3</ele>
        <time>2023-05-21T06:26:40Z</time>
      </trkpt>
      <trkpt lat="47.84759" lon="6.9172">
        <ele>1198.8</ele>
        <time>2023-05-21T06:26:44Z</time>
      </trkpt>
      <trkpt lat="47.84754" lon="6.91719">
        <ele>1199.1</ele>
        <time>2023-05-21T06:26:48Z</time>
      </trkpt>
      <trkpt lat="47.84749" lon="6.9172">
        <ele>1199.2</ele>
        <time>2023-05-21T06:26:51Z</time>
      </trkpt>
      <trkpt lat="47.84736" lon="6.91715">
        <ele>1199.7</ele>
        <time>2023-05-21T06:27:04Z</time>
      </trkpt>
      <trkpt lat="47.8473" lon="6.91716">
        <ele>1199.6</ele>
        <time>2023-05-21T06:27:11Z</time>
      </trkpt>
      <trkpt lat="47.84725" lon="6.91715">
        <ele>1199.8</ele>
        <time>2023-05-21T06:27:17Z</time>
      </trkpt>
      <trkpt lat="47.84719" lon="6.9171">
        <ele>1200.1</ele>
        <time>2023-05-21T06:27:22Z</time>
      </trkpt>
      <trkpt lat="47.84718" lon="6.91705">
        <ele>1200.7</ele>
        <time>2023-05-21T06:27:25Z</time>
      </trkpt>
      <trkpt lat="47.84713" lon="6.91704">
        <ele>1200.6</ele>
        <time>2023-05-21T06:27:29Z</time>
      </trkpt>
      <trkpt lat="47.84708" lon="6.91705">
        <ele>1200.3</ele>
        <time>2023-05-21T06:27:34Z</time>
      </trkpt>
      <trkpt lat="47.84702" lon="6.91702">
        <ele>1200.6</ele>
        <time>2023-05-21T06:27:40Z</time>
      </trkpt>
      <trkpt lat="47.84698" lon="6.91704">
        <ele>1200.1</ele>
        <time>2023-05-21T06:27:44Z</time>
      </trkpt>
      <trkpt lat="47.84668" lon="6.91712">
        <ele>1197.9</ele>
        <time>2023-05-21T06:28:07Z</time>
      </trkpt>
      <trkpt lat="47.84652" lon="6.9171">
        <ele>1195.7</ele>
        <time>2023-05-21T06:28:21Z</time>
      </trkpt>
      <trkpt lat="47.84628" lon="6.91713">
        <ele>1190.8</ele>
        <time>2023-05-21T06:28:40Z</time>
      </trkpt>
      <trkpt lat="47.84598" lon="6.917">
        <ele>1189.5</ele>
        <time>2023-05-21T06:29:10Z</time>
      </trkpt>
      <trkpt lat="47.84578" lon="6.91701">
        <ele>1185.2</ele>
        <time>2023-05-21T06:29:23Z</time>
      </trkpt>
      <trkpt lat="47.84574" lon="6.91699">
        <ele>1185.1</ele>
        <time>2023-05-21T06:29:28Z</time>
      </trkpt>
      <trkpt lat="47.84568" lon="6.917">
        <ele>1183.8</ele>
        <time>2023-05-21T06:29:32Z</time>
      </trkpt>
      <trkpt lat="47.84564" lon="6.91701">
        <ele>1182.8</ele>
        <time>2023-05-21T06:29:36Z</time>
      </trkpt>
      <trkpt lat="47.84555" lon="6.91697">
        <ele>1182.2</ele>
        <time>2023-05-21T06:29:44Z</time>
      </trkpt>
      <trkpt lat="47.84552" lon="6.91693">
        <ele>1182.4</ele>
        <time>2023-05-21T06:29:48Z</time>
      </trkpt>
      <trkpt lat="47.84547" lon="6.91695">
        <ele>1180.7</ele>
        <time>2023-05-21T06:29:51Z</time>
      </trkpt>
      <trkpt lat="47.84543" lon="6.91695">
        <ele>1179.7</ele>
        <time>2023-05-21T06:29:54Z</time>
      </trkpt>
      <trkpt lat="47.84524" lon="6.91692">
        <ele>1175.7</ele>
        <time>2023-05-21T06:30:09Z</time>
      </trkpt>
      <trkpt lat="47.8452" lon="6.91688">
        <ele>1175.6</ele>
        <time>2023-05-21T06:30:12Z</time>
      </trkpt>
      <trkpt lat="47.84514" lon="6.91691">
        <ele>1173.3</ele>
        <time>2023-05-21T06:30:15Z</time>
      </trkpt>
      <trkpt lat="47.8451" lon="6.91688">
        <ele>1173</ele>
        <time>2023-05-21T06:30:19Z</time>
      </trkpt>
      <trkpt lat="47.84504" lon="6.91691">
        <ele>1170.8</ele>
        <time>2023-05-21T06:30:23Z</time>
      </trkpt>
      <trkpt lat="47.845" lon="6.91688">
        <ele>1170.4</ele>
        <time>2023-05-21T06:30:27Z</time>
      </trkpt>
      <trkpt lat="47.84496" lon="6.91685">
        <ele>1169.9</ele>
        <time>2023-05-21T06:30:32Z</time>
      </trkpt>
      <trkpt lat="47.84491" lon="6.91684">
        <ele>1168.8</ele>
        <time>2023-05-21T06:30:37Z</time>
      </trkpt>
      <trkpt lat="47.84471" lon="6.91689">
        <ele>1162.1</ele>
        <time>2023-05-21T06:30:49Z</time>
      </trkpt>
      <trkpt lat="47.84467" lon="6.91691">
        <ele>1160.7</ele>
        <time>2023-05-21T06:30:53Z</time>
      </trkpt>
      <trkpt lat="47.84463" lon="6.91689">
        <ele>1160.3</ele>
        <time>2023-05-21T06:30:57Z</time>
      </trkpt>
      <trkpt lat="47.84458" lon="6.91689">
        <ele>1159.2</ele>
        <time>2023-05-21T06:31:00Z</time>
      </trkpt>
      <trkpt lat="47.84444" lon="6.91696">
        <ele>1154.6</ele>
        <time>2023-05-21T06:31:13Z</time>
      </trkpt>
      <trkpt lat="47.8444" lon="6.91695">
        <ele>1153.6</ele>
        <time>2023-05-21T06:31:18Z</time>
      </trkpt>
      <trkpt lat="47.84433" lon="6.91695">
        <ele>1151.6</ele>
        <time>2023-05-21T06:31:24Z</time>
      </trkpt>
      <trkpt lat="47.84428" lon="6.91692">
        <ele>1150.8</ele>
        <time>2023-05-21T06:31:30Z</time>
      </trkpt>
      <trkpt lat="47.84422" lon="6.91692">
        <ele>1149.1</ele>
        <time>2023-05-21T06:31:36Z</time>
      </trkpt>
      <trkpt lat="47.844" lon="6.91683">
        <ele>1143.9</ele>
        <time>2023-05-21T06:31:59Z</time>
      </trkpt>
      <trkpt lat="47.84395" lon="6.91684">
        <ele>1142.1</ele>
        <time>2023-05-21T06:32:02Z</time>
      </trkpt>
      <trkpt lat="47.84384" lon="6.91677">
        <ele>1139.3</ele>
        <time>2023-05-21T06:32:14Z</time>
      </trkpt>
      <trkpt lat="47.84368" lon="6.91673">
        <ele>1134.5</ele>
        <time>2023-05-21T06:32:27Z</time>
      </trkpt>
      <trkpt lat="47.84364" lon="6.91669">
        <ele>1133.7</ele>
        <time>2023-05-21T06:32:30Z</time>
      </trkpt>
      <trkpt lat="47.8436" lon="6.9167">
        <ele>1132.3</ele>
        <time>2023-05-21T06:32:33Z</time>
      </trkpt>
      <trkpt lat="47.84351" lon="6.91668">
        <ele>1130</ele>
        <time>2023-05-21T06:32:40Z</time>
      </trkpt>
      <trkpt lat="47.84345" lon="6.91669">
        <ele>1128.2</ele>
        <time>2023-05-21T06:32:44Z</time>
      </trkpt>
      <trkpt lat="47.8434" lon="6.91667">
        <ele>1126.9</ele>
        <time>2023-05-21T06:32:48Z</time>
      </trkpt>
      <trkpt lat="47.84334" lon="6.91654">
        <ele>1127</ele>
        <time>2023-05-21T06:32:59Z</time>
      </trkpt>
      <trkpt lat="47.84331" lon="6.91649">
        <ele>1126.8</ele>
        <time>2023-05-21T06:33:03Z</time>
      </trkpt>
      <trkpt lat="47.84319" lon="6.9165">
        <ele>1123</ele>
        <time>2023-05-21T06:33:14Z</time>
      </trkpt>
      <trkpt lat="47.84315" lon="6.91648">
        <ele>1122</ele>
        <time>2023-05-21T06:33:18Z</time>
      </trkpt>
      <trkpt lat="47.84305" lon="6.91635">
        <ele>1120.4</ele>
        <time>2023-05-21T06:33:30Z</time>
      </trkpt>
      <trkpt lat="47.843" lon="6.91633">
        <ele>1119.2</ele>
        <time>2023-05-21T06:33:35Z</time>
      </trkpt>
      <trkpt lat="47.84294" lon="6.91636">
        <ele>1117</ele>
        <time>2023-05-21T06:33:40Z</time>
      </trkpt>
      <trkpt lat="47.84291" lon="6.91638">
        <ele>1115.9</ele>
        <time>2023-05-21T06:33:44Z</time>
      </trkpt>
      <trkpt lat="47.84287" lon="6.91634">
        <ele>1115.2</ele>
        <time>2023-05-21T06:33:48Z</time>
      </trkpt>
      <trkpt lat="47.84288" lon="6.91622">
        <ele>1117</ele>
        <time>2023-05-21T06:34:14Z</time>
      </trkpt>
      <trkpt lat="47.84284" lon="6.91618">
        <ele>1116.2</ele>
        <time>2023-05-21T06:34:18Z</time>
      </trkpt>
      <trkpt lat="47.8428" lon="6.91613">
        <ele>1115.5</ele>
        <time>2023-05-21T06:34:21Z</time>
      </trkpt>
      <trkpt lat="47.84277" lon="6.91608">
        <ele>1115.2</ele>
        <time>2023-05-21T06:34:25Z</time>
      </trkpt>
      <trkpt lat="47.84274" lon="6.91603">
        <ele>1115</ele>
        <time>2023-05-21T06:34:29Z</time>
      </trkpt>
      <trkpt lat="47.84269" lon="6.91591">
        <ele>1115</ele>
        <time>2023-05-21T06:34:38Z</time>
      </trkpt>
      <trkpt lat="47.84266" lon="6.91582">
        <ele>1115.1</ele>
        <time>2023-05-21T06:34:48Z</time>
      </trkpt>
      <trkpt lat="47.8426" lon="6.91562">
        <ele>1114.5</ele>
        <time>2023-05-21T06:35:00Z</time>
      </trkpt>
      <trkpt lat="47.84256" lon="6.91548">
        <ele>1114.3</ele>
        <time>2023-05-21T06:35:09Z</time>
      </trkpt>
      <trkpt lat="47.84253" lon="6.91542">
        <ele>1114</ele>
        <time>2023-05-21T06:35:17Z</time>
      </trkpt>
      <trkpt lat="47.84255" lon="6.91542">
        <ele>1114.3</ele>
        <time>2023-05-21T06:36:30Z</time>
      </trkpt>
      <trkpt lat="47.84258" lon="6.91543">
        <ele>1114.8</ele>
        <time>2023-05-21T07:13:53Z</time>
      </trkpt>
      <trkpt lat="47.84256" lon="6.91542">
        <ele>1114.5</ele>
        <time>2023-05-21T07:13:54Z</time>
      </trkpt>
      <trkpt lat="47.84257" lon="6.91551">
        <ele>1114.4</ele>
        <time>2023-05-21T07:14:24Z</time>
      </trkpt>
      <trkpt lat="47.8426" lon="6.91559">
        <ele>1114.6</ele>
        <time>2023-05-21T07:14:35Z</time>
      </trkpt>
      <trkpt lat="47.84261" lon="6.91566">
        <ele>1114.5</ele>
        <time>2023-05-21T07:14:39Z</time>
      </trkpt>
      <trkpt lat="47.84263" lon="6.91573">
        <ele>1114.7</ele>
        <time>2023-05-21T07:14:42Z</time>
      </trkpt>
      <trkpt lat="47.84268" lon="6.91585">
        <ele>1115.4</ele>
        <time>2023-05-21T07:14:51Z</time>
      </trkpt>
      <trkpt lat="47.84275" lon="6.91595">
        <ele>1116.1</ele>
        <time>2023-05-21T07:14:58Z</time>
      </trkpt>
      <trkpt lat="47.84279" lon="6.91604">
        <ele>1116.2</ele>
        <time>2023-05-21T07:15:05Z</time>
      </trkpt>
      <trkpt lat="47.84285" lon="6.91616">
        <ele>1116.8</ele>
        <time>2023-05-21T07:15:13Z</time>
      </trkpt>
      <trkpt lat="47.8429" lon="6.91622">
        <ele>1117.6</ele>
        <time>2023-05-21T07:15:20Z</time>
      </trkpt>
      <trkpt lat="47.84293" lon="6.91627">
        <ele>1117.9</ele>
        <time>2023-05-21T07:15:28Z</time>
      </trkpt>
      <trkpt lat="47.84321" lon="6.91648">
        <ele>1123.8</ele>
        <time>2023-05-21T07:20:08Z</time>
      </trkpt>
      <trkpt lat="47.84328" lon="6.91648">
        <ele>1126</ele>
        <time>2023-05-21T07:20:20Z</time>
      </trkpt>
      <trkpt lat="47.84337" lon="6.91652">
        <ele>1128.2</ele>
        <time>2023-05-21T07:20:30Z</time>
      </trkpt>
      <trkpt lat="47.8434" lon="6.91658">
        <ele>1128.2</ele>
        <time>2023-05-21T07:20:34Z</time>
      </trkpt>
      <trkpt lat="47.84348" lon="6.91668">
        <ele>1129.1</ele>
        <time>2023-05-21T07:20:43Z</time>
      </trkpt>
      <trkpt lat="47.84349" lon="6.91674">
        <ele>1128.8</ele>
        <time>2023-05-21T07:20:48Z</time>
      </trkpt>
      <trkpt lat="47.84352" lon="6.91681">
        <ele>1129</ele>
        <time>2023-05-21T07:20:52Z</time>
      </trkpt>
      <trkpt lat="47.84356" lon="6.91686">
        <ele>1129.6</ele>
        <time>2023-05-21T07:21:08Z</time>
      </trkpt>
      <trkpt lat="47.84361" lon="6.9169">
        <ele>1130.5</ele>
        <time>2023-05-21T07:21:25Z</time>
      </trkpt>
      <trkpt lat="47.8437" lon="6.91719">
        <ele>1130.8</ele>
        <time>2023-05-21T07:21:45Z</time>
      </trkpt>
      <trkpt lat="47.84376" lon="6.91722">
        <ele>1132.3</ele>
        <time>2023-05-21T07:21:50Z</time>
      </trkpt>
      <trkpt lat="47.84383" lon="6.91735">
        <ele>1132.6</ele>
        <time>2023-05-21T07:21:58Z</time>
      </trkpt>
      <trkpt lat="47.84387" lon="6.91739">
        <ele>1133.1</ele>
        <time>2023-05-21T07:22:03Z</time>
      </trkpt>
      <trkpt lat="47.84394" lon="6.9175">
        <ele>1133.3</ele>
        <time>2023-05-21T07:22:10Z</time>
      </trkpt>
      <trkpt lat="47.8442" lon="6.91786">
        <ele>1134.9</ele>
        <time>2023-05-21T07:22:36Z</time>
      </trkpt>
      <trkpt lat="47.84425" lon="6.91797">
        <ele>1134.9</ele>
        <time>2023-05-21T07:22:42Z</time>
      </trkpt>
      <trkpt lat="47.84434" lon="6.91806">
        <ele>1136.3</ele>
        <time>2023-05-21T07:22:51Z</time>
      </trkpt>
      <trkpt lat="47.84437" lon="6.91814">
        <ele>1136.6</ele>
        <time>2023-05-21T07:22:59Z</time>
      </trkpt>
      <trkpt lat="47.84444" lon="6.91825">
        <ele>1137.5</ele>
        <time>2023-05-21T07:23:07Z</time>
      </trkpt>
      <trkpt lat="47.84447" lon="6.91839">
        <ele>1137.2</ele>
        <time>2023-05-21T07:23:16Z</time>
      </trkpt>
      <trkpt lat="47.84451" lon="6.91842">
        <ele>1138</ele>
        <time>2023-05-21T07:23:19Z</time>
      </trkpt>
      <trkpt lat="47.84454" lon="6.91848">
        <ele>1138.2</ele>
        <time>2023-05-21T07:23:23Z</time>
      </trkpt>
      <trkpt lat="47.84452" lon="6.91855">
        <ele>1137.1</ele>
        <time>2023-05-21T07:23:27Z</time>
      </trkpt>
      <trkpt lat="47.84451" lon="6.91862">
        <ele>1136.3</ele>
        <time>2023-05-21T07:23:31Z</time>
      </trkpt>
      <trkpt lat="47.84454" lon="6.91875">
        <ele>1135.5</ele>
        <time>2023-05-21T07:23:38Z</time>
      </trkpt>
      <trkpt lat="47.84457" lon="6.91882">
        <ele>1134.9</ele>
        <time>2023-05-21T07:23:43Z</time>
      </trkpt>
      <trkpt lat="47.84456" lon="6.91888">
        <ele>1134.1</ele>
        <time>2023-05-21T07:23:47Z</time>
      </trkpt>
      <trkpt lat="47.84457" lon="6.91895">
        <ele>1131.9</ele>
        <time>2023-05-21T07:23:51Z</time>
      </trkpt>
      <trkpt lat="47.84469" lon="6.91896">
        <ele>1130.7</ele>
        <time>2023-05-21T07:24:06Z</time>
      </trkpt>
      <trkpt lat="47.84473" lon="6.9189">
        <ele>1133</ele>
        <time>2023-05-21T07:24:10Z</time>
      </trkpt>
      <trkpt lat="47.84476" lon="6.91885">
        <ele>1133</ele>
        <time>2023-05-21T07:24:13Z</time>
      </trkpt>
      <trkpt lat="47.84481" lon="6.91881">
        <ele>1131.6</ele>
        <time>2023-05-21T07:24:18Z</time>
      </trkpt>
      <trkpt lat="47.8449" lon="6.9187">
        <ele>1132</ele>
        <time>2023-05-21T07:24:31Z</time>
      </trkpt>
      <trkpt lat="47.84495" lon="6.91867">
        <ele>1131.6</ele>
        <time>2023-05-21T07:24:34Z</time>
      </trkpt>
      <trkpt lat="47.84499" lon="6.91865">
        <ele>1131.2</ele>
        <time>2023-05-21T07:24:37Z</time>
      </trkpt>
      <trkpt lat="47.84509" lon="6.9186">
        <ele>1127.3</ele>
        <time>2023-05-21T07:24:47Z</time>
      </trkpt>
      <trkpt lat="47.84514" lon="6.9185">
        <ele>1128</ele>
        <time>2023-05-21T07:24:55Z</time>
      </trkpt>
      <trkpt lat="47.84523" lon="6.91841">
        <ele>1126.3</ele>
        <time>2023-05-21T07:25:00Z</time>
      </trkpt>
      <trkpt lat="47.84526" lon="6.91834">
        <ele>1127.7</ele>
        <time>2023-05-21T07:25:04Z</time>
      </trkpt>
      <trkpt lat="47.84541" lon="6.91826">
        <ele>1126.1</ele>
        <time>2023-05-21T07:25:13Z</time>
      </trkpt>
      <trkpt lat="47.84545" lon="6.91824">
        <ele>1125.6</ele>
        <time>2023-05-21T07:25:18Z</time>
      </trkpt>
      <trkpt lat="47.8455" lon="6.91821">
        <ele>1125.3</ele>
        <time>2023-05-21T07:25:21Z</time>
      </trkpt>
      <trkpt lat="47.84556" lon="6.91823">
        <ele>1122.2</ele>
        <time>2023-05-21T07:25:25Z</time>
      </trkpt>
      <trkpt lat="47.84561" lon="6.91821">
        <ele>1122.7</ele>
        <time>2023-05-21T07:25:30Z</time>
      </trkpt>
      <trkpt lat="47.84573" lon="6.91815">
        <ele>1124.8</ele>
        <time>2023-05-21T07:25:41Z</time>
      </trkpt>
      <trkpt lat="47.84578" lon="6.91813">
        <ele>1125.4</ele>
        <time>2023-05-21T07:25:44Z</time>
      </trkpt>
      <trkpt lat="47.84595" lon="6.91814">
        <ele>1126.4</ele>
        <time>2023-05-21T07:25:52Z</time>
      </trkpt>
      <trkpt lat="47.84601" lon="6.91813">
        <ele>1127.9</ele>
        <time>2023-05-21T07:26:00Z</time>
      </trkpt>
      <trkpt lat="47.84604" lon="6.91817">
        <ele>1126.4</ele>
        <time>2023-05-21T07:26:03Z</time>
      </trkpt>
      <trkpt lat="47.84611" lon="6.91817">
        <ele>1127.6</ele>
        <time>2023-05-21T07:26:09Z</time>
      </trkpt>
      <trkpt lat="47.84619" lon="6.91821">
        <ele>1129.2</ele>
        <time>2023-05-21T07:26:15Z</time>
      </trkpt>
      <trkpt lat="47.8463" lon="6.91828">
        <ele>1130.7</ele>
        <time>2023-05-21T07:26:21Z</time>
      </trkpt>
      <trkpt lat="47.84633" lon="6.91841">
        <ele>1125.8</ele>
        <time>2023-05-21T07:26:28Z</time>
      </trkpt>
      <trkpt lat="47.84646" lon="6.91836">
        <ele>1132.7</ele>
        <time>2023-05-21T07:26:43Z</time>
      </trkpt>
      <trkpt lat="47.84656" lon="6.91841">
        <ele>1132.7</ele>
        <time>2023-05-21T07:26:48Z</time>
      </trkpt>
      <trkpt lat="47.84657" lon="6.91848">
        <ele>1129.1</ele>
        <time>2023-05-21T07:26:51Z</time>
      </trkpt>
      <trkpt lat="47.84657" lon="6.91854">
        <ele>1125.8</ele>
        <time>2023-05-21T07:26:55Z</time>
      </trkpt>
      <trkpt lat="47.84663" lon="6.91856">
        <ele>1126.1</ele>
        <time>2023-05-21T07:27:03Z</time>
      </trkpt>
      <trkpt lat="47.84668" lon="6.91856">
        <ele>1127</ele>
        <time>2023-05-21T07:27:12Z</time>
      </trkpt>
      <trkpt lat="47.84673" lon="6.91853">
        <ele>1128.8</ele>
        <time>2023-05-21T07:27:18Z</time>
      </trkpt>
      <trkpt lat="47.84678" lon="6.91853">
        <ele>1128.8</ele>
        <time>2023-05-21T07:27:21Z</time>
      </trkpt>
      <trkpt lat="47.84682" lon="6.91849">
        <ele>1131</ele>
        <time>2023-05-21T07:27:25Z</time>
      </trkpt>
      <trkpt lat="47.84692" lon="6.9185">
        <ele>1130.6</ele>
        <time>2023-05-21T07:27:30Z</time>
      </trkpt>
      <trkpt lat="47.84703" lon="6.91857">
        <ele>1128.9</ele>
        <time>2023-05-21T07:27:39Z</time>
      </trkpt>
      <trkpt lat="47.8471" lon="6.91859">
        <ele>1129.4</ele>
        <time>2023-05-21T07:27:47Z</time>
      </trkpt>
      <trkpt lat="47.84711" lon="6.91867">
        <ele>1127.2</ele>
        <time>2023-05-21T07:27:49Z</time>
      </trkpt>
      <trkpt lat="47.84711" lon="6.91881">
        <ele>1124</ele>
        <time>2023-05-21T07:27:54Z</time>
      </trkpt>
      <trkpt lat="47.84709" lon="6.91895">
        <ele>1120.6</ele>
        <time>2023-05-21T07:27:59Z</time>
      </trkpt>
      <trkpt lat="47.8471" lon="6.91902">
        <ele>1119.6</ele>
        <time>2023-05-21T07:28:03Z</time>
      </trkpt>
      <trkpt lat="47.84713" lon="6.91906">
        <ele>1119.6</ele>
        <time>2023-05-21T07:28:06Z</time>
      </trkpt>
      <trkpt lat="47.84721" lon="6.91906">
        <ele>1121.6</ele>
        <time>2023-05-21T07:28:15Z</time>
      </trkpt>
      <trkpt lat="47.84729" lon="6.91916">
        <ele>1120.4</ele>
        <time>2023-05-21T07:28:28Z</time>
      </trkpt>
      <trkpt lat="47.84735" lon="6.91918">
        <ele>1119.9</ele>
        <time>2023-05-21T07:28:31Z</time>
      </trkpt>
      <trkpt lat="47.84739" lon="6.91923">
        <ele>1117.9</ele>
        <time>2023-05-21T07:28:35Z</time>
      </trkpt>
      <trkpt lat="47.84741" lon="6.91913">
        <ele>1121.6</ele>
        <time>2023-05-21T07:28:42Z</time>
      </trkpt>
      <trkpt lat="47.84746" lon="6.91912">
        <ele>1122.1</ele>
        <time>2023-05-21T07:28:47Z</time>
      </trkpt>
      <trkpt lat="47.84751" lon="6.91913">
        <ele>1122.4</ele>
        <time>2023-05-21T07:28:51Z</time>
      </trkpt>
      <trkpt lat="47.84757" lon="6.91917">
        <ele>1123.2</ele>
        <time>2023-05-21T07:28:54Z</time>
      </trkpt>
      <trkpt lat="47.84763" lon="6.91928">
        <ele>1122.6</ele>
        <time>2023-05-21T07:29:01Z</time>
      </trkpt>
      <trkpt lat="47.84761" lon="6.91958">
        <ele>1114.4</ele>
        <time>2023-05-21T07:29:17Z</time>
      </trkpt>
      <trkpt lat="47.84764" lon="6.91963">
        <ele>1114.9</ele>
        <time>2023-05-21T07:29:20Z</time>
      </trkpt>
      <trkpt lat="47.84769" lon="6.91965">
        <ele>1117</ele>
        <time>2023-05-21T07:29:25Z</time>
      </trkpt>
      <trkpt lat="47.84771" lon="6.91972">
        <ele>1115.9</ele>
        <time>2023-05-21T07:29:29Z</time>
      </trkpt>
      <trkpt lat="47.84778" lon="6.91983">
        <ele>1116.3</ele>
        <time>2023-05-21T07:29:39Z</time>
      </trkpt>
      <trkpt lat="47.84781" lon="6.91988">
        <ele>1115.4</ele>
        <time>2023-05-21T07:29:42Z</time>
      </trkpt>
      <trkpt lat="47.8478" lon="6.91995">
        <ele>1113.4</ele>
        <time>2023-05-21T07:29:45Z</time>
      </trkpt>
      <trkpt lat="47.84779" lon="6.92002">
        <ele>1110.7</ele>
        <time>2023-05-21T07:29:48Z</time>
      </trkpt>
      <trkpt lat="47.84778" lon="6.92001">
        <ele>1111.4</ele>
        <time>2023-05-21T07:30:11Z</time>
      </trkpt>
      <trkpt lat="47.8478" lon="6.91993">
        <ele>1114</ele>
        <time>2023-05-21T07:30:57Z</time>
      </trkpt>
      <trkpt lat="47.8478" lon="6.91986">
        <ele>1115.8</ele>
        <time>2023-05-21T07:31:40Z</time>
      </trkpt>
      <trkpt lat="47.84786" lon="6.91984">
        <ele>1117.4</ele>
        <time>2023-05-21T07:31:44Z</time>
      </trkpt>
      <trkpt lat="47.84803" lon="6.91988">
        <ele>1118.3</ele>
        <time>2023-05-21T07:31:58Z</time>
      </trkpt>
      <trkpt lat="47.8481" lon="6.91995">
        <ele>1116.3</ele>
        <time>2023-05-21T07:32:10Z</time>
      </trkpt>
      <trkpt lat="47.84817" lon="6.92005">
        <ele>1111.7</ele>
        <time>2023-05-21T07:32:17Z</time>
      </trkpt>
      <trkpt lat="47.84822" lon="6.92004">
        <ele>1113.5</ele>
        <time>2023-05-21T07:32:21Z</time>
      </trkpt>
      <trkpt lat="47.84828" lon="6.92006">
        <ele>1113.8</ele>
        <time>2023-05-21T07:32:24Z</time>
      </trkpt>
      <trkpt lat="47.84832" lon="6.92018">
        <ele>1109</ele>
        <time>2023-05-21T07:32:29Z</time>
      </trkpt>
      <trkpt lat="47.84832" lon="6.92027">
        <ele>1104.7</ele>
        <time>2023-05-21T07:32:33Z</time>
      </trkpt>
      <trkpt lat="47.84834" lon="6.92033">
        <ele>1103.3</ele>
        <time>2023-05-21T07:32:37Z</time>
      </trkpt>
      <trkpt lat="47.84839" lon="6.92038">
        <ele>1104.5</ele>
        <time>2023-05-21T07:32:43Z</time>
      </trkpt>
      <trkpt lat="47.84843" lon="6.92041">
        <ele>1105.6</ele>
        <time>2023-05-21T07:32:51Z</time>
      </trkpt>
      <trkpt lat="47.84848" lon="6.92048">
        <ele>1104.6</ele>
        <time>2023-05-21T07:33:02Z</time>
      </trkpt>
      <trkpt lat="47.84854" lon="6.9205">
        <ele>1106.6</ele>
        <time>2023-05-21T07:33:07Z</time>
      </trkpt>
      <trkpt lat="47.84859" lon="6.92056">
        <ele>1104.8</ele>
        <time>2023-05-21T07:33:13Z</time>
      </trkpt>
      <trkpt lat="47.84864" lon="6.92057">
        <ele>1107.1</ele>
        <time>2023-05-21T07:33:16Z</time>
      </trkpt>
      <trkpt lat="47.84868" lon="6.92067">
        <ele>1104.3</ele>
        <time>2023-05-21T07:33:23Z</time>
      </trkpt>
      <trkpt lat="47.84873" lon="6.9207">
        <ele>1105.9</ele>
        <time>2023-05-21T07:33:28Z</time>
      </trkpt>
      <trkpt lat="47.84874" lon="6.92076">
        <ele>1103.3</ele>
        <time>2023-05-21T07:33:32Z</time>
      </trkpt>
      <trkpt lat="47.8488" lon="6.92082">
        <ele>1104</ele>
        <time>2023-05-21T07:33:38Z</time>
      </trkpt>
      <trkpt lat="47.84883" lon="6.92086">
        <ele>1104.4</ele>
        <time>2023-05-21T07:33:43Z</time>
      </trkpt>
      <trkpt lat="47.84882" lon="6.92094">
        <ele>1101.2</ele>
        <time>2023-05-21T07:33:46Z</time>
      </trkpt>
      <trkpt lat="47.84886" lon="6.92105">
        <ele>1100.6</ele>
        <time>2023-05-21T07:33:56Z</time>
      </trkpt>
      <trkpt lat="47.84887" lon="6.92111">
        <ele>1099.6</ele>
        <time>2023-05-21T07:33:59Z</time>
      </trkpt>
      <trkpt lat="47.84887" lon="6.92119">
        <ele>1098.5</ele>
        <time>2023-05-21T07:34:01Z</time>
      </trkpt>
      <trkpt lat="47.8489" lon="6.92133">
        <ele>1098.6</ele>
        <time>2023-05-21T07:34:09Z</time>
      </trkpt>
      <trkpt lat="47.849" lon="6.92158">
        <ele>1100.6</ele>
        <time>2023-05-21T07:34:25Z</time>
      </trkpt>
      <trkpt lat="47.849" lon="6.92172">
        <ele>1098.5</ele>
        <time>2023-05-21T07:34:32Z</time>
      </trkpt>
      <trkpt lat="47.84898" lon="6.92187">
        <ele>1096.2</ele>
        <time>2023-05-21T07:34:39Z</time>
      </trkpt>
      <trkpt lat="47.84899" lon="6.92195">
        <ele>1096.5</ele>
        <time>2023-05-21T07:34:44Z</time>
      </trkpt>
      <trkpt lat="47.84902" lon="6.92208">
        <ele>1096</ele>
        <time>2023-05-21T07:34:52Z</time>
      </trkpt>
      <trkpt lat="47.84903" lon="6.92214">
        <ele>1095.5</ele>
        <time>2023-05-21T07:34:56Z</time>
      </trkpt>
      <trkpt lat="47.84904" lon="6.9222">
        <ele>1095</ele>
        <time>2023-05-21T07:35:00Z</time>
      </trkpt>
      <trkpt lat="47.84902" lon="6.92226">
        <ele>1092.7</ele>
        <time>2023-05-21T07:35:04Z</time>
      </trkpt>
      <trkpt lat="47.84902" lon="6.92251">
        <ele>1092</ele>
        <time>2023-05-21T07:35:19Z</time>
      </trkpt>
      <trkpt lat="47.84897" lon="6.92252">
        <ele>1087.5</ele>
        <time>2023-05-21T07:35:45Z</time>
      </trkpt>
      <trkpt lat="47.84896" lon="6.92261">
        <ele>1087.2</ele>
        <time>2023-05-21T07:36:16Z</time>
      </trkpt>
      <trkpt lat="47.84895" lon="6.92269">
        <ele>1086.5</ele>
        <time>2023-05-21T07:36:21Z</time>
      </trkpt>
      <trkpt lat="47.84898" lon="6.92275">
        <ele>1091.1</ele>
        <time>2023-05-21T07:36:30Z</time>
      </trkpt>
      <trkpt lat="47.84896" lon="6.92282">
        <ele>1088.1</ele>
        <time>2023-05-21T07:36:35Z</time>
      </trkpt>
      <trkpt lat="47.84894" lon="6.92292">
        <ele>1085</ele>
        <time>2023-05-21T07:36:44Z</time>
      </trkpt>
      <trkpt lat="47.84895" lon="6.92299">
        <ele>1085.7</ele>
        <time>2023-05-21T07:36:48Z</time>
      </trkpt>
      <trkpt lat="47.84893" lon="6.92306">
        <ele>1083.5</ele>
        <time>2023-05-21T07:36:53Z</time>
      </trkpt>
      <trkpt lat="47.84897" lon="6.92312">
        <ele>1086.1</ele>
        <time>2023-05-21T07:37:01Z</time>
      </trkpt>
      <trkpt lat="47.84899" lon="6.92332">
        <ele>1085.3</ele>
        <time>2023-05-21T07:37:11Z</time>
      </trkpt>
      <trkpt lat="47.84894" lon="6.92344">
        <ele>1081.1</ele>
        <time>2023-05-21T07:37:19Z</time>
      </trkpt>
      <trkpt lat="47.84895" lon="6.92355">
        <ele>1082.4</ele>
        <time>2023-05-21T07:37:25Z</time>
      </trkpt>
      <trkpt lat="47.8489" lon="6.92377">
        <ele>1081.7</ele>
        <time>2023-05-21T07:37:37Z</time>
      </trkpt>
      <trkpt lat="47.84886" lon="6.92382">
        <ele>1079.4</ele>
        <time>2023-05-21T07:37:41Z</time>
      </trkpt>
      <trkpt lat="47.84879" lon="6.92394">
        <ele>1076.3</ele>
        <time>2023-05-21T07:37:48Z</time>
      </trkpt>
      <trkpt lat="47.84877" lon="6.92409">
        <ele>1078</ele>
        <time>2023-05-21T07:37:56Z</time>
      </trkpt>
      <trkpt lat="47.84871" lon="6.92421">
        <ele>1074.5</ele>
        <time>2023-05-21T07:38:04Z</time>
      </trkpt>
      <trkpt lat="47.8487" lon="6.92428">
        <ele>1073.7</ele>
        <time>2023-05-21T07:38:08Z</time>
      </trkpt>
      <trkpt lat="47.84868" lon="6.92435">
        <ele>1072.5</ele>
        <time>2023-05-21T07:38:12Z</time>
      </trkpt>
      <trkpt lat="47.84867" lon="6.92442">
        <ele>1072.1</ele>
        <time>2023-05-21T07:38:15Z</time>
      </trkpt>
      <trkpt lat="47.84867" lon="6.92449">
        <ele>1071.9</ele>
        <time>2023-05-21T07:38:19Z</time>
      </trkpt>
      <trkpt lat="47.8487" lon="6.92461">
        <ele>1072.1</ele>
        <time>2023-05-21T07:38:25Z</time>
      </trkpt>
      <trkpt lat="47.84869" lon="6.92469">
        <ele>1071.1</ele>
        <time>2023-05-21T07:38:29Z</time>
      </trkpt>
      <trkpt lat="47.84871" lon="6.92476">
        <ele>1071.2</ele>
        <time>2023-05-21T07:38:47Z</time>
      </trkpt>
      <trkpt lat="47.8487" lon="6.92484">
        <ele>1071.5</ele>
        <time>2023-05-21T07:38:52Z</time>
      </trkpt>
      <trkpt lat="47.8487" lon="6.92495">
        <ele>1071.9</ele>
        <time>2023-05-21T07:39:02Z</time>
      </trkpt>
      <trkpt lat="47.84871" lon="6.92504">
        <ele>1072.5</ele>
        <time>2023-05-21T07:39:13Z</time>
      </trkpt>
      <trkpt lat="47.84873" lon="6.92513">
        <ele>1073.2</ele>
        <time>2023-05-21T07:39:22Z</time>
      </trkpt>
      <trkpt lat="47.84863" lon="6.92517">
        <ele>1077.9</ele>
        <time>2023-05-21T07:39:29Z</time>
      </trkpt>
      <trkpt lat="47.84848" lon="6.92512">
        <ele>1080.5</ele>
        <time>2023-05-21T07:39:44Z</time>
      </trkpt>
      <trkpt lat="47.84844" lon="6.92516">
        <ele>1082.7</ele>
        <time>2023-05-21T07:39:51Z</time>
      </trkpt>
      <trkpt lat="47.84837" lon="6.92516">
        <ele>1084.4</ele>
        <time>2023-05-21T07:40:04Z</time>
      </trkpt>
      <trkpt lat="47.84825" lon="6.92524">
        <ele>1087.5</ele>
        <time>2023-05-21T07:40:20Z</time>
      </trkpt>
      <trkpt lat="47.84831" lon="6.92529">
        <ele>1090.1</ele>
        <time>2023-05-21T07:40:30Z</time>
      </trkpt>
      <trkpt lat="47.84836" lon="6.92533">
        <ele>1090.8</ele>
        <time>2023-05-21T07:40:38Z</time>
      </trkpt>
      <trkpt lat="47.84841" lon="6.92534">
        <ele>1089.5</ele>
        <time>2023-05-21T07:40:47Z</time>
      </trkpt>
      <trkpt lat="47.84845" lon="6.92539">
        <ele>1089.9</ele>
        <time>2023-05-21T07:40:51Z</time>
      </trkpt>
      <trkpt lat="47.84851" lon="6.92543">
        <ele>1089.2</ele>
        <time>2023-05-21T07:40:58Z</time>
      </trkpt>
      <trkpt lat="47.84862" lon="6.92567">
        <ele>1092.3</ele>
        <time>2023-05-21T07:41:19Z</time>
      </trkpt>
      <trkpt lat="47.84863" lon="6.92582">
        <ele>1095.4</ele>
        <time>2023-05-21T07:41:26Z</time>
      </trkpt>
      <trkpt lat="47.84862" lon="6.9259">
        <ele>1096.4</ele>
        <time>2023-05-21T07:41:33Z</time>
      </trkpt>
      <trkpt lat="47.84862" lon="6.92597">
        <ele>1096.4</ele>
        <time>2023-05-21T07:41:37Z</time>
      </trkpt>
      <trkpt lat="47.84858" lon="6.92613">
        <ele>1098.2</ele>
        <time>2023-05-21T07:41:44Z</time>
      </trkpt>
      <trkpt lat="47.84859" lon="6.92633">
        <ele>1097.7</ele>
        <time>2023-05-21T07:41:56Z</time>
      </trkpt>
      <trkpt lat="47.84855" lon="6.92652">
        <ele>1099.3</ele>
        <time>2023-05-21T07:42:08Z</time>
      </trkpt>
      <trkpt lat="47.84856" lon="6.92659">
        <ele>1099.4</ele>
        <time>2023-05-21T07:42:12Z</time>
      </trkpt>
      <trkpt lat="47.84853" lon="6.92665">
        <ele>1100.1</ele>
        <time>2023-05-21T07:42:16Z</time>
      </trkpt>
      <trkpt lat="47.84853" lon="6.92677">
        <ele>1101.1</ele>
        <time>2023-05-21T07:42:23Z</time>
      </trkpt>
      <trkpt lat="47.8485" lon="6.92684">
        <ele>1102</ele>
        <time>2023-05-21T07:42:27Z</time>
      </trkpt>
      <trkpt lat="47.84851" lon="6.9269">
        <ele>1102.4</ele>
        <time>2023-05-21T07:42:32Z</time>
      </trkpt>
      <trkpt lat="47.84852" lon="6.92698">
        <ele>1102.9</ele>
        <time>2023-05-21T07:42:37Z</time>
      </trkpt>
      <trkpt lat="47.84853" lon="6.92705">
        <ele>1103.3</ele>
        <time>2023-05-21T07:42:41Z</time>
      </trkpt>
      <trkpt lat="47.84852" lon="6.92713">
        <ele>1104</ele>
        <time>2023-05-21T07:42:47Z</time>
      </trkpt>
      <trkpt lat="47.84857" lon="6.92746">
        <ele>1107.5</ele>
        <time>2023-05-21T07:43:11Z</time>
      </trkpt>
      <trkpt lat="47.84857" lon="6.92755">
        <ele>1108.5</ele>
        <time>2023-05-21T07:43:15Z</time>
      </trkpt>
      <trkpt lat="47.84859" lon="6.92761">
        <ele>1109.2</ele>
        <time>2023-05-21T07:43:20Z</time>
      </trkpt>
      <trkpt lat="47.84859" lon="6.92769">
        <ele>1110.1</ele>
        <time>2023-05-21T07:43:25Z</time>
      </trkpt>
      <trkpt lat="47.84861" lon="6.92785">
        <ele>1112</ele>
        <time>2023-05-21T07:43:35Z</time>
      </trkpt>
      <trkpt lat="47.84861" lon="6.92793">
        <ele>1113.2</ele>
        <time>2023-05-21T07:43:39Z</time>
      </trkpt>
      <trkpt lat="47.84864" lon="6.92815">
        <ele>1115.7</ele>
        <time>2023-05-21T07:43:54Z</time>
      </trkpt>
      <trkpt lat="47.84863" lon="6.92824">
        <ele>1117.2</ele>
        <time>2023-05-21T07:44:01Z</time>
      </trkpt>
      <trkpt lat="47.84863" lon="6.92831">
        <ele>1118.3</ele>
        <time>2023-05-21T07:44:05Z</time>
      </trkpt>
      <trkpt lat="47.84866" lon="6.92838">
        <ele>1118.5</ele>
        <time>2023-05-21T07:44:11Z</time>
      </trkpt>
      <trkpt lat="47.84865" lon="6.92859">
        <ele>1121.1</ele>
        <time>2023-05-21T07:44:23Z</time>
      </trkpt>
      <trkpt lat="47.84863" lon="6.92866">
        <ele>1122</ele>
        <time>2023-05-21T07:44:27Z</time>
      </trkpt>
      <trkpt lat="47.84861" lon="6.92882">
        <ele>1123.5</ele>
        <time>2023-05-21T07:44:35Z</time>
      </trkpt>
      <trkpt lat="47.84858" lon="6.92887">
        <ele>1124</ele>
        <time>2023-05-21T07:44:38Z</time>
      </trkpt>
      <trkpt lat="47.84854" lon="6.92913">
        <ele>1127.3</ele>
        <time>2023-05-21T07:44:54Z</time>
      </trkpt>
      <trkpt lat="47.84851" lon="6.92921">
        <ele>1128.8</ele>
        <time>2023-05-21T07:45:01Z</time>
      </trkpt>
      <trkpt lat="47.8485" lon="6.92934">
        <ele>1130.9</ele>
        <time>2023-05-21T07:45:10Z</time>
      </trkpt>
      <trkpt lat="47.84848" lon="6.92942">
        <ele>1132.5</ele>
        <time>2023-05-21T07:45:18Z</time>
      </trkpt>
      <trkpt lat="47.84845" lon="6.92935">
        <ele>1131.8</ele>
        <time>2023-05-21T07:45:32Z</time>
      </trkpt>
      <trkpt lat="47.84841" lon="6.92976">
        <ele>1139.3</ele>
        <time>2023-05-21T07:49:06Z</time>
      </trkpt>
      <trkpt lat="47.84841" lon="6.92988">
        <ele>1141.3</ele>
        <time>2023-05-21T07:49:17Z</time>
      </trkpt>
      <trkpt lat="47.84833" lon="6.93025">
        <ele>1147.7</ele>
        <time>2023-05-21T07:49:49Z</time>
      </trkpt>
      <trkpt lat="47.84833" lon="6.93063">
        <ele>1152</ele>
        <time>2023-05-21T07:50:17Z</time>
      </trkpt>
      <trkpt lat="47.84836" lon="6.93077">
        <ele>1153.5</ele>
        <time>2023-05-21T07:50:26Z</time>
      </trkpt>
      <trkpt lat="47.8484" lon="6.93084">
        <ele>1153.7</ele>
        <time>2023-05-21T07:50:34Z</time>
      </trkpt>
      <trkpt lat="47.84845" lon="6.93092">
        <ele>1154.6</ele>
        <time>2023-05-21T07:50:44Z</time>
      </trkpt>
      <trkpt lat="47.84848" lon="6.93098">
        <ele>1155.6</ele>
        <time>2023-05-21T07:50:48Z</time>
      </trkpt>
      <trkpt lat="47.84868" lon="6.93135">
        <ele>1160.7</ele>
        <time>2023-05-21T07:51:23Z</time>
      </trkpt>
      <trkpt lat="47.84872" lon="6.93151">
        <ele>1163.7</ele>
        <time>2023-05-21T07:51:33Z</time>
      </trkpt>
      <trkpt lat="47.84878" lon="6.9317">
        <ele>1166.4</ele>
        <time>2023-05-21T07:51:50Z</time>
      </trkpt>
      <trkpt lat="47.84881" lon="6.93175">
        <ele>1166.2</ele>
        <time>2023-05-21T07:51:54Z</time>
      </trkpt>
      <trkpt lat="47.84888" lon="6.93192">
        <ele>1166.9</ele>
        <time>2023-05-21T07:52:06Z</time>
      </trkpt>
      <trkpt lat="47.84891" lon="6.93227">
        <ele>1173.5</ele>
        <time>2023-05-21T07:52:27Z</time>
      </trkpt>
      <trkpt lat="47.84895" lon="6.93232">
        <ele>1172</ele>
        <time>2023-05-21T07:52:32Z</time>
      </trkpt>
      <trkpt lat="47.84899" lon="6.93246">
        <ele>1172.4</ele>
        <time>2023-05-21T07:52:40Z</time>
      </trkpt>
      <trkpt lat="47.84902" lon="6.93277">
        <ele>1175.8</ele>
        <time>2023-05-21T07:52:58Z</time>
      </trkpt>
      <trkpt lat="47.84906" lon="6.93291">
        <ele>1175.8</ele>
        <time>2023-05-21T07:53:06Z</time>
      </trkpt>
      <trkpt lat="47.84906" lon="6.93298">
        <ele>1177.1</ele>
        <time>2023-05-21T07:53:10Z</time>
      </trkpt>
      <trkpt lat="47.84911" lon="6.93309">
        <ele>1176.4</ele>
        <time>2023-05-21T07:53:17Z</time>
      </trkpt>
      <trkpt lat="47.84912" lon="6.93317">
        <ele>1177.1</ele>
        <time>2023-05-21T07:53:21Z</time>
      </trkpt>
      <trkpt lat="47.84914" lon="6.93322">
        <ele>1176.8</ele>
        <time>2023-05-21T07:53:24Z</time>
      </trkpt>
      <trkpt lat="47.84914" lon="6.93335">
        <ele>1178.8</ele>
        <time>2023-05-21T07:53:32Z</time>
      </trkpt>
      <trkpt lat="47.84917" lon="6.9334">
        <ele>1178</ele>
        <time>2023-05-21T07:53:36Z</time>
      </trkpt>
      <trkpt lat="47.84917" lon="6.93353">
        <ele>1180.3</ele>
        <time>2023-05-21T07:53:44Z</time>
      </trkpt>
      <trkpt lat="47.84922" lon="6.93366">
        <ele>1179.5</ele>
        <time>2023-05-21T07:53:53Z</time>
      </trkpt>
      <trkpt lat="47.84923" lon="6.93373">
        <ele>1179.8</ele>
        <time>2023-05-21T07:53:57Z</time>
      </trkpt>
      <trkpt lat="47.84922" lon="6.93381">
        <ele>1181.4</ele>
        <time>2023-05-21T07:54:01Z</time>
      </trkpt>
      <trkpt lat="47.84922" lon="6.9339">
        <ele>1182.3</ele>
        <time>2023-05-21T07:54:07Z</time>
      </trkpt>
      <trkpt lat="47.84923" lon="6.93398">
        <ele>1181.9</ele>
        <time>2023-05-21T07:54:10Z</time>
      </trkpt>
      <trkpt lat="47.84935" lon="6.93448">
        <ele>1178.4</ele>
        <time>2023-05-21T07:54:41Z</time>
      </trkpt>
      <trkpt lat="47.84939" lon="6.93461">
        <ele>1178.3</ele>
        <time>2023-05-21T07:54:47Z</time>
      </trkpt>
      <trkpt lat="47.84944" lon="6.93469">
        <ele>1178.7</ele>
        <time>2023-05-21T07:54:54Z</time>
      </trkpt>
      <trkpt lat="47.84946" lon="6.93475">
        <ele>1178.6</ele>
        <time>2023-05-21T07:54:57Z</time>
      </trkpt>
      <trkpt lat="47.84955" lon="6.93494">
        <ele>1177.6</ele>
        <time>2023-05-21T07:55:08Z</time>
      </trkpt>
      <trkpt lat="47.84957" lon="6.93501">
        <ele>1177.8</ele>
        <time>2023-05-21T07:55:11Z</time>
      </trkpt>
      <trkpt lat="47.84964" lon="6.9351">
        <ele>1178</ele>
        <time>2023-05-21T07:55:20Z</time>
      </trkpt>
      <trkpt lat="47.84969" lon="6.93521">
        <ele>1179.6</ele>
        <time>2023-05-21T07:55:29Z</time>
      </trkpt>
      <trkpt lat="47.84971" lon="6.93528">
        <ele>1181</ele>
        <time>2023-05-21T07:55:34Z</time>
      </trkpt>
      <trkpt lat="47.84971" lon="6.93538">
        <ele>1182</ele>
        <time>2023-05-21T07:55:40Z</time>
      </trkpt>
      <trkpt lat="47.84974" lon="6.93544">
        <ele>1182.1</ele>
        <time>2023-05-21T07:55:44Z</time>
      </trkpt>
      <trkpt lat="47.84977" lon="6.93547">
        <ele>1181.3</ele>
        <time>2023-05-21T07:55:48Z</time>
      </trkpt>
      <trkpt lat="47.84976" lon="6.93555">
        <ele>1182.6</ele>
        <time>2023-05-21T07:55:53Z</time>
      </trkpt>
      <trkpt lat="47.8498" lon="6.93561">
        <ele>1180.9</ele>
        <time>2023-05-21T07:55:57Z</time>
      </trkpt>
      <trkpt lat="47.84987" lon="6.93572">
        <ele>1178.8</ele>
        <time>2023-05-21T07:56:04Z</time>
      </trkpt>
      <trkpt lat="47.85003" lon="6.93601">
        <ele>1179.1</ele>
        <time>2023-05-21T07:56:21Z</time>
      </trkpt>
      <trkpt lat="47.85007" lon="6.93607">
        <ele>1178.7</ele>
        <time>2023-05-21T07:56:26Z</time>
      </trkpt>
      <trkpt lat="47.85011" lon="6.93613">
        <ele>1178.3</ele>
        <time>2023-05-21T07:56:30Z</time>
      </trkpt>
      <trkpt lat="47.85013" lon="6.93619">
        <ele>1178</ele>
        <time>2023-05-21T07:56:34Z</time>
      </trkpt>
      <trkpt lat="47.85014" lon="6.93628">
        <ele>1178.1</ele>
        <time>2023-05-21T07:56:39Z</time>
      </trkpt>
      <trkpt lat="47.85026" lon="6.93658">
        <ele>1178.3</ele>
        <time>2023-05-21T07:56:58Z</time>
      </trkpt>
      <trkpt lat="47.85029" lon="6.93665">
        <ele>1178.7</ele>
        <time>2023-05-21T07:57:02Z</time>
      </trkpt>
      <trkpt lat="47.85039" lon="6.93676">
        <ele>1178.5</ele>
        <time>2023-05-21T07:57:12Z</time>
      </trkpt>
      <trkpt lat="47.85043" lon="6.93678">
        <ele>1178.5</ele>
        <time>2023-05-21T07:57:15Z</time>
      </trkpt>
      <trkpt lat="47.85068" lon="6.93725">
        <ele>1179.9</ele>
        <time>2023-05-21T07:57:47Z</time>
      </trkpt>
      <trkpt lat="47.85076" lon="6.93738">
        <ele>1180</ele>
        <time>2023-05-21T07:57:56Z</time>
      </trkpt>
      <trkpt lat="47.85077" lon="6.93744">
        <ele>1180.6</ele>
        <time>2023-05-21T07:57:59Z</time>
      </trkpt>
      <trkpt lat="47.85089" lon="6.93768">
        <ele>1180.9</ele>
        <time>2023-05-21T07:58:16Z</time>
      </trkpt>
      <trkpt lat="47.85092" lon="6.9377">
        <ele>1180.4</ele>
        <time>2023-05-21T07:58:19Z</time>
      </trkpt>
      <trkpt lat="47.85095" lon="6.93784">
        <ele>1180.9</ele>
        <time>2023-05-21T07:58:24Z</time>
      </trkpt>
      <trkpt lat="47.85095" lon="6.93789">
        <ele>1181.2</ele>
        <time>2023-05-21T07:58:28Z</time>
      </trkpt>
      <trkpt lat="47.85098" lon="6.93796">
        <ele>1181.2</ele>
        <time>2023-05-21T07:58:33Z</time>
      </trkpt>
      <trkpt lat="47.85099" lon="6.93802">
        <ele>1181.5</ele>
        <time>2023-05-21T07:58:38Z</time>
      </trkpt>
      <trkpt lat="47.85103" lon="6.93811">
        <ele>1181.6</ele>
        <time>2023-05-21T07:58:43Z</time>
      </trkpt>
      <trkpt lat="47.8511" lon="6.93819">
        <ele>1181.6</ele>
        <time>2023-05-21T07:58:51Z</time>
      </trkpt>
      <trkpt lat="47.85122" lon="6.93832">
        <ele>1179.3</ele>
        <time>2023-05-21T07:59:03Z</time>
      </trkpt>
      <trkpt lat="47.85133" lon="6.93847">
        <ele>1177.3</ele>
        <time>2023-05-21T07:59:13Z</time>
      </trkpt>
      <trkpt lat="47.85138" lon="6.93863">
        <ele>1177.5</ele>
        <time>2023-05-21T07:59:21Z</time>
      </trkpt>
      <trkpt lat="47.85141" lon="6.93868">
        <ele>1176.9</ele>
        <time>2023-05-21T07:59:24Z</time>
      </trkpt>
      <trkpt lat="47.85144" lon="6.93874">
        <ele>1176.5</ele>
        <time>2023-05-21T07:59:29Z</time>
      </trkpt>
      <trkpt lat="47.85155" lon="6.93901">
        <ele>1175.9</ele>
        <time>2023-05-21T07:59:43Z</time>
      </trkpt>
      <trkpt lat="47.85157" lon="6.93907">
        <ele>1175.9</ele>
        <time>2023-05-21T07:59:47Z</time>
      </trkpt>
      <trkpt lat="47.85161" lon="6.93913">
        <ele>1175</ele>
        <time>2023-05-21T07:59:50Z</time>
      </trkpt>
      <trkpt lat="47.85164" lon="6.9392">
        <ele>1174.4</ele>
        <time>2023-05-21T07:59:54Z</time>
      </trkpt>
      <trkpt lat="47.85164" lon="6.93934">
        <ele>1175.5</ele>
        <time>2023-05-21T08:00:02Z</time>
      </trkpt>
      <trkpt lat="47.85169" lon="6.93946">
        <ele>1174</ele>
        <time>2023-05-21T08:00:10Z</time>
      </trkpt>
      <trkpt lat="47.8517" lon="6.93953">
        <ele>1173.8</ele>
        <time>2023-05-21T08:00:13Z</time>
      </trkpt>
      <trkpt lat="47.8517" lon="6.93961">
        <ele>1174.1</ele>
        <time>2023-05-21T08:00:17Z</time>
      </trkpt>
      <trkpt lat="47.85171" lon="6.93968">
        <ele>1174</ele>
        <time>2023-05-21T08:00:20Z</time>
      </trkpt>
      <trkpt lat="47.85175" lon="6.93981">
        <ele>1172.1</ele>
        <time>2023-05-21T08:00:28Z</time>
      </trkpt>
      <trkpt lat="47.85174" lon="6.93991">
        <ele>1172.2</ele>
        <time>2023-05-21T08:00:34Z</time>
      </trkpt>
      <trkpt lat="47.85175" lon="6.93998">
        <ele>1171.5</ele>
        <time>2023-05-21T08:00:37Z</time>
      </trkpt>
      <trkpt lat="47.85173" lon="6.9402">
        <ele>1169.5</ele>
        <time>2023-05-21T08:00:47Z</time>
      </trkpt>
      <trkpt lat="47.85169" lon="6.94036">
        <ele>1167.8</ele>
        <time>2023-05-21T08:00:57Z</time>
      </trkpt>
      <trkpt lat="47.85159" lon="6.94054">
        <ele>1164.6</ele>
        <time>2023-05-21T08:01:09Z</time>
      </trkpt>
      <trkpt lat="47.85153" lon="6.94059">
        <ele>1163.1</ele>
        <time>2023-05-21T08:01:15Z</time>
      </trkpt>
      <trkpt lat="47.8515" lon="6.94063">
        <ele>1161.4</ele>
        <time>2023-05-21T08:01:19Z</time>
      </trkpt>
      <trkpt lat="47.85145" lon="6.94068">
        <ele>1159.7</ele>
        <time>2023-05-21T08:01:23Z</time>
      </trkpt>
      <trkpt lat="47.85124" lon="6.94091">
        <ele>1155.6</ele>
        <time>2023-05-21T08:01:43Z</time>
      </trkpt>
      <trkpt lat="47.85119" lon="6.94104">
        <ele>1151.9</ele>
        <time>2023-05-21T08:01:52Z</time>
      </trkpt>
      <trkpt lat="47.85114" lon="6.94107">
        <ele>1152.6</ele>
        <time>2023-05-21T08:01:55Z</time>
      </trkpt>
      <trkpt lat="47.85111" lon="6.94112">
        <ele>1151.7</ele>
        <time>2023-05-21T08:01:59Z</time>
      </trkpt>
      <trkpt lat="47.85098" lon="6.94133">
        <ele>1149.7</ele>
        <time>2023-05-21T08:02:16Z</time>
      </trkpt>
      <trkpt lat="47.85093" lon="6.94148">
        <ele>1147.5</ele>
        <time>2023-05-21T08:02:26Z</time>
      </trkpt>
      <trkpt lat="47.8509" lon="6.94163">
        <ele>1144.7</ele>
        <time>2023-05-21T08:02:34Z</time>
      </trkpt>
      <trkpt lat="47.8508" lon="6.94179">
        <ele>1142</ele>
        <time>2023-05-21T08:02:46Z</time>
      </trkpt>
      <trkpt lat="47.85076" lon="6.94181">
        <ele>1141.5</ele>
        <time>2023-05-21T08:02:50Z</time>
      </trkpt>
      <trkpt lat="47.85068" lon="6.9419">
        <ele>1137.7</ele>
        <time>2023-05-21T08:02:58Z</time>
      </trkpt>
      <trkpt lat="47.8505" lon="6.94193">
        <ele>1136.2</ele>
        <time>2023-05-21T08:03:13Z</time>
      </trkpt>
      <trkpt lat="47.85046" lon="6.94191">
        <ele>1136.8</ele>
        <time>2023-05-21T08:03:17Z</time>
      </trkpt>
      <trkpt lat="47.85041" lon="6.94193">
        <ele>1135.2</ele>
        <time>2023-05-21T08:03:22Z</time>
      </trkpt>
      <trkpt lat="47.85036" lon="6.94199">
        <ele>1131.3</ele>
        <time>2023-05-21T08:03:28Z</time>
      </trkpt>
      <trkpt lat="47.85027" lon="6.94205">
        <ele>1127</ele>
        <time>2023-05-21T08:03:38Z</time>
      </trkpt>
      <trkpt lat="47.85018" lon="6.94206">
        <ele>1127</ele>
        <time>2023-05-21T08:03:44Z</time>
      </trkpt>
      <trkpt lat="47.85013" lon="6.94208">
        <ele>1126.3</ele>
        <time>2023-05-21T08:03:48Z</time>
      </trkpt>
      <trkpt lat="47.85004" lon="6.94218">
        <ele>1121.1</ele>
        <time>2023-05-21T08:03:59Z</time>
      </trkpt>
      <trkpt lat="47.84999" lon="6.9422">
        <ele>1120.5</ele>
        <time>2023-05-21T08:04:03Z</time>
      </trkpt>
      <trkpt lat="47.84993" lon="6.94225">
        <ele>1119.3</ele>
        <time>2023-05-21T08:04:09Z</time>
      </trkpt>
      <trkpt lat="47.84979" lon="6.94234">
        <ele>1118</ele>
        <time>2023-05-21T08:04:22Z</time>
      </trkpt>
      <trkpt lat="47.84973" lon="6.94234">
        <ele>1119.5</ele>
        <time>2023-05-21T08:04:26Z</time>
      </trkpt>
      <trkpt lat="47.84968" lon="6.94239">
        <ele>1118.4</ele>
        <time>2023-05-21T08:04:30Z</time>
      </trkpt>
      <trkpt lat="47.84964" lon="6.94242">
        <ele>1118.2</ele>
        <time>2023-05-21T08:04:34Z</time>
      </trkpt>
      <trkpt lat="47.8496" lon="6.94243">
        <ele>1119.2</ele>
        <time>2023-05-21T08:04:37Z</time>
      </trkpt>
      <trkpt lat="47.8495" lon="6.9425">
        <ele>1119.8</ele>
        <time>2023-05-21T08:04:43Z</time>
      </trkpt>
      <trkpt lat="47.84946" lon="6.94256">
        <ele>1118.8</ele>
        <time>2023-05-21T08:04:48Z</time>
      </trkpt>
      <trkpt lat="47.84942" lon="6.9426">
        <ele>1118.5</ele>
        <time>2023-05-21T08:04:51Z</time>
      </trkpt>
      <trkpt lat="47.84938" lon="6.94265">
        <ele>1117.9</ele>
        <time>2023-05-21T08:04:56Z</time>
      </trkpt>
      <trkpt lat="47.84928" lon="6.94284">
        <ele>1115.7</ele>
        <time>2023-05-21T08:05:10Z</time>
      </trkpt>
      <trkpt lat="47.8492" lon="6.94294">
        <ele>1116.6</ele>
        <time>2023-05-21T08:05:18Z</time>
      </trkpt>
      <trkpt lat="47.84918" lon="6.943">
        <ele>1115.9</ele>
        <time>2023-05-21T08:05:22Z</time>
      </trkpt>
      <trkpt lat="47.84915" lon="6.94305">
        <ele>1115.8</ele>
        <time>2023-05-21T08:05:26Z</time>
      </trkpt>
      <trkpt lat="47.84912" lon="6.94313">
        <ele>1113.4</ele>
        <time>2023-05-21T08:05:31Z</time>
      </trkpt>
      <trkpt lat="47.84908" lon="6.94316">
        <ele>1113.7</ele>
        <time>2023-05-21T08:05:35Z</time>
      </trkpt>
      <trkpt lat="47.849" lon="6.94326">
        <ele>1113.2</ele>
        <time>2023-05-21T08:05:42Z</time>
      </trkpt>
      <trkpt lat="47.84897" lon="6.94331">
        <ele>1112.8</ele>
        <time>2023-05-21T08:05:45Z</time>
      </trkpt>
      <trkpt lat="47.84889" lon="6.94357">
        <ele>1108.3</ele>
        <time>2023-05-21T08:05:58Z</time>
      </trkpt>
      <trkpt lat="47.84877" lon="6.94372">
        <ele>1110.9</ele>
        <time>2023-05-21T08:06:08Z</time>
      </trkpt>
      <trkpt lat="47.84876" lon="6.94392">
        <ele>1106.2</ele>
        <time>2023-05-21T08:06:20Z</time>
      </trkpt>
      <trkpt lat="47.84874" lon="6.94398">
        <ele>1106</ele>
        <time>2023-05-21T08:06:23Z</time>
      </trkpt>
      <trkpt lat="47.8487" lon="6.94405">
        <ele>1106.9</ele>
        <time>2023-05-21T08:06:30Z</time>
      </trkpt>
      <trkpt lat="47.84867" lon="6.94411">
        <ele>1107.5</ele>
        <time>2023-05-21T08:06:33Z</time>
      </trkpt>
      <trkpt lat="47.84862" lon="6.9443">
        <ele>1106.1</ele>
        <time>2023-05-21T08:06:43Z</time>
      </trkpt>
      <trkpt lat="47.84859" lon="6.94436">
        <ele>1105.9</ele>
        <time>2023-05-21T08:06:47Z</time>
      </trkpt>
      <trkpt lat="47.84857" lon="6.94442">
        <ele>1105</ele>
        <time>2023-05-21T08:06:50Z</time>
      </trkpt>
      <trkpt lat="47.84858" lon="6.94449">
        <ele>1101.9</ele>
        <time>2023-05-21T08:06:54Z</time>
      </trkpt>
      <trkpt lat="47.84854" lon="6.94453">
        <ele>1101.5</ele>
        <time>2023-05-21T08:06:58Z</time>
      </trkpt>
      <trkpt lat="47.8485" lon="6.94453">
        <ele>1102.8</ele>
        <time>2023-05-21T08:07:02Z</time>
      </trkpt>
      <trkpt lat="47.84845" lon="6.94454">
        <ele>1104.1</ele>
        <time>2023-05-21T08:07:05Z</time>
      </trkpt>
      <trkpt lat="47.84841" lon="6.94456">
        <ele>1104.7</ele>
        <time>2023-05-21T08:07:08Z</time>
      </trkpt>
      <trkpt lat="47.84837" lon="6.9446">
        <ele>1104.5</ele>
        <time>2023-05-21T08:07:12Z</time>
      </trkpt>
      <trkpt lat="47.84831" lon="6.94473">
        <ele>1101.6</ele>
        <time>2023-05-21T08:07:22Z</time>
      </trkpt>
      <trkpt lat="47.84827" lon="6.94484">
        <ele>1099.5</ele>
        <time>2023-05-21T08:07:30Z</time>
      </trkpt>
      <trkpt lat="47.84823" lon="6.94488">
        <ele>1099.6</ele>
        <time>2023-05-21T08:07:34Z</time>
      </trkpt>
      <trkpt lat="47.84822" lon="6.94495">
        <ele>1097.7</ele>
        <time>2023-05-21T08:07:37Z</time>
      </trkpt>
      <trkpt lat="47.84806" lon="6.94523">
        <ele>1093.6</ele>
        <time>2023-05-21T08:07:58Z</time>
      </trkpt>
      <trkpt lat="47.84804" lon="6.94532">
        <ele>1090.6</ele>
        <time>2023-05-21T08:08:05Z</time>
      </trkpt>
      <trkpt lat="47.84799" lon="6.94537">
        <ele>1090.2</ele>
        <time>2023-05-21T08:08:09Z</time>
      </trkpt>
      <trkpt lat="47.84793" lon="6.94548">
        <ele>1088.7</ele>
        <time>2023-05-21T08:08:16Z</time>
      </trkpt>
      <trkpt lat="47.84789" lon="6.94557">
        <ele>1087.9</ele>
        <time>2023-05-21T08:08:23Z</time>
      </trkpt>
      <trkpt lat="47.84784" lon="6.94582">
        <ele>1083.3</ele>
        <time>2023-05-21T08:08:41Z</time>
      </trkpt>
      <trkpt lat="47.84777" lon="6.94593">
        <ele>1083.4</ele>
        <time>2023-05-21T08:08:49Z</time>
      </trkpt>
      <trkpt lat="47.84772" lon="6.94598">
        <ele>1080.6</ele>
        <time>2023-05-21T08:08:55Z</time>
      </trkpt>
      <trkpt lat="47.8478" lon="6.94601">
        <ele>1079.1</ele>
        <time>2023-05-21T08:09:10Z</time>
      </trkpt>
      <trkpt lat="47.84777" lon="6.9462">
        <ele>1074.3</ele>
        <time>2023-05-21T08:09:22Z</time>
      </trkpt>
      <trkpt lat="47.84778" lon="6.94619">
        <ele>1074.6</ele>
        <time>2023-05-21T08:09:32Z</time>
      </trkpt>
      <trkpt lat="47.8478" lon="6.9461">
        <ele>1075.8</ele>
        <time>2023-05-21T08:09:38Z</time>
      </trkpt>
      <trkpt lat="47.84787" lon="6.94614">
        <ele>1069.5</ele>
        <time>2023-05-21T08:09:46Z</time>
      </trkpt>
      <trkpt lat="47.84786" lon="6.94634">
        <ele>1064.5</ele>
        <time>2023-05-21T08:09:59Z</time>
      </trkpt>
      <trkpt lat="47.84789" lon="6.9464">
        <ele>1060.6</ele>
        <time>2023-05-21T08:10:03Z</time>
      </trkpt>
      <trkpt lat="47.84792" lon="6.94637">
        <ele>1059.3</ele>
        <time>2023-05-21T08:10:21Z</time>
      </trkpt>
      <trkpt lat="47.84792" lon="6.94646">
        <ele>1056.7</ele>
        <time>2023-05-21T08:10:25Z</time>
      </trkpt>
      <trkpt lat="47.84786" lon="6.94681">
        <ele>1052.1</ele>
        <time>2023-05-21T08:10:41Z</time>
      </trkpt>
      <trkpt lat="47.84786" lon="6.94706">
        <ele>1048.8</ele>
        <time>2023-05-21T08:10:58Z</time>
      </trkpt>
      <trkpt lat="47.84784" lon="6.94712">
        <ele>1049.9</ele>
        <time>2023-05-21T08:11:06Z</time>
      </trkpt>
      <trkpt lat="47.84783" lon="6.94719">
        <ele>1050.1</ele>
        <time>2023-05-21T08:11:12Z</time>
      </trkpt>
      <trkpt lat="47.84782" lon="6.94725">
        <ele>1050.4</ele>
        <time>2023-05-21T08:11:16Z</time>
      </trkpt>
      <trkpt lat="47.84783" lon="6.94733">
        <ele>1049</ele>
        <time>2023-05-21T08:11:20Z</time>
      </trkpt>
      <trkpt lat="47.84781" lon="6.9474">
        <ele>1049.8</ele>
        <time>2023-05-21T08:11:24Z</time>
      </trkpt>
      <trkpt lat="47.84781" lon="6.94748">
        <ele>1049.1</ele>
        <time>2023-05-21T08:11:27Z</time>
      </trkpt>
      <trkpt lat="47.8478" lon="6.94754">
        <ele>1048.7</ele>
        <time>2023-05-21T08:11:31Z</time>
      </trkpt>
      <trkpt lat="47.84774" lon="6.94766">
        <ele>1048.7</ele>
        <time>2023-05-21T08:11:37Z</time>
      </trkpt>
      <trkpt lat="47.84772" lon="6.94773">
        <ele>1048</ele>
        <time>2023-05-21T08:11:40Z</time>
      </trkpt>
      <trkpt lat="47.84768" lon="6.94779">
        <ele>1048.2</ele>
        <time>2023-05-21T08:11:44Z</time>
      </trkpt>
      <trkpt lat="47.84767" lon="6.94787">
        <ele>1046.6</ele>
        <time>2023-05-21T08:11:52Z</time>
      </trkpt>
      <trkpt lat="47.8476" lon="6.94796">
        <ele>1046.8</ele>
        <time>2023-05-21T08:11:58Z</time>
      </trkpt>
      <trkpt lat="47.84755" lon="6.94799">
        <ele>1047.9</ele>
        <time>2023-05-21T08:12:01Z</time>
      </trkpt>
      <trkpt lat="47.84753" lon="6.94804">
        <ele>1047.3</ele>
        <time>2023-05-21T08:12:05Z</time>
      </trkpt>
      <trkpt lat="47.84749" lon="6.94824">
        <ele>1046.2</ele>
        <time>2023-05-21T08:12:17Z</time>
      </trkpt>
      <trkpt lat="47.84746" lon="6.94831">
        <ele>1046.3</ele>
        <time>2023-05-21T08:12:21Z</time>
      </trkpt>
      <trkpt lat="47.84744" lon="6.94837">
        <ele>1046.6</ele>
        <time>2023-05-21T08:12:25Z</time>
      </trkpt>
      <trkpt lat="47.84744" lon="6.94844">
        <ele>1046.4</ele>
        <time>2023-05-21T08:12:29Z</time>
      </trkpt>
      <trkpt lat="47.84746" lon="6.94852">
        <ele>1045.3</ele>
        <time>2023-05-21T08:12:33Z</time>
      </trkpt>
      <trkpt lat="47.84744" lon="6.94859">
        <ele>1045.9</ele>
        <time>2023-05-21T08:12:37Z</time>
      </trkpt>
      <trkpt lat="47.84746" lon="6.94866">
        <ele>1044.8</ele>
        <time>2023-05-21T08:12:41Z</time>
      </trkpt>
      <trkpt lat="47.84745" lon="6.94875">
        <ele>1045.2</ele>
        <time>2023-05-21T08:12:47Z</time>
      </trkpt>
      <trkpt lat="47.84748" lon="6.94893">
        <ele>1043.2</ele>
        <time>2023-05-21T08:12:56Z</time>
      </trkpt>
      <trkpt lat="47.84748" lon="6.94899">
        <ele>1043.3</ele>
        <time>2023-05-21T08:13:00Z</time>
      </trkpt>
      <trkpt lat="47.84745" lon="6.94906">
        <ele>1045.2</ele>
        <time>2023-05-21T08:13:04Z</time>
      </trkpt>
      <trkpt lat="47.84744" lon="6.94915">
        <ele>1045.9</ele>
        <time>2023-05-21T08:13:09Z</time>
      </trkpt>
      <trkpt lat="47.84748" lon="6.94921">
        <ele>1043.6</ele>
        <time>2023-05-21T08:13:12Z</time>
      </trkpt>
      <trkpt lat="47.84749" lon="6.94928">
        <ele>1043.4</ele>
        <time>2023-05-21T08:13:16Z</time>
      </trkpt>
      <trkpt lat="47.84748" lon="6.9494">
        <ele>1044.9</ele>
        <time>2023-05-21T08:13:23Z</time>
      </trkpt>
      <trkpt lat="47.84749" lon="6.94948">
        <ele>1045</ele>
        <time>2023-05-21T08:13:26Z</time>
      </trkpt>
      <trkpt lat="47.84751" lon="6.94955">
        <ele>1044.4</ele>
        <time>2023-05-21T08:13:30Z</time>
      </trkpt>
      <trkpt lat="47.84752" lon="6.94962">
        <ele>1044.5</ele>
        <time>2023-05-21T08:13:34Z</time>
      </trkpt>
      <trkpt lat="47.84752" lon="6.94971">
        <ele>1045.4</ele>
        <time>2023-05-21T08:13:38Z</time>
      </trkpt>
      <trkpt lat="47.84751" lon="6.94979">
        <ele>1047</ele>
        <time>2023-05-21T08:13:42Z</time>
      </trkpt>
      <trkpt lat="47.84752" lon="6.94986">
        <ele>1047</ele>
        <time>2023-05-21T08:13:46Z</time>
      </trkpt>
      <trkpt lat="47.84753" lon="6.94992">
        <ele>1047</ele>
        <time>2023-05-21T08:13:50Z</time>
      </trkpt>
      <trkpt lat="47.84754" lon="6.95006">
        <ele>1047</ele>
        <time>2023-05-21T08:13:56Z</time>
      </trkpt>
      <trkpt lat="47.84755" lon="6.95012">
        <ele>1046.1</ele>
        <time>2023-05-21T08:14:00Z</time>
      </trkpt>
      <trkpt lat="47.84754" lon="6.95019">
        <ele>1046.6</ele>
        <time>2023-05-21T08:14:04Z</time>
      </trkpt>
      <trkpt lat="47.84752" lon="6.95026">
        <ele>1047.8</ele>
        <time>2023-05-21T08:14:07Z</time>
      </trkpt>
      <trkpt lat="47.84752" lon="6.95035">
        <ele>1046.4</ele>
        <time>2023-05-21T08:14:11Z</time>
      </trkpt>
      <trkpt lat="47.84751" lon="6.95041">
        <ele>1046</ele>
        <time>2023-05-21T08:14:15Z</time>
      </trkpt>
      <trkpt lat="47.84746" lon="6.95061">
        <ele>1045</ele>
        <time>2023-05-21T08:14:26Z</time>
      </trkpt>
      <trkpt lat="47.84741" lon="6.95074">
        <ele>1044.8</ele>
        <time>2023-05-21T08:14:32Z</time>
      </trkpt>
      <trkpt lat="47.84738" lon="6.95078">
        <ele>1045.6</ele>
        <time>2023-05-21T08:14:36Z</time>
      </trkpt>
      <trkpt lat="47.84735" lon="6.95084">
        <ele>1046</ele>
        <time>2023-05-21T08:14:40Z</time>
      </trkpt>
      <trkpt lat="47.84733" lon="6.95094">
        <ele>1044</ele>
        <time>2023-05-21T08:14:46Z</time>
      </trkpt>
      <trkpt lat="47.84725" lon="6.95104">
        <ele>1045.1</ele>
        <time>2023-05-21T08:14:54Z</time>
      </trkpt>
      <trkpt lat="47.8472" lon="6.95115">
        <ele>1043.5</ele>
        <time>2023-05-21T08:15:01Z</time>
      </trkpt>
      <trkpt lat="47.84717" lon="6.95126">
        <ele>1042.1</ele>
        <time>2023-05-21T08:15:09Z</time>
      </trkpt>
      <trkpt lat="47.84715" lon="6.95132">
        <ele>1041.7</ele>
        <time>2023-05-21T08:15:12Z</time>
      </trkpt>
      <trkpt lat="47.84712" lon="6.95136">
        <ele>1042.1</ele>
        <time>2023-05-21T08:15:16Z</time>
      </trkpt>
      <trkpt lat="47.84709" lon="6.95149">
        <ele>1042</ele>
        <time>2023-05-21T08:15:23Z</time>
      </trkpt>
      <trkpt lat="47.84705" lon="6.95153">
        <ele>1043.3</ele>
        <time>2023-05-21T08:15:27Z</time>
      </trkpt>
      <trkpt lat="47.84704" lon="6.95162">
        <ele>1043.2</ele>
        <time>2023-05-21T08:15:31Z</time>
      </trkpt>
      <trkpt lat="47.84701" lon="6.95167">
        <ele>1044.2</ele>
        <time>2023-05-21T08:15:36Z</time>
      </trkpt>
      <trkpt lat="47.84699" lon="6.95173">
        <ele>1045.3</ele>
        <time>2023-05-21T08:15:39Z</time>
      </trkpt>
      <trkpt lat="47.84698" lon="6.95181">
        <ele>1046.2</ele>
        <time>2023-05-21T08:15:43Z</time>
      </trkpt>
      <trkpt lat="47.84697" lon="6.95187">
        <ele>1047.1</ele>
        <time>2023-05-21T08:15:47Z</time>
      </trkpt>
      <trkpt lat="47.847" lon="6.95195">
        <ele>1045.8</ele>
        <time>2023-05-21T08:15:53Z</time>
      </trkpt>
      <trkpt lat="47.84697" lon="6.95204">
        <ele>1047.8</ele>
        <time>2023-05-21T08:15:57Z</time>
      </trkpt>
      <trkpt lat="47.84695" lon="6.9521">
        <ele>1049.2</ele>
        <time>2023-05-21T08:15:59Z</time>
      </trkpt>
      <trkpt lat="47.84695" lon="6.95217">
        <ele>1049.4</ele>
        <time>2023-05-21T08:16:03Z</time>
      </trkpt>
      <trkpt lat="47.84696" lon="6.95224">
        <ele>1048.9</ele>
        <time>2023-05-21T08:16:07Z</time>
      </trkpt>
      <trkpt lat="47.84696" lon="6.95234">
        <ele>1048.5</ele>
        <time>2023-05-21T08:16:12Z</time>
      </trkpt>
      <trkpt lat="47.84696" lon="6.95242">
        <ele>1048.2</ele>
        <time>2023-05-21T08:16:16Z</time>
      </trkpt>
      <trkpt lat="47.84695" lon="6.95249">
        <ele>1048.6</ele>
        <time>2023-05-21T08:16:19Z</time>
      </trkpt>
      <trkpt lat="47.84695" lon="6.95264">
        <ele>1047.6</ele>
        <time>2023-05-21T08:16:26Z</time>
      </trkpt>
      <trkpt lat="47.84693" lon="6.95272">
        <ele>1048.1</ele>
        <time>2023-05-21T08:16:30Z</time>
      </trkpt>
      <trkpt lat="47.84691" lon="6.95278">
        <ele>1048.7</ele>
        <time>2023-05-21T08:16:33Z</time>
      </trkpt>
      <trkpt lat="47.84689" lon="6.95291">
        <ele>1048.5</ele>
        <time>2023-05-21T08:16:40Z</time>
      </trkpt>
      <trkpt lat="47.84691" lon="6.95299">
        <ele>1046.6</ele>
        <time>2023-05-21T08:16:45Z</time>
      </trkpt>
      <trkpt lat="47.84692" lon="6.95307">
        <ele>1045.2</ele>
        <time>2023-05-21T08:16:50Z</time>
      </trkpt>
      <trkpt lat="47.84689" lon="6.95313">
        <ele>1046</ele>
        <time>2023-05-21T08:16:53Z</time>
      </trkpt>
      <trkpt lat="47.84686" lon="6.95318">
        <ele>1047</ele>
        <time>2023-05-21T08:16:57Z</time>
      </trkpt>
      <trkpt lat="47.84685" lon="6.95325">
        <ele>1046.7</ele>
        <time>2023-05-21T08:17:02Z</time>
      </trkpt>
      <trkpt lat="47.84681" lon="6.95332">
        <ele>1048.4</ele>
        <time>2023-05-21T08:17:09Z</time>
      </trkpt>
      <trkpt lat="47.8468" lon="6.95339">
        <ele>1048.1</ele>
        <time>2023-05-21T08:17:13Z</time>
      </trkpt>
      <trkpt lat="47.8468" lon="6.9535">
        <ele>1046.5</ele>
        <time>2023-05-21T08:17:20Z</time>
      </trkpt>
      <trkpt lat="47.84677" lon="6.95356">
        <ele>1047.5</ele>
        <time>2023-05-21T08:17:23Z</time>
      </trkpt>
      <trkpt lat="47.84676" lon="6.95362">
        <ele>1047.2</ele>
        <time>2023-05-21T08:17:27Z</time>
      </trkpt>
      <trkpt lat="47.84667" lon="6.95407">
        <ele>1051.8</ele>
        <time>2023-05-21T08:17:50Z</time>
      </trkpt>
      <trkpt lat="47.84664" lon="6.95425">
        <ele>1053.4</ele>
        <time>2023-05-21T08:18:00Z</time>
      </trkpt>
      <trkpt lat="47.84667" lon="6.95472">
        <ele>1058.7</ele>
        <time>2023-05-21T08:18:31Z</time>
      </trkpt>
      <trkpt lat="47.84667" lon="6.95478">
        <ele>1060</ele>
        <time>2023-05-21T08:18:35Z</time>
      </trkpt>
      <trkpt lat="47.8467" lon="6.95483">
        <ele>1059.2</ele>
        <time>2023-05-21T08:18:40Z</time>
      </trkpt>
      <trkpt lat="47.84669" lon="6.9549">
        <ele>1061.3</ele>
        <time>2023-05-21T08:18:44Z</time>
      </trkpt>
      <trkpt lat="47.8467" lon="6.95506">
        <ele>1063.7</ele>
        <time>2023-05-21T08:18:55Z</time>
      </trkpt>
      <trkpt lat="47.84674" lon="6.95519">
        <ele>1063.2</ele>
        <time>2023-05-21T08:19:05Z</time>
      </trkpt>
      <trkpt lat="47.84672" lon="6.95528">
        <ele>1065.7</ele>
        <time>2023-05-21T08:19:13Z</time>
      </trkpt>
      <trkpt lat="47.84673" lon="6.95541">
        <ele>1065.1</ele>
        <time>2023-05-21T08:19:25Z</time>
      </trkpt>
      <trkpt lat="47.84671" lon="6.9555">
        <ele>1066.3</ele>
        <time>2023-05-21T08:19:33Z</time>
      </trkpt>
      <trkpt lat="47.84671" lon="6.95556">
        <ele>1066.3</ele>
        <time>2023-05-21T08:19:36Z</time>
      </trkpt>
      <trkpt lat="47.84669" lon="6.95566">
        <ele>1067.5</ele>
        <time>2023-05-21T08:19:42Z</time>
      </trkpt>
      <trkpt lat="47.84668" lon="6.95573">
        <ele>1068.2</ele>
        <time>2023-05-21T08:19:56Z</time>
      </trkpt>
      <trkpt lat="47.84669" lon="6.95579">
        <ele>1067.5</ele>
        <time>2023-05-21T08:20:00Z</time>
      </trkpt>
      <trkpt lat="47.84667" lon="6.95593">
        <ele>1069.5</ele>
        <time>2023-05-21T08:20:08Z</time>
      </trkpt>
      <trkpt lat="47.84668" lon="6.956">
        <ele>1069.3</ele>
        <time>2023-05-21T08:20:11Z</time>
      </trkpt>
      <trkpt lat="47.8467" lon="6.95606">
        <ele>1068.4</ele>
        <time>2023-05-21T08:20:15Z</time>
      </trkpt>
      <trkpt lat="47.84674" lon="6.95615">
        <ele>1066.5</ele>
        <time>2023-05-21T08:20:23Z</time>
      </trkpt>
      <trkpt lat="47.84679" lon="6.95626">
        <ele>1064.2</ele>
        <time>2023-05-21T08:20:31Z</time>
      </trkpt>
      <trkpt lat="47.84681" lon="6.95646">
        <ele>1065.1</ele>
        <time>2023-05-21T08:20:41Z</time>
      </trkpt>
      <trkpt lat="47.84683" lon="6.95655">
        <ele>1064.6</ele>
        <time>2023-05-21T08:20:49Z</time>
      </trkpt>
      <trkpt lat="47.84687" lon="6.95662">
        <ele>1062.3</ele>
        <time>2023-05-21T08:20:53Z</time>
      </trkpt>
      <trkpt lat="47.84687" lon="6.9567">
        <ele>1063.4</ele>
        <time>2023-05-21T08:20:58Z</time>
      </trkpt>
      <trkpt lat="47.84692" lon="6.95684">
        <ele>1061.5</ele>
        <time>2023-05-21T08:21:08Z</time>
      </trkpt>
      <trkpt lat="47.84693" lon="6.9569">
        <ele>1061.5</ele>
        <time>2023-05-21T08:21:14Z</time>
      </trkpt>
      <trkpt lat="47.84692" lon="6.95697">
        <ele>1063.4</ele>
        <time>2023-05-21T08:21:18Z</time>
      </trkpt>
      <trkpt lat="47.84696" lon="6.95703">
        <ele>1061.1</ele>
        <time>2023-05-21T08:21:23Z</time>
      </trkpt>
      <trkpt lat="47.84697" lon="6.95709">
        <ele>1061.2</ele>
        <time>2023-05-21T08:21:31Z</time>
      </trkpt>
      <trkpt lat="47.847" lon="6.95722">
        <ele>1060.8</ele>
        <time>2023-05-21T08:21:38Z</time>
      </trkpt>
      <trkpt lat="47.84702" lon="6.95728">
        <ele>1060.4</ele>
        <time>2023-05-21T08:21:41Z</time>
      </trkpt>
      <trkpt lat="47.84706" lon="6.95733">
        <ele>1058.4</ele>
        <time>2023-05-21T08:21:45Z</time>
      </trkpt>
      <trkpt lat="47.84713" lon="6.95752">
        <ele>1057.2</ele>
        <time>2023-05-21T08:21:56Z</time>
      </trkpt>
      <trkpt lat="47.84721" lon="6.95771">
        <ele>1056.9</ele>
        <time>2023-05-21T08:22:08Z</time>
      </trkpt>
      <trkpt lat="47.84723" lon="6.95778">
        <ele>1057.6</ele>
        <time>2023-05-21T08:22:13Z</time>
      </trkpt>
      <trkpt lat="47.84725" lon="6.95786">
        <ele>1059.1</ele>
        <time>2023-05-21T08:22:19Z</time>
      </trkpt>
      <trkpt lat="47.84729" lon="6.95791">
        <ele>1058.1</ele>
        <time>2023-05-21T08:22:22Z</time>
      </trkpt>
      <trkpt lat="47.84732" lon="6.95797">
        <ele>1058.1</ele>
        <time>2023-05-21T08:22:26Z</time>
      </trkpt>
      <trkpt lat="47.84736" lon="6.95802">
        <ele>1056.9</ele>
        <time>2023-05-21T08:22:31Z</time>
      </trkpt>
      <trkpt lat="47.84739" lon="6.95814">
        <ele>1057.7</ele>
        <time>2023-05-21T08:22:39Z</time>
      </trkpt>
      <trkpt lat="47.84742" lon="6.95821">
        <ele>1057.1</ele>
        <time>2023-05-21T08:22:43Z</time>
      </trkpt>
      <trkpt lat="47.84741" lon="6.95828">
        <ele>1059.3</ele>
        <time>2023-05-21T08:22:47Z</time>
      </trkpt>
      <trkpt lat="47.84745" lon="6.95834">
        <ele>1057.7</ele>
        <time>2023-05-21T08:22:53Z</time>
      </trkpt>
      <trkpt lat="47.84747" lon="6.95849">
        <ele>1058.8</ele>
        <time>2023-05-21T08:22:59Z</time>
      </trkpt>
      <trkpt lat="47.84748" lon="6.95857">
        <ele>1059.5</ele>
        <time>2023-05-21T08:23:03Z</time>
      </trkpt>
      <trkpt lat="47.84751" lon="6.95863">
        <ele>1058.1</ele>
        <time>2023-05-21T08:23:07Z</time>
      </trkpt>
      <trkpt lat="47.84753" lon="6.95872">
        <ele>1056.1</ele>
        <time>2023-05-21T08:23:15Z</time>
      </trkpt>
      <trkpt lat="47.84748" lon="6.95888">
        <ele>1057.4</ele>
        <time>2023-05-21T08:23:24Z</time>
      </trkpt>
      <trkpt lat="47.84746" lon="6.95892">
        <ele>1055.8</ele>
        <time>2023-05-21T08:23:29Z</time>
      </trkpt>
      <trkpt lat="47.84742" lon="6.95895">
        <ele>1054.6</ele>
        <time>2023-05-21T08:23:35Z</time>
      </trkpt>
      <trkpt lat="47.84735" lon="6.95897">
        <ele>1054.1</ele>
        <time>2023-05-21T08:23:50Z</time>
      </trkpt>
      <trkpt lat="47.84727" lon="6.95903">
        <ele>1051</ele>
        <time>2023-05-21T08:23:57Z</time>
      </trkpt>
      <trkpt lat="47.84723" lon="6.95905">
        <ele>1049.9</ele>
        <time>2023-05-21T08:24:02Z</time>
      </trkpt>
      <trkpt lat="47.84715" lon="6.95905">
        <ele>1051</ele>
        <time>2023-05-21T08:24:08Z</time>
      </trkpt>
      <trkpt lat="47.84712" lon="6.95911">
        <ele>1047.7</ele>
        <time>2023-05-21T08:24:13Z</time>
      </trkpt>
      <trkpt lat="47.84706" lon="6.95913">
        <ele>1047.6</ele>
        <time>2023-05-21T08:24:17Z</time>
      </trkpt>
      <trkpt lat="47.84701" lon="6.95912">
        <ele>1049.1</ele>
        <time>2023-05-21T08:24:20Z</time>
      </trkpt>
      <trkpt lat="47.84697" lon="6.95913">
        <ele>1049.4</ele>
        <time>2023-05-21T08:24:25Z</time>
      </trkpt>
      <trkpt lat="47.84693" lon="6.95911">
        <ele>1051.2</ele>
        <time>2023-05-21T08:24:28Z</time>
      </trkpt>
      <trkpt lat="47.84688" lon="6.95912">
        <ele>1051.9</ele>
        <time>2023-05-21T08:24:31Z</time>
      </trkpt>
      <trkpt lat="47.84683" lon="6.95918">
        <ele>1050.2</ele>
        <time>2023-05-21T08:24:37Z</time>
      </trkpt>
      <trkpt lat="47.84679" lon="6.95922">
        <ele>1049.3</ele>
        <time>2023-05-21T08:24:41Z</time>
      </trkpt>
      <trkpt lat="47.84674" lon="6.95924">
        <ele>1049.7</ele>
        <time>2023-05-21T08:24:44Z</time>
      </trkpt>
      <trkpt lat="47.84667" lon="6.95929">
        <ele>1049.1</ele>
        <time>2023-05-21T08:24:53Z</time>
      </trkpt>
      <trkpt lat="47.84664" lon="6.95936">
        <ele>1047.2</ele>
        <time>2023-05-21T08:24:57Z</time>
      </trkpt>
      <trkpt lat="47.84649" lon="6.95943">
        <ele>1051.5</ele>
        <time>2023-05-21T08:25:07Z</time>
      </trkpt>
      <trkpt lat="47.84647" lon="6.95951">
        <ele>1049.2</ele>
        <time>2023-05-21T08:25:15Z</time>
      </trkpt>
      <trkpt lat="47.84641" lon="6.95962">
        <ele>1047.9</ele>
        <time>2023-05-21T08:25:23Z</time>
      </trkpt>
      <trkpt lat="47.84638" lon="6.95968">
        <ele>1047.2</ele>
        <time>2023-05-21T08:25:26Z</time>
      </trkpt>
      <trkpt lat="47.84635" lon="6.95971">
        <ele>1047.6</ele>
        <time>2023-05-21T08:25:31Z</time>
      </trkpt>
      <trkpt lat="47.84632" lon="6.95981">
        <ele>1045.9</ele>
        <time>2023-05-21T08:25:38Z</time>
      </trkpt>
      <trkpt lat="47.84627" lon="6.95984">
        <ele>1047.6</ele>
        <time>2023-05-21T08:25:43Z</time>
      </trkpt>
      <trkpt lat="47.84624" lon="6.9599">
        <ele>1047.3</ele>
        <time>2023-05-21T08:25:46Z</time>
      </trkpt>
      <trkpt lat="47.8461" lon="6.95987">
        <ele>1055.6</ele>
        <time>2023-05-21T08:26:06Z</time>
      </trkpt>
      <trkpt lat="47.84608" lon="6.95994">
        <ele>1054.2</ele>
        <time>2023-05-21T08:26:23Z</time>
      </trkpt>
      <trkpt lat="47.84612" lon="6.96">
        <ele>1050.5</ele>
        <time>2023-05-21T08:26:28Z</time>
      </trkpt>
      <trkpt lat="47.84612" lon="6.9601">
        <ele>1047.6</ele>
        <time>2023-05-21T08:26:35Z</time>
      </trkpt>
      <trkpt lat="47.84611" lon="6.96018">
        <ele>1045.9</ele>
        <time>2023-05-21T08:26:39Z</time>
      </trkpt>
      <trkpt lat="47.84608" lon="6.96026">
        <ele>1044.9</ele>
        <time>2023-05-21T08:26:45Z</time>
      </trkpt>
      <trkpt lat="47.84599" lon="6.96045">
        <ele>1042.7</ele>
        <time>2023-05-21T08:26:55Z</time>
      </trkpt>
      <trkpt lat="47.84591" lon="6.96053">
        <ele>1043.1</ele>
        <time>2023-05-21T08:27:03Z</time>
      </trkpt>
      <trkpt lat="47.84567" lon="6.96067">
        <ele>1042.2</ele>
        <time>2023-05-21T08:27:22Z</time>
      </trkpt>
      <trkpt lat="47.84558" lon="6.96069">
        <ele>1042.4</ele>
        <time>2023-05-21T08:27:29Z</time>
      </trkpt>
      <trkpt lat="47.84541" lon="6.96081">
        <ele>1037.6</ele>
        <time>2023-05-21T08:27:42Z</time>
      </trkpt>
      <trkpt lat="47.84517" lon="6.96094">
        <ele>1033.5</ele>
        <time>2023-05-21T08:28:04Z</time>
      </trkpt>
      <trkpt lat="47.8451" lon="6.96102">
        <ele>1031</ele>
        <time>2023-05-21T08:28:12Z</time>
      </trkpt>
      <trkpt lat="47.84504" lon="6.96102">
        <ele>1032</ele>
        <time>2023-05-21T08:28:15Z</time>
      </trkpt>
      <trkpt lat="47.84489" lon="6.9612">
        <ele>1029.8</ele>
        <time>2023-05-21T08:28:34Z</time>
      </trkpt>
      <trkpt lat="47.84481" lon="6.96133">
        <ele>1028.6</ele>
        <time>2023-05-21T08:28:42Z</time>
      </trkpt>
      <trkpt lat="47.84478" lon="6.96148">
        <ele>1026</ele>
        <time>2023-05-21T08:28:51Z</time>
      </trkpt>
      <trkpt lat="47.84475" lon="6.96155">
        <ele>1025.9</ele>
        <time>2023-05-21T08:28:55Z</time>
      </trkpt>
      <trkpt lat="47.84472" lon="6.9616">
        <ele>1026.3</ele>
        <time>2023-05-21T08:29:00Z</time>
      </trkpt>
      <trkpt lat="47.84464" lon="6.96169">
        <ele>1027.8</ele>
        <time>2023-05-21T08:29:07Z</time>
      </trkpt>
      <trkpt lat="47.84464" lon="6.96176">
        <ele>1025.6</ele>
        <time>2023-05-21T08:29:11Z</time>
      </trkpt>
      <trkpt lat="47.84454" lon="6.96191">
        <ele>1025.6</ele>
        <time>2023-05-21T08:29:21Z</time>
      </trkpt>
      <trkpt lat="47.84449" lon="6.96203">
        <ele>1024.4</ele>
        <time>2023-05-21T08:29:29Z</time>
      </trkpt>
      <trkpt lat="47.84446" lon="6.9621">
        <ele>1023.8</ele>
        <time>2023-05-21T08:29:34Z</time>
      </trkpt>
      <trkpt lat="47.84447" lon="6.96217">
        <ele>1021.3</ele>
        <time>2023-05-21T08:29:39Z</time>
      </trkpt>
      <trkpt lat="47.84439" lon="6.96244">
        <ele>1017.1</ele>
        <time>2023-05-21T08:29:55Z</time>
      </trkpt>
      <trkpt lat="47.84436" lon="6.96249">
        <ele>1016.9</ele>
        <time>2023-05-21T08:29:58Z</time>
      </trkpt>
      <trkpt lat="47.8443" lon="6.96261">
        <ele>1015.9</ele>
        <time>2023-05-21T08:30:06Z</time>
      </trkpt>
      <trkpt lat="47.84411" lon="6.96289">
        <ele>1015.5</ele>
        <time>2023-05-21T08:30:28Z</time>
      </trkpt>
      <trkpt lat="47.84391" lon="6.96351">
        <ele>1007.4</ele>
        <time>2023-05-21T08:30:58Z</time>
      </trkpt>
      <trkpt lat="47.84382" lon="6.964">
        <ele>1002.6</ele>
        <time>2023-05-21T08:31:29Z</time>
      </trkpt>
      <trkpt lat="47.8437" lon="6.96458">
        <ele>999.1</ele>
        <time>2023-05-21T08:32:00Z</time>
      </trkpt>
      <trkpt lat="47.8436" lon="6.965">
        <ele>995.3</ele>
        <time>2023-05-21T08:32:23Z</time>
      </trkpt>
      <trkpt lat="47.84357" lon="6.96505">
        <ele>994.3</ele>
        <time>2023-05-21T08:32:27Z</time>
      </trkpt>
      <trkpt lat="47.84349" lon="6.96516">
        <ele>992.1</ele>
        <time>2023-05-21T08:32:34Z</time>
      </trkpt>
      <trkpt lat="47.84336" lon="6.96528">
        <ele>989.5</ele>
        <time>2023-05-21T08:32:43Z</time>
      </trkpt>
      <trkpt lat="47.8433" lon="6.9653">
        <ele>989.5</ele>
        <time>2023-05-21T08:32:47Z</time>
      </trkpt>
      <trkpt lat="47.84324" lon="6.96534">
        <ele>988.6</ele>
        <time>2023-05-21T08:32:51Z</time>
      </trkpt>
      <trkpt lat="47.84317" lon="6.9654">
        <ele>987.1</ele>
        <time>2023-05-21T08:32:59Z</time>
      </trkpt>
      <trkpt lat="47.84313" lon="6.96544">
        <ele>986.2</ele>
        <time>2023-05-21T08:33:03Z</time>
      </trkpt>
      <trkpt lat="47.84304" lon="6.9655">
        <ele>985.4</ele>
        <time>2023-05-21T08:33:10Z</time>
      </trkpt>
      <trkpt lat="47.84299" lon="6.96549">
        <ele>986.2</ele>
        <time>2023-05-21T08:33:14Z</time>
      </trkpt>
      <trkpt lat="47.84282" lon="6.96561">
        <ele>983.7</ele>
        <time>2023-05-21T08:33:29Z</time>
      </trkpt>
      <trkpt lat="47.84277" lon="6.96563">
        <ele>983.7</ele>
        <time>2023-05-21T08:33:33Z</time>
      </trkpt>
      <trkpt lat="47.84266" lon="6.96573">
        <ele>982.2</ele>
        <time>2023-05-21T08:33:43Z</time>
      </trkpt>
      <trkpt lat="47.84246" lon="6.96588">
        <ele>980.7</ele>
        <time>2023-05-21T08:33:55Z</time>
      </trkpt>
      <trkpt lat="47.84238" lon="6.96595">
        <ele>981.2</ele>
        <time>2023-05-21T08:34:02Z</time>
      </trkpt>
      <trkpt lat="47.84233" lon="6.96596">
        <ele>982.6</ele>
        <time>2023-05-21T08:34:06Z</time>
      </trkpt>
      <trkpt lat="47.84225" lon="6.96605">
        <ele>983.3</ele>
        <time>2023-05-21T08:34:14Z</time>
      </trkpt>
      <trkpt lat="47.8422" lon="6.96608">
        <ele>984</ele>
        <time>2023-05-21T08:34:20Z</time>
      </trkpt>
      <trkpt lat="47.84216" lon="6.96612">
        <ele>984</ele>
        <time>2023-05-21T08:34:23Z</time>
      </trkpt>
      <trkpt lat="47.84213" lon="6.96617">
        <ele>984</ele>
        <time>2023-05-21T08:34:29Z</time>
      </trkpt>
      <trkpt lat="47.84209" lon="6.96615">
        <ele>985.1</ele>
        <time>2023-05-21T08:34:33Z</time>
      </trkpt>
      <trkpt lat="47.84206" lon="6.96619">
        <ele>985.5</ele>
        <time>2023-05-21T08:34:37Z</time>
      </trkpt>
      <trkpt lat="47.84204" lon="6.96624">
        <ele>985.9</ele>
        <time>2023-05-21T08:34:41Z</time>
      </trkpt>
      <trkpt lat="47.84202" lon="6.96632">
        <ele>986.5</ele>
        <time>2023-05-21T08:34:45Z</time>
      </trkpt>
      <trkpt lat="47.84199" lon="6.96638">
        <ele>987.8</ele>
        <time>2023-05-21T08:34:48Z</time>
      </trkpt>
      <trkpt lat="47.84184" lon="6.96648">
        <ele>991.8</ele>
        <time>2023-05-21T08:35:03Z</time>
      </trkpt>
      <trkpt lat="47.84181" lon="6.96653">
        <ele>992.9</ele>
        <time>2023-05-21T08:35:08Z</time>
      </trkpt>
      <trkpt lat="47.84182" lon="6.96669">
        <ele>993.1</ele>
        <time>2023-05-21T08:35:22Z</time>
      </trkpt>
      <trkpt lat="47.84176" lon="6.96695">
        <ele>993.2</ele>
        <time>2023-05-21T08:35:36Z</time>
      </trkpt>
      <trkpt lat="47.84172" lon="6.96709">
        <ele>993</ele>
        <time>2023-05-21T08:35:46Z</time>
      </trkpt>
      <trkpt lat="47.84161" lon="6.96738">
        <ele>992.8</ele>
        <time>2023-05-21T08:36:04Z</time>
      </trkpt>
      <trkpt lat="47.84159" lon="6.96751">
        <ele>991.1</ele>
        <time>2023-05-21T08:36:10Z</time>
      </trkpt>
      <trkpt lat="47.84156" lon="6.96757">
        <ele>991.4</ele>
        <time>2023-05-21T08:36:13Z</time>
      </trkpt>
      <trkpt lat="47.84135" lon="6.96825">
        <ele>988.8</ele>
        <time>2023-05-21T08:36:46Z</time>
      </trkpt>
      <trkpt lat="47.84129" lon="6.96844">
        <ele>988</ele>
        <time>2023-05-21T08:36:55Z</time>
      </trkpt>
      <trkpt lat="47.84128" lon="6.96851">
        <ele>987.4</ele>
        <time>2023-05-21T08:36:59Z</time>
      </trkpt>
      <trkpt lat="47.8413" lon="6.96899">
        <ele>980.1</ele>
        <time>2023-05-21T08:37:27Z</time>
      </trkpt>
      <trkpt lat="47.84126" lon="6.96927">
        <ele>978.5</ele>
        <time>2023-05-21T08:37:44Z</time>
      </trkpt>
      <trkpt lat="47.84125" lon="6.96938">
        <ele>977.7</ele>
        <time>2023-05-21T08:37:50Z</time>
      </trkpt>
      <trkpt lat="47.84125" lon="6.96945">
        <ele>976.9</ele>
        <time>2023-05-21T08:37:55Z</time>
      </trkpt>
      <trkpt lat="47.84122" lon="6.96967">
        <ele>976.1</ele>
        <time>2023-05-21T08:38:07Z</time>
      </trkpt>
      <trkpt lat="47.84118" lon="6.9698">
        <ele>976.2</ele>
        <time>2023-05-21T08:38:13Z</time>
      </trkpt>
      <trkpt lat="47.84115" lon="6.97046">
        <ele>971.2</ele>
        <time>2023-05-21T08:38:45Z</time>
      </trkpt>
      <trkpt lat="47.84114" lon="6.97054">
        <ele>971</ele>
        <time>2023-05-21T08:38:48Z</time>
      </trkpt>
      <trkpt lat="47.84115" lon="6.97061">
        <ele>970.2</ele>
        <time>2023-05-21T08:38:51Z</time>
      </trkpt>
      <trkpt lat="47.84113" lon="6.97084">
        <ele>970.1</ele>
        <time>2023-05-21T08:39:04Z</time>
      </trkpt>
      <trkpt lat="47.84113" lon="6.97098">
        <ele>969.6</ele>
        <time>2023-05-21T08:39:10Z</time>
      </trkpt>
      <trkpt lat="47.84111" lon="6.97105">
        <ele>970.2</ele>
        <time>2023-05-21T08:39:14Z</time>
      </trkpt>
      <trkpt lat="47.8411" lon="6.97113">
        <ele>969.9</ele>
        <time>2023-05-21T08:39:18Z</time>
      </trkpt>
      <trkpt lat="47.84111" lon="6.97121">
        <ele>969.3</ele>
        <time>2023-05-21T08:39:23Z</time>
      </trkpt>
      <trkpt lat="47.84109" lon="6.97134">
        <ele>968.6</ele>
        <time>2023-05-21T08:39:31Z</time>
      </trkpt>
      <trkpt lat="47.84106" lon="6.9714">
        <ele>968.7</ele>
        <time>2023-05-21T08:39:35Z</time>
      </trkpt>
      <trkpt lat="47.84108" lon="6.97183">
        <ele>966.1</ele>
        <time>2023-05-21T08:39:59Z</time>
      </trkpt>
      <trkpt lat="47.84109" lon="6.9719">
        <ele>965.6</ele>
        <time>2023-05-21T08:40:03Z</time>
      </trkpt>
      <trkpt lat="47.84107" lon="6.97198">
        <ele>965.8</ele>
        <time>2023-05-21T08:40:07Z</time>
      </trkpt>
      <trkpt lat="47.84107" lon="6.97214">
        <ele>965.3</ele>
        <time>2023-05-21T08:40:15Z</time>
      </trkpt>
      <trkpt lat="47.84108" lon="6.97222">
        <ele>964.8</ele>
        <time>2023-05-21T08:40:19Z</time>
      </trkpt>
      <trkpt lat="47.84109" lon="6.97229">
        <ele>964.3</ele>
        <time>2023-05-21T08:40:23Z</time>
      </trkpt>
      <trkpt lat="47.84109" lon="6.97257">
        <ele>963.9</ele>
        <time>2023-05-21T08:40:37Z</time>
      </trkpt>
      <trkpt lat="47.84109" lon="6.97264">
        <ele>964.2</ele>
        <time>2023-05-21T08:40:41Z</time>
      </trkpt>
      <trkpt lat="47.84112" lon="6.97276">
        <ele>963.4</ele>
        <time>2023-05-21T08:40:47Z</time>
      </trkpt>
      <trkpt lat="47.84113" lon="6.97282">
        <ele>963</ele>
        <time>2023-05-21T08:40:50Z</time>
      </trkpt>
      <trkpt lat="47.84113" lon="6.9729">
        <ele>963.3</ele>
        <time>2023-05-21T08:40:54Z</time>
      </trkpt>
      <trkpt lat="47.84114" lon="6.97298">
        <ele>963</ele>
        <time>2023-05-21T08:40:58Z</time>
      </trkpt>
      <trkpt lat="47.84115" lon="6.97304">
        <ele>962.6</ele>
        <time>2023-05-21T08:41:02Z</time>
      </trkpt>
      <trkpt lat="47.84115" lon="6.97311">
        <ele>962.6</ele>
        <time>2023-05-21T08:41:05Z</time>
      </trkpt>
      <trkpt lat="47.84118" lon="6.97324">
        <ele>960.9</ele>
        <time>2023-05-21T08:41:12Z</time>
      </trkpt>
      <trkpt lat="47.8412" lon="6.97334">
        <ele>959.9</ele>
        <time>2023-05-21T08:41:20Z</time>
      </trkpt>
      <trkpt lat="47.84126" lon="6.97348">
        <ele>957.5</ele>
        <time>2023-05-21T08:41:30Z</time>
      </trkpt>
      <trkpt lat="47.84126" lon="6.97356">
        <ele>958.1</ele>
        <time>2023-05-21T08:41:34Z</time>
      </trkpt>
      <trkpt lat="47.84141" lon="6.97395">
        <ele>954.5</ele>
        <time>2023-05-21T08:41:54Z</time>
      </trkpt>
      <trkpt lat="47.84142" lon="6.97402">
        <ele>954.6</ele>
        <time>2023-05-21T08:41:59Z</time>
      </trkpt>
      <trkpt lat="47.84149" lon="6.97415">
        <ele>951.7</ele>
        <time>2023-05-21T08:42:09Z</time>
      </trkpt>
      <trkpt lat="47.8415" lon="6.97431">
        <ele>953</ele>
        <time>2023-05-21T08:42:17Z</time>
      </trkpt>
      <trkpt lat="47.84152" lon="6.97438">
        <ele>952.6</ele>
        <time>2023-05-21T08:42:20Z</time>
      </trkpt>
      <trkpt lat="47.84167" lon="6.9748">
        <ele>947.6</ele>
        <time>2023-05-21T08:42:45Z</time>
      </trkpt>
      <trkpt lat="47.84168" lon="6.97495">
        <ele>948.7</ele>
        <time>2023-05-21T08:42:52Z</time>
      </trkpt>
      <trkpt lat="47.84173" lon="6.97512">
        <ele>948.2</ele>
        <time>2023-05-21T08:43:01Z</time>
      </trkpt>
      <trkpt lat="47.84176" lon="6.97516">
        <ele>947.1</ele>
        <time>2023-05-21T08:43:05Z</time>
      </trkpt>
      <trkpt lat="47.84182" lon="6.97538">
        <ele>947.4</ele>
        <time>2023-05-21T08:43:16Z</time>
      </trkpt>
      <trkpt lat="47.84185" lon="6.97544">
        <ele>946.8</ele>
        <time>2023-05-21T08:43:20Z</time>
      </trkpt>
      <trkpt lat="47.84188" lon="6.97556">
        <ele>947.3</ele>
        <time>2023-05-21T08:43:27Z</time>
      </trkpt>
      <trkpt lat="47.84198" lon="6.97573">
        <ele>944.8</ele>
        <time>2023-05-21T08:43:37Z</time>
      </trkpt>
      <trkpt lat="47.84202" lon="6.976">
        <ele>945.1</ele>
        <time>2023-05-21T08:43:50Z</time>
      </trkpt>
      <trkpt lat="47.84203" lon="6.97609">
        <ele>944.9</ele>
        <time>2023-05-21T08:43:55Z</time>
      </trkpt>
      <trkpt lat="47.842" lon="6.97623">
        <ele>946.1</ele>
        <time>2023-05-21T08:44:02Z</time>
      </trkpt>
      <trkpt lat="47.84202" lon="6.97638">
        <ele>944.4</ele>
        <time>2023-05-21T08:44:08Z</time>
      </trkpt>
      <trkpt lat="47.84198" lon="6.97653">
        <ele>944.9</ele>
        <time>2023-05-21T08:44:19Z</time>
      </trkpt>
      <trkpt lat="47.84197" lon="6.97665">
        <ele>943.8</ele>
        <time>2023-05-21T08:44:25Z</time>
      </trkpt>
      <trkpt lat="47.84201" lon="6.97671">
        <ele>941</ele>
        <time>2023-05-21T08:44:28Z</time>
      </trkpt>
      <trkpt lat="47.84201" lon="6.97686">
        <ele>939.4</ele>
        <time>2023-05-21T08:44:34Z</time>
      </trkpt>
      <trkpt lat="47.84197" lon="6.97693">
        <ele>940.8</ele>
        <time>2023-05-21T08:44:37Z</time>
      </trkpt>
      <trkpt lat="47.84194" lon="6.97698">
        <ele>941.5</ele>
        <time>2023-05-21T08:44:40Z</time>
      </trkpt>
      <trkpt lat="47.84189" lon="6.977">
        <ele>941.7</ele>
        <time>2023-05-21T08:44:47Z</time>
      </trkpt>
      <trkpt lat="47.84184" lon="6.97745">
        <ele>937.3</ele>
        <time>2023-05-21T08:45:11Z</time>
      </trkpt>
      <trkpt lat="47.84185" lon="6.97763">
        <ele>937.1</ele>
        <time>2023-05-21T08:45:20Z</time>
      </trkpt>
      <trkpt lat="47.84192" lon="6.97784">
        <ele>938.2</ele>
        <time>2023-05-21T08:45:32Z</time>
      </trkpt>
      <trkpt lat="47.84193" lon="6.97806">
        <ele>939.8</ele>
        <time>2023-05-21T08:45:43Z</time>
      </trkpt>
      <trkpt lat="47.84191" lon="6.97812">
        <ele>940.1</ele>
        <time>2023-05-21T08:45:47Z</time>
      </trkpt>
      <trkpt lat="47.84187" lon="6.97816">
        <ele>939.9</ele>
        <time>2023-05-21T08:45:52Z</time>
      </trkpt>
      <trkpt lat="47.84185" lon="6.97823">
        <ele>940.1</ele>
        <time>2023-05-21T08:45:56Z</time>
      </trkpt>
      <trkpt lat="47.84186" lon="6.9783">
        <ele>940.9</ele>
        <time>2023-05-21T08:46:00Z</time>
      </trkpt>
      <trkpt lat="47.84184" lon="6.97839">
        <ele>941.6</ele>
        <time>2023-05-21T08:46:10Z</time>
      </trkpt>
      <trkpt lat="47.84184" lon="6.97846">
        <ele>942.7</ele>
        <time>2023-05-21T08:46:14Z</time>
      </trkpt>
      <trkpt lat="47.84179" lon="6.97858">
        <ele>943.1</ele>
        <time>2023-05-21T08:46:23Z</time>
      </trkpt>
      <trkpt lat="47.84173" lon="6.97894">
        <ele>948.7</ele>
        <time>2023-05-21T08:46:48Z</time>
      </trkpt>
      <trkpt lat="47.8417" lon="6.97899">
        <ele>948.5</ele>
        <time>2023-05-21T08:46:52Z</time>
      </trkpt>
      <trkpt lat="47.84169" lon="6.97906">
        <ele>949.7</ele>
        <time>2023-05-21T08:46:57Z</time>
      </trkpt>
      <trkpt lat="47.84166" lon="6.97929">
        <ele>953.8</ele>
        <time>2023-05-21T08:47:16Z</time>
      </trkpt>
      <trkpt lat="47.84156" lon="6.97949">
        <ele>955</ele>
        <time>2023-05-21T08:47:34Z</time>
      </trkpt>
      <trkpt lat="47.84153" lon="6.97962">
        <ele>957.6</ele>
        <time>2023-05-21T08:47:45Z</time>
      </trkpt>
      <trkpt lat="47.84144" lon="6.97983">
        <ele>961.1</ele>
        <time>2023-05-21T08:48:03Z</time>
      </trkpt>
      <trkpt lat="47.84139" lon="6.97986">
        <ele>960.5</ele>
        <time>2023-05-21T08:48:07Z</time>
      </trkpt>
      <trkpt lat="47.84123" lon="6.98014">
        <ele>963.8</ele>
        <time>2023-05-21T08:48:33Z</time>
      </trkpt>
      <trkpt lat="47.84119" lon="6.98018">
        <ele>963.7</ele>
        <time>2023-05-21T08:48:38Z</time>
      </trkpt>
      <trkpt lat="47.84116" lon="6.98025">
        <ele>964.9</ele>
        <time>2023-05-21T08:48:43Z</time>
      </trkpt>
      <trkpt lat="47.84104" lon="6.98049">
        <ele>967.2</ele>
        <time>2023-05-21T08:49:03Z</time>
      </trkpt>
      <trkpt lat="47.84102" lon="6.98058">
        <ele>968.9</ele>
        <time>2023-05-21T08:49:09Z</time>
      </trkpt>
      <trkpt lat="47.84097" lon="6.98063">
        <ele>968</ele>
        <time>2023-05-21T08:49:13Z</time>
      </trkpt>
      <trkpt lat="47.84095" lon="6.98077">
        <ele>970.3</ele>
        <time>2023-05-21T08:49:21Z</time>
      </trkpt>
      <trkpt lat="47.84093" lon="6.98086">
        <ele>971.2</ele>
        <time>2023-05-21T08:49:29Z</time>
      </trkpt>
      <trkpt lat="47.84092" lon="6.98092">
        <ele>971.8</ele>
        <time>2023-05-21T08:49:34Z</time>
      </trkpt>
      <trkpt lat="47.84091" lon="6.98105">
        <ele>973.4</ele>
        <time>2023-05-21T08:49:42Z</time>
      </trkpt>
      <trkpt lat="47.84094" lon="6.9815">
        <ele>976.8</ele>
        <time>2023-05-21T08:50:11Z</time>
      </trkpt>
      <trkpt lat="47.84097" lon="6.98157">
        <ele>977.6</ele>
        <time>2023-05-21T08:50:15Z</time>
      </trkpt>
      <trkpt lat="47.84101" lon="6.98162">
        <ele>979</ele>
        <time>2023-05-21T08:50:19Z</time>
      </trkpt>
      <trkpt lat="47.84102" lon="6.9817">
        <ele>978.7</ele>
        <time>2023-05-21T08:50:24Z</time>
      </trkpt>
      <trkpt lat="47.84106" lon="6.98175">
        <ele>980.1</ele>
        <time>2023-05-21T08:50:27Z</time>
      </trkpt>
      <trkpt lat="47.84106" lon="6.98185">
        <ele>979.2</ele>
        <time>2023-05-21T08:50:34Z</time>
      </trkpt>
      <trkpt lat="47.84108" lon="6.98193">
        <ele>979.5</ele>
        <time>2023-05-21T08:50:38Z</time>
      </trkpt>
      <trkpt lat="47.8411" lon="6.98198">
        <ele>980.1</ele>
        <time>2023-05-21T08:50:42Z</time>
      </trkpt>
      <trkpt lat="47.84107" lon="6.98213">
        <ele>976.9</ele>
        <time>2023-05-21T08:50:52Z</time>
      </trkpt>
      <trkpt lat="47.84108" lon="6.98219">
        <ele>976.8</ele>
        <time>2023-05-21T08:50:57Z</time>
      </trkpt>
      <trkpt lat="47.84111" lon="6.98224">
        <ele>977.8</ele>
        <time>2023-05-21T08:51:00Z</time>
      </trkpt>
      <trkpt lat="47.84113" lon="6.98232">
        <ele>978.2</ele>
        <time>2023-05-21T08:51:03Z</time>
      </trkpt>
      <trkpt lat="47.84112" lon="6.98241">
        <ele>977.1</ele>
        <time>2023-05-21T08:51:09Z</time>
      </trkpt>
      <trkpt lat="47.84114" lon="6.98247">
        <ele>977.7</ele>
        <time>2023-05-21T08:51:13Z</time>
      </trkpt>
      <trkpt lat="47.84113" lon="6.98254">
        <ele>977</ele>
        <time>2023-05-21T08:51:17Z</time>
      </trkpt>
      <trkpt lat="47.84111" lon="6.98268">
        <ele>975.9</ele>
        <time>2023-05-21T08:51:25Z</time>
      </trkpt>
      <trkpt lat="47.8411" lon="6.98282">
        <ele>975.6</ele>
        <time>2023-05-21T08:51:33Z</time>
      </trkpt>
      <trkpt lat="47.84111" lon="6.98289">
        <ele>976.4</ele>
        <time>2023-05-21T08:51:37Z</time>
      </trkpt>
      <trkpt lat="47.84111" lon="6.98304">
        <ele>976.9</ele>
        <time>2023-05-21T08:51:45Z</time>
      </trkpt>
      <trkpt lat="47.8411" lon="6.98312">
        <ele>976.5</ele>
        <time>2023-05-21T08:51:48Z</time>
      </trkpt>
      <trkpt lat="47.8411" lon="6.9832">
        <ele>976.5</ele>
        <time>2023-05-21T08:51:53Z</time>
      </trkpt>
      <trkpt lat="47.8411" lon="6.98326">
        <ele>976.5</ele>
        <time>2023-05-21T08:51:56Z</time>
      </trkpt>
      <trkpt lat="47.8411" lon="6.98334">
        <ele>976.4</ele>
        <time>2023-05-21T08:52:01Z</time>
      </trkpt>
      <trkpt lat="47.84112" lon="6.9834">
        <ele>977.5</ele>
        <time>2023-05-21T08:52:05Z</time>
      </trkpt>
      <trkpt lat="47.84112" lon="6.98347">
        <ele>977.5</ele>
        <time>2023-05-21T08:52:09Z</time>
      </trkpt>
      <trkpt lat="47.84115" lon="6.98386">
        <ele>978.7</ele>
        <time>2023-05-21T08:52:33Z</time>
      </trkpt>
      <trkpt lat="47.84119" lon="6.98395">
        <ele>978.5</ele>
        <time>2023-05-21T08:52:41Z</time>
      </trkpt>
      <trkpt lat="47.84122" lon="6.98406">
        <ele>976.1</ele>
        <time>2023-05-21T08:52:50Z</time>
      </trkpt>
      <trkpt lat="47.84136" lon="6.98419">
        <ele>976.3</ele>
        <time>2023-05-21T08:53:03Z</time>
      </trkpt>
      <trkpt lat="47.84148" lon="6.98436">
        <ele>976</ele>
        <time>2023-05-21T08:53:17Z</time>
      </trkpt>
      <trkpt lat="47.84156" lon="6.98462">
        <ele>973.8</ele>
        <time>2023-05-21T08:53:32Z</time>
      </trkpt>
      <trkpt lat="47.84156" lon="6.98476">
        <ele>971.8</ele>
        <time>2023-05-21T08:53:40Z</time>
      </trkpt>
      <trkpt lat="47.84156" lon="6.98483">
        <ele>971.6</ele>
        <time>2023-05-21T08:53:43Z</time>
      </trkpt>
      <trkpt lat="47.84159" lon="6.98544">
        <ele>974.4</ele>
        <time>2023-05-21T08:54:14Z</time>
      </trkpt>
      <trkpt lat="47.84157" lon="6.98563">
        <ele>975.5</ele>
        <time>2023-05-21T08:54:25Z</time>
      </trkpt>
      <trkpt lat="47.84155" lon="6.9857">
        <ele>975.9</ele>
        <time>2023-05-21T08:54:28Z</time>
      </trkpt>
      <trkpt lat="47.84153" lon="6.98576">
        <ele>976.1</ele>
        <time>2023-05-21T08:54:32Z</time>
      </trkpt>
      <trkpt lat="47.84144" lon="6.98591">
        <ele>976.5</ele>
        <time>2023-05-21T08:54:44Z</time>
      </trkpt>
      <trkpt lat="47.84139" lon="6.98594">
        <ele>975.5</ele>
        <time>2023-05-21T08:54:48Z</time>
      </trkpt>
      <trkpt lat="47.84132" lon="6.98604">
        <ele>976.1</ele>
        <time>2023-05-21T08:54:56Z</time>
      </trkpt>
      <trkpt lat="47.84116" lon="6.98631">
        <ele>976.4</ele>
        <time>2023-05-21T08:55:16Z</time>
      </trkpt>
      <trkpt lat="47.84103" lon="6.98662">
        <ele>975.2</ele>
        <time>2023-05-21T08:55:36Z</time>
      </trkpt>
      <trkpt lat="47.841" lon="6.98676">
        <ele>975.5</ele>
        <time>2023-05-21T08:55:44Z</time>
      </trkpt>
      <trkpt lat="47.84096" lon="6.98694">
        <ele>975.2</ele>
        <time>2023-05-21T08:55:53Z</time>
      </trkpt>
      <trkpt lat="47.84095" lon="6.98702">
        <ele>975.6</ele>
        <time>2023-05-21T08:55:57Z</time>
      </trkpt>
      <trkpt lat="47.84093" lon="6.98708">
        <ele>975.2</ele>
        <time>2023-05-21T08:56:01Z</time>
      </trkpt>
      <trkpt lat="47.8409" lon="6.98754">
        <ele>977.7</ele>
        <time>2023-05-21T08:56:27Z</time>
      </trkpt>
      <trkpt lat="47.84086" lon="6.98769">
        <ele>977.3</ele>
        <time>2023-05-21T08:56:35Z</time>
      </trkpt>
      <trkpt lat="47.84086" lon="6.98782">
        <ele>978.6</ele>
        <time>2023-05-21T08:56:43Z</time>
      </trkpt>
      <trkpt lat="47.84083" lon="6.98802">
        <ele>979.5</ele>
        <time>2023-05-21T08:56:55Z</time>
      </trkpt>
      <trkpt lat="47.84072" lon="6.98826">
        <ele>980.1</ele>
        <time>2023-05-21T08:57:10Z</time>
      </trkpt>
      <trkpt lat="47.84066" lon="6.98837">
        <ele>981</ele>
        <time>2023-05-21T08:57:18Z</time>
      </trkpt>
      <trkpt lat="47.8406" lon="6.98839">
        <ele>980.4</ele>
        <time>2023-05-21T08:57:22Z</time>
      </trkpt>
      <trkpt lat="47.84052" lon="6.98845">
        <ele>980.3</ele>
        <time>2023-05-21T08:57:29Z</time>
      </trkpt>
      <trkpt lat="47.84048" lon="6.98847">
        <ele>980.3</ele>
        <time>2023-05-21T08:57:33Z</time>
      </trkpt>
      <trkpt lat="47.84041" lon="6.98856">
        <ele>981.5</ele>
        <time>2023-05-21T08:57:40Z</time>
      </trkpt>
      <trkpt lat="47.84034" lon="6.98863">
        <ele>982.3</ele>
        <time>2023-05-21T08:58:04Z</time>
      </trkpt>
      <trkpt lat="47.84032" lon="6.98867">
        <ele>982.4</ele>
        <time>2023-05-21T08:58:15Z</time>
      </trkpt>
      <trkpt lat="47.84028" lon="6.98871">
        <ele>982.4</ele>
        <time>2023-05-21T08:59:30Z</time>
      </trkpt>
      <trkpt lat="47.84028" lon="6.98909">
        <ele>982.3</ele>
        <time>2023-05-21T09:00:10Z</time>
      </trkpt>
      <trkpt lat="47.84028" lon="6.98911">
        <ele>982.2</ele>
        <time>2023-05-21T09:00:11Z</time>
      </trkpt>
      <trkpt lat="47.84017" lon="6.98921">
        <ele>982.3</ele>
        <time>2023-05-21T09:00:27Z</time>
      </trkpt>
      <trkpt lat="47.83995" lon="6.98927">
        <ele>983</ele>
        <time>2023-05-21T09:00:47Z</time>
      </trkpt>
      <trkpt lat="47.83961" lon="6.98934">
        <ele>985</ele>
        <time>2023-05-21T09:01:20Z</time>
      </trkpt>
      <trkpt lat="47.83941" lon="6.9894">
        <ele>986.1</ele>
        <time>2023-05-21T09:01:40Z</time>
      </trkpt>
      <trkpt lat="47.83903" lon="6.98937">
        <ele>988.3</ele>
        <time>2023-05-21T09:02:13Z</time>
      </trkpt>
      <trkpt lat="47.8389" lon="6.98939">
        <ele>989.1</ele>
        <time>2023-05-21T09:02:25Z</time>
      </trkpt>
      <trkpt lat="47.83871" lon="6.9895">
        <ele>991.8</ele>
        <time>2023-05-21T09:02:44Z</time>
      </trkpt>
      <trkpt lat="47.83867" lon="6.98954">
        <ele>992.3</ele>
        <time>2023-05-21T09:02:48Z</time>
      </trkpt>
      <trkpt lat="47.83861" lon="6.98961">
        <ele>992.8</ele>
        <time>2023-05-21T09:02:55Z</time>
      </trkpt>
      <trkpt lat="47.83858" lon="6.98964">
        <ele>993</ele>
        <time>2023-05-21T09:02:59Z</time>
      </trkpt>
      <trkpt lat="47.83831" lon="6.98978">
        <ele>995.3</ele>
        <time>2023-05-21T09:03:26Z</time>
      </trkpt>
      <trkpt lat="47.83821" lon="6.98976">
        <ele>995.9</ele>
        <time>2023-05-21T09:03:34Z</time>
      </trkpt>
      <trkpt lat="47.8381" lon="6.9897">
        <ele>997.1</ele>
        <time>2023-05-21T09:03:56Z</time>
      </trkpt>
      <trkpt lat="47.838" lon="6.98962">
        <ele>998.5</ele>
        <time>2023-05-21T09:04:06Z</time>
      </trkpt>
      <trkpt lat="47.83786" lon="6.98956">
        <ele>999.3</ele>
        <time>2023-05-21T09:04:19Z</time>
      </trkpt>
      <trkpt lat="47.83772" lon="6.98946">
        <ele>1000.8</ele>
        <time>2023-05-21T09:04:35Z</time>
      </trkpt>
      <trkpt lat="47.83747" lon="6.98939">
        <ele>1002</ele>
        <time>2023-05-21T09:04:57Z</time>
      </trkpt>
      <trkpt lat="47.8373" lon="6.98943">
        <ele>1004</ele>
        <time>2023-05-21T09:05:17Z</time>
      </trkpt>
      <trkpt lat="47.83697" lon="6.98958">
        <ele>1006.3</ele>
        <time>2023-05-21T09:05:49Z</time>
      </trkpt>
      <trkpt lat="47.83676" lon="6.98969">
        <ele>1008.6</ele>
        <time>2023-05-21T09:06:10Z</time>
      </trkpt>
      <trkpt lat="47.83672" lon="6.98972">
        <ele>1009.1</ele>
        <time>2023-05-21T09:06:14Z</time>
      </trkpt>
      <trkpt lat="47.83668" lon="6.98974">
        <ele>1009.6</ele>
        <time>2023-05-21T09:06:28Z</time>
      </trkpt>
      <trkpt lat="47.83662" lon="6.98979">
        <ele>1010</ele>
        <time>2023-05-21T09:06:33Z</time>
      </trkpt>
      <trkpt lat="47.83649" lon="6.99">
        <ele>1010.8</ele>
        <time>2023-05-21T09:06:48Z</time>
      </trkpt>
      <trkpt lat="47.83647" lon="6.99006">
        <ele>1011</ele>
        <time>2023-05-21T09:06:51Z</time>
      </trkpt>
      <trkpt lat="47.8363" lon="6.9905">
        <ele>1014.3</ele>
        <time>2023-05-21T09:07:23Z</time>
      </trkpt>
      <trkpt lat="47.83622" lon="6.99068">
        <ele>1015.1</ele>
        <time>2023-05-21T09:07:37Z</time>
      </trkpt>
      <trkpt lat="47.83615" lon="6.99078">
        <ele>1015.7</ele>
        <time>2023-05-21T09:07:45Z</time>
      </trkpt>
      <trkpt lat="47.83594" lon="6.99098">
        <ele>1017.8</ele>
        <time>2023-05-21T09:08:08Z</time>
      </trkpt>
      <trkpt lat="47.83591" lon="6.99102">
        <ele>1018.1</ele>
        <time>2023-05-21T09:08:12Z</time>
      </trkpt>
      <trkpt lat="47.83581" lon="6.9911">
        <ele>1019.5</ele>
        <time>2023-05-21T09:08:23Z</time>
      </trkpt>
      <trkpt lat="47.83577" lon="6.99115">
        <ele>1019.7</ele>
        <time>2023-05-21T09:08:27Z</time>
      </trkpt>
      <trkpt lat="47.83569" lon="6.99123">
        <ele>1020.3</ele>
        <time>2023-05-21T09:08:35Z</time>
      </trkpt>
      <trkpt lat="47.83565" lon="6.99124">
        <ele>1020.9</ele>
        <time>2023-05-21T09:08:39Z</time>
      </trkpt>
      <trkpt lat="47.83547" lon="6.99145">
        <ele>1022.3</ele>
        <time>2023-05-21T09:09:01Z</time>
      </trkpt>
      <trkpt lat="47.8354" lon="6.99156">
        <ele>1023.2</ele>
        <time>2023-05-21T09:09:09Z</time>
      </trkpt>
      <trkpt lat="47.83532" lon="6.99189">
        <ele>1025.3</ele>
        <time>2023-05-21T09:09:34Z</time>
      </trkpt>
      <trkpt lat="47.83527" lon="6.99217">
        <ele>1026.3</ele>
        <time>2023-05-21T09:09:52Z</time>
      </trkpt>
      <trkpt lat="47.83525" lon="6.99223">
        <ele>1026.4</ele>
        <time>2023-05-21T09:09:56Z</time>
      </trkpt>
      <trkpt lat="47.83519" lon="6.99233">
        <ele>1026.8</ele>
        <time>2023-05-21T09:10:05Z</time>
      </trkpt>
      <trkpt lat="47.8351" lon="6.99237">
        <ele>1027.7</ele>
        <time>2023-05-21T09:10:13Z</time>
      </trkpt>
      <trkpt lat="47.835" lon="6.99239">
        <ele>1028.8</ele>
        <time>2023-05-21T09:10:21Z</time>
      </trkpt>
      <trkpt lat="47.83486" lon="6.99238">
        <ele>1029.2</ele>
        <time>2023-05-21T09:10:33Z</time>
      </trkpt>
      <trkpt lat="47.83482" lon="6.9924">
        <ele>1029.1</ele>
        <time>2023-05-21T09:10:37Z</time>
      </trkpt>
      <trkpt lat="47.83478" lon="6.99243">
        <ele>1029.1</ele>
        <time>2023-05-21T09:10:41Z</time>
      </trkpt>
      <trkpt lat="47.83474" lon="6.99256">
        <ele>1029.1</ele>
        <time>2023-05-21T09:10:48Z</time>
      </trkpt>
      <trkpt lat="47.83473" lon="6.99262">
        <ele>1029.4</ele>
        <time>2023-05-21T09:10:52Z</time>
      </trkpt>
      <trkpt lat="47.83476" lon="6.99309">
        <ele>1031.7</ele>
        <time>2023-05-21T09:11:21Z</time>
      </trkpt>
      <trkpt lat="47.8347" lon="6.99363">
        <ele>1034.6</ele>
        <time>2023-05-21T09:11:52Z</time>
      </trkpt>
      <trkpt lat="47.83463" lon="6.99397">
        <ele>1036.5</ele>
        <time>2023-05-21T09:12:12Z</time>
      </trkpt>
      <trkpt lat="47.8346" lon="6.99404">
        <ele>1036.6</ele>
        <time>2023-05-21T09:12:17Z</time>
      </trkpt>
      <trkpt lat="47.83457" lon="6.99409">
        <ele>1036.8</ele>
        <time>2023-05-21T09:12:21Z</time>
      </trkpt>
      <trkpt lat="47.8345" lon="6.99416">
        <ele>1037.3</ele>
        <time>2023-05-21T09:12:29Z</time>
      </trkpt>
      <trkpt lat="47.83441" lon="6.99416">
        <ele>1038.6</ele>
        <time>2023-05-21T09:12:36Z</time>
      </trkpt>
      <trkpt lat="47.83436" lon="6.99419">
        <ele>1038.3</ele>
        <time>2023-05-21T09:12:40Z</time>
      </trkpt>
      <trkpt lat="47.83427" lon="6.9942">
        <ele>1039.3</ele>
        <time>2023-05-21T09:12:48Z</time>
      </trkpt>
      <trkpt lat="47.8341" lon="6.99427">
        <ele>1039.4</ele>
        <time>2023-05-21T09:13:05Z</time>
      </trkpt>
      <trkpt lat="47.83388" lon="6.99425">
        <ele>1043.4</ele>
        <time>2023-05-21T09:13:25Z</time>
      </trkpt>
      <trkpt lat="47.83376" lon="6.99437">
        <ele>1043.4</ele>
        <time>2023-05-21T09:13:36Z</time>
      </trkpt>
      <trkpt lat="47.83369" lon="6.99446">
        <ele>1043</ele>
        <time>2023-05-21T09:13:44Z</time>
      </trkpt>
      <trkpt lat="47.83347" lon="6.99459">
        <ele>1045.7</ele>
        <time>2023-05-21T09:14:04Z</time>
      </trkpt>
      <trkpt lat="47.83336" lon="6.9947">
        <ele>1046.7</ele>
        <time>2023-05-21T09:14:17Z</time>
      </trkpt>
      <trkpt lat="47.83332" lon="6.99477">
        <ele>1046.4</ele>
        <time>2023-05-21T09:14:22Z</time>
      </trkpt>
      <trkpt lat="47.83326" lon="6.9948">
        <ele>1046.9</ele>
        <time>2023-05-21T09:14:28Z</time>
      </trkpt>
      <trkpt lat="47.83309" lon="6.99492">
        <ele>1047.8</ele>
        <time>2023-05-21T09:14:43Z</time>
      </trkpt>
      <trkpt lat="47.833" lon="6.99495">
        <ele>1049.1</ele>
        <time>2023-05-21T09:14:52Z</time>
      </trkpt>
      <trkpt lat="47.83266" lon="6.99517">
        <ele>1051.7</ele>
        <time>2023-05-21T09:15:25Z</time>
      </trkpt>
      <trkpt lat="47.83247" lon="6.99532">
        <ele>1053.1</ele>
        <time>2023-05-21T09:15:43Z</time>
      </trkpt>
      <trkpt lat="47.83232" lon="6.99551">
        <ele>1054.5</ele>
        <time>2023-05-21T09:16:00Z</time>
      </trkpt>
      <trkpt lat="47.83228" lon="6.99557">
        <ele>1055</ele>
        <time>2023-05-21T09:16:05Z</time>
      </trkpt>
      <trkpt lat="47.83218" lon="6.9959">
        <ele>1055.7</ele>
        <time>2023-05-21T09:16:26Z</time>
      </trkpt>
      <trkpt lat="47.83208" lon="6.99608">
        <ele>1056.9</ele>
        <time>2023-05-21T09:16:38Z</time>
      </trkpt>
      <trkpt lat="47.832" lon="6.99617">
        <ele>1058</ele>
        <time>2023-05-21T09:16:48Z</time>
      </trkpt>
      <trkpt lat="47.83177" lon="6.99661">
        <ele>1059.2</ele>
        <time>2023-05-21T09:17:20Z</time>
      </trkpt>
      <trkpt lat="47.83173" lon="6.99672">
        <ele>1060.2</ele>
        <time>2023-05-21T09:17:28Z</time>
      </trkpt>
      <trkpt lat="47.83169" lon="6.99687">
        <ele>1062</ele>
        <time>2023-05-21T09:17:40Z</time>
      </trkpt>
      <trkpt lat="47.83165" lon="6.997">
        <ele>1063.9</ele>
        <time>2023-05-21T09:17:49Z</time>
      </trkpt>
      <trkpt lat="47.83168" lon="6.99712">
        <ele>1065.9</ele>
        <time>2023-05-21T09:17:59Z</time>
      </trkpt>
      <trkpt lat="47.83174" lon="6.99724">
        <ele>1066.6</ele>
        <time>2023-05-21T09:18:10Z</time>
      </trkpt>
      <trkpt lat="47.83186" lon="6.99767">
        <ele>1072.8</ele>
        <time>2023-05-21T09:18:46Z</time>
      </trkpt>
      <trkpt lat="47.83186" lon="6.99776">
        <ele>1074.9</ele>
        <time>2023-05-21T09:18:54Z</time>
      </trkpt>
      <trkpt lat="47.83184" lon="6.99782">
        <ele>1076.9</ele>
        <time>2023-05-21T09:18:59Z</time>
      </trkpt>
      <trkpt lat="47.83186" lon="6.99795">
        <ele>1077.7</ele>
        <time>2023-05-21T09:19:13Z</time>
      </trkpt>
      <trkpt lat="47.83185" lon="6.99802">
        <ele>1079.3</ele>
        <time>2023-05-21T09:19:19Z</time>
      </trkpt>
      <trkpt lat="47.83181" lon="6.99813">
        <ele>1082.2</ele>
        <time>2023-05-21T09:19:32Z</time>
      </trkpt>
      <trkpt lat="47.83175" lon="6.99829">
        <ele>1085.6</ele>
        <time>2023-05-21T09:19:50Z</time>
      </trkpt>
      <trkpt lat="47.8317" lon="6.99837">
        <ele>1087.7</ele>
        <time>2023-05-21T09:20:00Z</time>
      </trkpt>
      <trkpt lat="47.83165" lon="6.99841">
        <ele>1089.3</ele>
        <time>2023-05-21T09:20:04Z</time>
      </trkpt>
      <trkpt lat="47.83156" lon="6.99859">
        <ele>1090.4</ele>
        <time>2023-05-21T09:20:20Z</time>
      </trkpt>
      <trkpt lat="47.83151" lon="6.99863">
        <ele>1092.1</ele>
        <time>2023-05-21T09:20:27Z</time>
      </trkpt>
      <trkpt lat="47.83136" lon="6.99901">
        <ele>1095.9</ele>
        <time>2023-05-21T09:20:59Z</time>
      </trkpt>
      <trkpt lat="47.83133" lon="6.99906">
        <ele>1096.5</ele>
        <time>2023-05-21T09:21:03Z</time>
      </trkpt>
      <trkpt lat="47.83129" lon="6.9991">
        <ele>1097.6</ele>
        <time>2023-05-21T09:21:08Z</time>
      </trkpt>
      <trkpt lat="47.83117" lon="6.99935">
        <ele>1101.7</ele>
        <time>2023-05-21T09:21:26Z</time>
      </trkpt>
      <trkpt lat="47.83114" lon="6.9994">
        <ele>1102.9</ele>
        <time>2023-05-21T09:21:32Z</time>
      </trkpt>
      <trkpt lat="47.83111" lon="6.99947">
        <ele>1104.3</ele>
        <time>2023-05-21T09:21:40Z</time>
      </trkpt>
      <trkpt lat="47.83111" lon="6.99954">
        <ele>1105</ele>
        <time>2023-05-21T09:21:45Z</time>
      </trkpt>
      <trkpt lat="47.83101" lon="6.99983">
        <ele>1108.5</ele>
        <time>2023-05-21T09:22:16Z</time>
      </trkpt>
      <trkpt lat="47.83103" lon="6.99993">
        <ele>1110.6</ele>
        <time>2023-05-21T09:22:23Z</time>
      </trkpt>
      <trkpt lat="47.83098" lon="7">
        <ele>1112</ele>
        <time>2023-05-21T09:22:30Z</time>
      </trkpt>
      <trkpt lat="47.83096" lon="7.00007">
        <ele>1113.8</ele>
        <time>2023-05-21T09:22:44Z</time>
      </trkpt>
      <trkpt lat="47.83091" lon="7.00023">
        <ele>1118.2</ele>
        <time>2023-05-21T09:23:01Z</time>
      </trkpt>
      <trkpt lat="47.83094" lon="7.00029">
        <ele>1119.6</ele>
        <time>2023-05-21T09:23:08Z</time>
      </trkpt>
      <trkpt lat="47.83094" lon="7.00036">
        <ele>1121.4</ele>
        <time>2023-05-21T09:23:20Z</time>
      </trkpt>
      <trkpt lat="47.83098" lon="7.00045">
        <ele>1122.9</ele>
        <time>2023-05-21T09:23:31Z</time>
      </trkpt>
      <trkpt lat="47.83099" lon="7.00052">
        <ele>1124.1</ele>
        <time>2023-05-21T09:23:39Z</time>
      </trkpt>
      <trkpt lat="47.83097" lon="7.00058">
        <ele>1125.8</ele>
        <time>2023-05-21T09:23:57Z</time>
      </trkpt>
      <trkpt lat="47.83097" lon="7.00059">
        <ele>1125.8</ele>
        <time>2023-05-21T09:24:24Z</time>
      </trkpt>
      <trkpt lat="47.83098" lon="7.00069">
        <ele>1126.1</ele>
        <time>2023-05-21T09:24:42Z</time>
      </trkpt>
      <trkpt lat="47.83096" lon="7.00099">
        <ele>1128</ele>
        <time>2023-05-21T09:25:01Z</time>
      </trkpt>
      <trkpt lat="47.83087" lon="7.00136">
        <ele>1132.3</ele>
        <time>2023-05-21T09:25:23Z</time>
      </trkpt>
      <trkpt lat="47.83082" lon="7.00135">
        <ele>1135.9</ele>
        <time>2023-05-21T09:25:29Z</time>
      </trkpt>
      <trkpt lat="47.83083" lon="7.00157">
        <ele>1134.5</ele>
        <time>2023-05-21T09:25:53Z</time>
      </trkpt>
      <trkpt lat="47.83078" lon="7.00167">
        <ele>1136.9</ele>
        <time>2023-05-21T09:26:05Z</time>
      </trkpt>
      <trkpt lat="47.83073" lon="7.0018">
        <ele>1139.7</ele>
        <time>2023-05-21T09:26:17Z</time>
      </trkpt>
      <trkpt lat="47.83069" lon="7.00184">
        <ele>1141.7</ele>
        <time>2023-05-21T09:26:21Z</time>
      </trkpt>
      <trkpt lat="47.83065" lon="7.00191">
        <ele>1143.6</ele>
        <time>2023-05-21T09:26:29Z</time>
      </trkpt>
      <trkpt lat="47.83062" lon="7.00181">
        <ele>1145.2</ele>
        <time>2023-05-21T09:26:39Z</time>
      </trkpt>
      <trkpt lat="47.83053" lon="7.00144">
        <ele>1151.4</ele>
        <time>2023-05-21T09:27:07Z</time>
      </trkpt>
      <trkpt lat="47.83051" lon="7.00116">
        <ele>1152.5</ele>
        <time>2023-05-21T09:27:29Z</time>
      </trkpt>
      <trkpt lat="47.83044" lon="7.00126">
        <ele>1153.1</ele>
        <time>2023-05-21T09:27:45Z</time>
      </trkpt>
      <trkpt lat="47.83037" lon="7.00137">
        <ele>1156</ele>
        <time>2023-05-21T09:27:58Z</time>
      </trkpt>
      <trkpt lat="47.83033" lon="7.00132">
        <ele>1155.8</ele>
        <time>2023-05-21T09:28:04Z</time>
      </trkpt>
      <trkpt lat="47.83036" lon="7.00122">
        <ele>1153.1</ele>
        <time>2023-05-21T09:28:16Z</time>
      </trkpt>
      <trkpt lat="47.83035" lon="7.00115">
        <ele>1151.6</ele>
        <time>2023-05-21T09:28:26Z</time>
      </trkpt>
      <trkpt lat="47.83027" lon="7.00159">
        <ele>1159.1</ele>
        <time>2023-05-21T09:31:41Z</time>
      </trkpt>
      <trkpt lat="47.83026" lon="7.00161">
        <ele>1159.3</ele>
        <time>2023-05-21T09:31:42Z</time>
      </trkpt>
      <trkpt lat="47.83023" lon="7.00171">
        <ele>1159.7</ele>
        <time>2023-05-21T09:31:49Z</time>
      </trkpt>
      <trkpt lat="47.83017" lon="7.00181">
        <ele>1160.4</ele>
        <time>2023-05-21T09:31:57Z</time>
      </trkpt>
      <trkpt lat="47.83016" lon="7.00187">
        <ele>1160.4</ele>
        <time>2023-05-21T09:32:02Z</time>
      </trkpt>
      <trkpt lat="47.83012" lon="7.00193">
        <ele>1160.9</ele>
        <time>2023-05-21T09:32:07Z</time>
      </trkpt>
      <trkpt lat="47.83005" lon="7.00202">
        <ele>1161.8</ele>
        <time>2023-05-21T09:32:16Z</time>
      </trkpt>
      <trkpt lat="47.83001" lon="7.00208">
        <ele>1162.3</ele>
        <time>2023-05-21T09:32:20Z</time>
      </trkpt>
      <trkpt lat="47.82999" lon="7.00213">
        <ele>1162.2</ele>
        <time>2023-05-21T09:32:24Z</time>
      </trkpt>
      <trkpt lat="47.82989" lon="7.00229">
        <ele>1161</ele>
        <time>2023-05-21T09:32:36Z</time>
      </trkpt>
      <trkpt lat="47.82983" lon="7.0024">
        <ele>1160.7</ele>
        <time>2023-05-21T09:32:43Z</time>
      </trkpt>
      <trkpt lat="47.82975" lon="7.00254">
        <ele>1160.9</ele>
        <time>2023-05-21T09:32:56Z</time>
      </trkpt>
      <trkpt lat="47.82955" lon="7.00302">
        <ele>1162.7</ele>
        <time>2023-05-21T09:33:27Z</time>
      </trkpt>
      <trkpt lat="47.82951" lon="7.00307">
        <ele>1163.3</ele>
        <time>2023-05-21T09:33:31Z</time>
      </trkpt>
      <trkpt lat="47.82933" lon="7.00354">
        <ele>1166.3</ele>
        <time>2023-05-21T09:34:05Z</time>
      </trkpt>
      <trkpt lat="47.82915" lon="7.00399">
        <ele>1170.8</ele>
        <time>2023-05-21T09:34:39Z</time>
      </trkpt>
      <trkpt lat="47.82912" lon="7.00412">
        <ele>1172</ele>
        <time>2023-05-21T09:34:47Z</time>
      </trkpt>
      <trkpt lat="47.82908" lon="7.00423">
        <ele>1173.2</ele>
        <time>2023-05-21T09:34:55Z</time>
      </trkpt>
      <trkpt lat="47.82904" lon="7.00439">
        <ele>1175.3</ele>
        <time>2023-05-21T09:35:09Z</time>
      </trkpt>
      <trkpt lat="47.82899" lon="7.00448">
        <ele>1176.8</ele>
        <time>2023-05-21T09:35:21Z</time>
      </trkpt>
      <trkpt lat="47.82895" lon="7.00449">
        <ele>1177.4</ele>
        <time>2023-05-21T09:35:27Z</time>
      </trkpt>
      <trkpt lat="47.82891" lon="7.00456">
        <ele>1178.2</ele>
        <time>2023-05-21T09:35:39Z</time>
      </trkpt>
      <trkpt lat="47.82882" lon="7.00464">
        <ele>1178.2</ele>
        <time>2023-05-21T09:36:13Z</time>
      </trkpt>
      <trkpt lat="47.82878" lon="7.00468">
        <ele>1178.1</ele>
        <time>2023-05-21T09:36:17Z</time>
      </trkpt>
      <trkpt lat="47.82869" lon="7.00475">
        <ele>1177.4</ele>
        <time>2023-05-21T09:36:24Z</time>
      </trkpt>
      <trkpt lat="47.82836" lon="7.00507">
        <ele>1172.7</ele>
        <time>2023-05-21T09:36:56Z</time>
      </trkpt>
      <trkpt lat="47.82832" lon="7.00511">
        <ele>1172.2</ele>
        <time>2023-05-21T09:36:59Z</time>
      </trkpt>
      <trkpt lat="47.82807" lon="7.00535">
        <ele>1169.2</ele>
        <time>2023-05-21T09:37:21Z</time>
      </trkpt>
      <trkpt lat="47.828" lon="7.00545">
        <ele>1168.5</ele>
        <time>2023-05-21T09:37:29Z</time>
      </trkpt>
      <trkpt lat="47.82796" lon="7.00549">
        <ele>1168.3</ele>
        <time>2023-05-21T09:37:33Z</time>
      </trkpt>
      <trkpt lat="47.82779" lon="7.00561">
        <ele>1168.3</ele>
        <time>2023-05-21T09:37:47Z</time>
      </trkpt>
      <trkpt lat="47.82748" lon="7.0059">
        <ele>1168.3</ele>
        <time>2023-05-21T09:38:15Z</time>
      </trkpt>
      <trkpt lat="47.82744" lon="7.00592">
        <ele>1168.1</ele>
        <time>2023-05-21T09:38:19Z</time>
      </trkpt>
      <trkpt lat="47.82737" lon="7.00601">
        <ele>1167.4</ele>
        <time>2023-05-21T09:38:26Z</time>
      </trkpt>
      <trkpt lat="47.82733" lon="7.00602">
        <ele>1167.4</ele>
        <time>2023-05-21T09:38:30Z</time>
      </trkpt>
      <trkpt lat="47.82728" lon="7.00607">
        <ele>1167.1</ele>
        <time>2023-05-21T09:38:35Z</time>
      </trkpt>
      <trkpt lat="47.82695" lon="7.00623">
        <ele>1164.3</ele>
        <time>2023-05-21T09:39:05Z</time>
      </trkpt>
      <trkpt lat="47.82681" lon="7.00627">
        <ele>1163.3</ele>
        <time>2023-05-21T09:39:18Z</time>
      </trkpt>
      <trkpt lat="47.82674" lon="7.0063">
        <ele>1162.8</ele>
        <time>2023-05-21T09:39:28Z</time>
      </trkpt>
      <trkpt lat="47.82659" lon="7.0065">
        <ele>1160.5</ele>
        <time>2023-05-21T09:39:45Z</time>
      </trkpt>
      <trkpt lat="47.82655" lon="7.00653">
        <ele>1160.2</ele>
        <time>2023-05-21T09:39:49Z</time>
      </trkpt>
      <trkpt lat="47.82645" lon="7.00667">
        <ele>1158.7</ele>
        <time>2023-05-21T09:40:00Z</time>
      </trkpt>
      <trkpt lat="47.82641" lon="7.0067">
        <ele>1158.4</ele>
        <time>2023-05-21T09:40:04Z</time>
      </trkpt>
      <trkpt lat="47.82614" lon="7.00706">
        <ele>1154.7</ele>
        <time>2023-05-21T09:40:37Z</time>
      </trkpt>
      <trkpt lat="47.82583" lon="7.00741">
        <ele>1152</ele>
        <time>2023-05-21T09:41:07Z</time>
      </trkpt>
      <trkpt lat="47.82557" lon="7.00784">
        <ele>1150.4</ele>
        <time>2023-05-21T09:41:39Z</time>
      </trkpt>
      <trkpt lat="47.82531" lon="7.00818">
        <ele>1148.6</ele>
        <time>2023-05-21T09:42:07Z</time>
      </trkpt>
      <trkpt lat="47.82527" lon="7.00822">
        <ele>1148.3</ele>
        <time>2023-05-21T09:42:11Z</time>
      </trkpt>
      <trkpt lat="47.82495" lon="7.00855">
        <ele>1146.6</ele>
        <time>2023-05-21T09:42:43Z</time>
      </trkpt>
      <trkpt lat="47.82487" lon="7.00863">
        <ele>1146.3</ele>
        <time>2023-05-21T09:42:51Z</time>
      </trkpt>
      <trkpt lat="47.8246" lon="7.00904">
        <ele>1144.1</ele>
        <time>2023-05-21T09:43:22Z</time>
      </trkpt>
      <trkpt lat="47.8244" lon="7.00935">
        <ele>1142.1</ele>
        <time>2023-05-21T09:43:44Z</time>
      </trkpt>
      <trkpt lat="47.82435" lon="7.00924">
        <ele>1143.3</ele>
        <time>2023-05-21T09:44:07Z</time>
      </trkpt>
      <trkpt lat="47.82432" lon="7.00912">
        <ele>1144.3</ele>
        <time>2023-05-21T09:44:19Z</time>
      </trkpt>
      <trkpt lat="47.82429" lon="7.00904">
        <ele>1144.9</ele>
        <time>2023-05-21T09:44:25Z</time>
      </trkpt>
      <trkpt lat="47.82424" lon="7.00888">
        <ele>1146.1</ele>
        <time>2023-05-21T09:44:37Z</time>
      </trkpt>
      <trkpt lat="47.82415" lon="7.00873">
        <ele>1147.3</ele>
        <time>2023-05-21T09:44:50Z</time>
      </trkpt>
      <trkpt lat="47.82415" lon="7.00851">
        <ele>1148.8</ele>
        <time>2023-05-21T09:45:03Z</time>
      </trkpt>
      <trkpt lat="47.82415" lon="7.00836">
        <ele>1149.9</ele>
        <time>2023-05-21T09:45:12Z</time>
      </trkpt>
      <trkpt lat="47.82414" lon="7.00814">
        <ele>1150.8</ele>
        <time>2023-05-21T09:45:26Z</time>
      </trkpt>
      <trkpt lat="47.82415" lon="7.00808">
        <ele>1151</ele>
        <time>2023-05-21T09:45:30Z</time>
      </trkpt>
      <trkpt lat="47.82416" lon="7.00793">
        <ele>1151</ele>
        <time>2023-05-21T09:45:39Z</time>
      </trkpt>
      <trkpt lat="47.82417" lon="7.00786">
        <ele>1151</ele>
        <time>2023-05-21T09:45:43Z</time>
      </trkpt>
      <trkpt lat="47.82417" lon="7.00778">
        <ele>1151</ele>
        <time>2023-05-21T09:45:47Z</time>
      </trkpt>
      <trkpt lat="47.82414" lon="7.00771">
        <ele>1150.5</ele>
        <time>2023-05-21T09:45:55Z</time>
      </trkpt>
      <trkpt lat="47.8241" lon="7.00773">
        <ele>1150.7</ele>
        <time>2023-05-21T09:46:01Z</time>
      </trkpt>
      <trkpt lat="47.82399" lon="7.00778">
        <ele>1151</ele>
        <time>2023-05-21T09:46:09Z</time>
      </trkpt>
      <trkpt lat="47.8237" lon="7.00794">
        <ele>1152.9</ele>
        <time>2023-05-21T09:46:39Z</time>
      </trkpt>
      <trkpt lat="47.82363" lon="7.00795">
        <ele>1153.5</ele>
        <time>2023-05-21T09:46:46Z</time>
      </trkpt>
      <trkpt lat="47.82358" lon="7.00797">
        <ele>1153.7</ele>
        <time>2023-05-21T09:46:51Z</time>
      </trkpt>
      <trkpt lat="47.82353" lon="7.00801">
        <ele>1153.8</ele>
        <time>2023-05-21T09:46:57Z</time>
      </trkpt>
      <trkpt lat="47.82348" lon="7.00805">
        <ele>1154</ele>
        <time>2023-05-21T09:47:01Z</time>
      </trkpt>
      <trkpt lat="47.82343" lon="7.00809">
        <ele>1154</ele>
        <time>2023-05-21T09:47:05Z</time>
      </trkpt>
      <trkpt lat="47.8233" lon="7.00817">
        <ele>1154.3</ele>
        <time>2023-05-21T09:47:18Z</time>
      </trkpt>
      <trkpt lat="47.82322" lon="7.00823">
        <ele>1155.3</ele>
        <time>2023-05-21T09:47:27Z</time>
      </trkpt>
      <trkpt lat="47.82305" lon="7.0083">
        <ele>1157.9</ele>
        <time>2023-05-21T09:47:48Z</time>
      </trkpt>
      <trkpt lat="47.82302" lon="7.00834">
        <ele>1158.7</ele>
        <time>2023-05-21T09:47:52Z</time>
      </trkpt>
      <trkpt lat="47.82293" lon="7.00839">
        <ele>1160.6</ele>
        <time>2023-05-21T09:48:03Z</time>
      </trkpt>
      <trkpt lat="47.82284" lon="7.00842">
        <ele>1162.4</ele>
        <time>2023-05-21T09:48:16Z</time>
      </trkpt>
      <trkpt lat="47.82277" lon="7.00849">
        <ele>1164.3</ele>
        <time>2023-05-21T09:48:28Z</time>
      </trkpt>
      <trkpt lat="47.82252" lon="7.00862">
        <ele>1168.7</ele>
        <time>2023-05-21T09:49:00Z</time>
      </trkpt>
      <trkpt lat="47.82222" lon="7.00878">
        <ele>1174</ele>
        <time>2023-05-21T09:49:32Z</time>
      </trkpt>
      <trkpt lat="47.82193" lon="7.00892">
        <ele>1180.3</ele>
        <time>2023-05-21T09:50:05Z</time>
      </trkpt>
      <trkpt lat="47.82188" lon="7.00894">
        <ele>1181.1</ele>
        <time>2023-05-21T09:50:13Z</time>
      </trkpt>
      <trkpt lat="47.82183" lon="7.00899">
        <ele>1182</ele>
        <time>2023-05-21T09:50:18Z</time>
      </trkpt>
      <trkpt lat="47.82176" lon="7.00899">
        <ele>1183</ele>
        <time>2023-05-21T09:50:33Z</time>
      </trkpt>
      <trkpt lat="47.82165" lon="7.00904">
        <ele>1184.7</ele>
        <time>2023-05-21T09:50:46Z</time>
      </trkpt>
      <trkpt lat="47.8216" lon="7.00905">
        <ele>1185.2</ele>
        <time>2023-05-21T09:50:50Z</time>
      </trkpt>
      <trkpt lat="47.82128" lon="7.00916">
        <ele>1188.7</ele>
        <time>2023-05-21T09:51:21Z</time>
      </trkpt>
      <trkpt lat="47.82096" lon="7.00929">
        <ele>1190.2</ele>
        <time>2023-05-21T09:51:54Z</time>
      </trkpt>
      <trkpt lat="47.82092" lon="7.0093">
        <ele>1190.1</ele>
        <time>2023-05-21T09:52:43Z</time>
      </trkpt>
      <trkpt lat="47.82067" lon="7.00913">
        <ele>1189.4</ele>
        <time>2023-05-21T09:56:42Z</time>
      </trkpt>
      <trkpt lat="47.82046" lon="7.00898">
        <ele>1189</ele>
        <time>2023-05-21T09:57:04Z</time>
      </trkpt>
      <trkpt lat="47.82041" lon="7.00895">
        <ele>1188.9</ele>
        <time>2023-05-21T09:57:09Z</time>
      </trkpt>
      <trkpt lat="47.82036" lon="7.00892">
        <ele>1188.9</ele>
        <time>2023-05-21T09:57:13Z</time>
      </trkpt>
      <trkpt lat="47.82033" lon="7.00888">
        <ele>1189.1</ele>
        <time>2023-05-21T09:57:21Z</time>
      </trkpt>
      <trkpt lat="47.8203" lon="7.00891">
        <ele>1188.8</ele>
        <time>2023-05-21T09:57:39Z</time>
      </trkpt>
      <trkpt lat="47.82023" lon="7.00895">
        <ele>1187.2</ele>
        <time>2023-05-21T09:58:31Z</time>
      </trkpt>
      <trkpt lat="47.82015" lon="7.00898">
        <ele>1185.4</ele>
        <time>2023-05-21T09:58:41Z</time>
      </trkpt>
      <trkpt lat="47.82003" lon="7.00911">
        <ele>1182.6</ele>
        <time>2023-05-21T09:58:53Z</time>
      </trkpt>
      <trkpt lat="47.81999" lon="7.00917">
        <ele>1182</ele>
        <time>2023-05-21T09:58:57Z</time>
      </trkpt>
      <trkpt lat="47.81995" lon="7.00929">
        <ele>1181.4</ele>
        <time>2023-05-21T09:59:05Z</time>
      </trkpt>
      <trkpt lat="47.81996" lon="7.00942">
        <ele>1180.9</ele>
        <time>2023-05-21T09:59:13Z</time>
      </trkpt>
      <trkpt lat="47.81997" lon="7.00952">
        <ele>1180.4</ele>
        <time>2023-05-21T09:59:23Z</time>
      </trkpt>
      <trkpt lat="47.81997" lon="7.00966">
        <ele>1179.4</ele>
        <time>2023-05-21T09:59:31Z</time>
      </trkpt>
      <trkpt lat="47.81999" lon="7.0098">
        <ele>1178.4</ele>
        <time>2023-05-21T09:59:39Z</time>
      </trkpt>
      <trkpt lat="47.82" lon="7.00987">
        <ele>1177.9</ele>
        <time>2023-05-21T09:59:43Z</time>
      </trkpt>
      <trkpt lat="47.82" lon="7.00993">
        <ele>1177.5</ele>
        <time>2023-05-21T09:59:46Z</time>
      </trkpt>
      <trkpt lat="47.82003" lon="7.01009">
        <ele>1176.5</ele>
        <time>2023-05-21T09:59:54Z</time>
      </trkpt>
      <trkpt lat="47.82008" lon="7.01029">
        <ele>1175.2</ele>
        <time>2023-05-21T10:00:06Z</time>
      </trkpt>
      <trkpt lat="47.82009" lon="7.01039">
        <ele>1174.1</ele>
        <time>2023-05-21T10:00:13Z</time>
      </trkpt>
      <trkpt lat="47.82011" lon="7.01046">
        <ele>1173.4</ele>
        <time>2023-05-21T10:00:17Z</time>
      </trkpt>
      <trkpt lat="47.82024" lon="7.01085">
        <ele>1168.4</ele>
        <time>2023-05-21T10:00:44Z</time>
      </trkpt>
      <trkpt lat="47.82034" lon="7.01101">
        <ele>1167.1</ele>
        <time>2023-05-21T10:00:56Z</time>
      </trkpt>
      <trkpt lat="47.82036" lon="7.01107">
        <ele>1166.5</ele>
        <time>2023-05-21T10:01:00Z</time>
      </trkpt>
      <trkpt lat="47.82047" lon="7.0112">
        <ele>1165.3</ele>
        <time>2023-05-21T10:01:12Z</time>
      </trkpt>
      <trkpt lat="47.82057" lon="7.01135">
        <ele>1163.9</ele>
        <time>2023-05-21T10:01:24Z</time>
      </trkpt>
      <trkpt lat="47.82076" lon="7.01157">
        <ele>1162.5</ele>
        <time>2023-05-21T10:01:46Z</time>
      </trkpt>
      <trkpt lat="47.82079" lon="7.01163">
        <ele>1161.9</ele>
        <time>2023-05-21T10:01:52Z</time>
      </trkpt>
      <trkpt lat="47.82081" lon="7.01169">
        <ele>1161</ele>
        <time>2023-05-21T10:01:55Z</time>
      </trkpt>
      <trkpt lat="47.82112" lon="7.01204">
        <ele>1156.4</ele>
        <time>2023-05-21T10:02:29Z</time>
      </trkpt>
      <trkpt lat="47.82116" lon="7.01208">
        <ele>1155.9</ele>
        <time>2023-05-21T10:02:32Z</time>
      </trkpt>
      <trkpt lat="47.82124" lon="7.01215">
        <ele>1155.3</ele>
        <time>2023-05-21T10:02:40Z</time>
      </trkpt>
      <trkpt lat="47.82133" lon="7.01224">
        <ele>1154.5</ele>
        <time>2023-05-21T10:02:48Z</time>
      </trkpt>
      <trkpt lat="47.82143" lon="7.01242">
        <ele>1152</ele>
        <time>2023-05-21T10:03:00Z</time>
      </trkpt>
      <trkpt lat="47.82155" lon="7.01253">
        <ele>1150.5</ele>
        <time>2023-05-21T10:03:12Z</time>
      </trkpt>
      <trkpt lat="47.82158" lon="7.01259">
        <ele>1149.6</ele>
        <time>2023-05-21T10:03:16Z</time>
      </trkpt>
      <trkpt lat="47.82162" lon="7.01263">
        <ele>1149.2</ele>
        <time>2023-05-21T10:03:21Z</time>
      </trkpt>
      <trkpt lat="47.82165" lon="7.01268">
        <ele>1148.6</ele>
        <time>2023-05-21T10:03:25Z</time>
      </trkpt>
      <trkpt lat="47.82173" lon="7.01277">
        <ele>1147.1</ele>
        <time>2023-05-21T10:03:34Z</time>
      </trkpt>
      <trkpt lat="47.82176" lon="7.01282">
        <ele>1146.1</ele>
        <time>2023-05-21T10:03:38Z</time>
      </trkpt>
      <trkpt lat="47.82178" lon="7.01289">
        <ele>1144.7</ele>
        <time>2023-05-21T10:03:43Z</time>
      </trkpt>
      <trkpt lat="47.82193" lon="7.01314">
        <ele>1140.1</ele>
        <time>2023-05-21T10:04:04Z</time>
      </trkpt>
      <trkpt lat="47.82195" lon="7.01321">
        <ele>1138.6</ele>
        <time>2023-05-21T10:04:09Z</time>
      </trkpt>
      <trkpt lat="47.8221" lon="7.01345">
        <ele>1133.4</ele>
        <time>2023-05-21T10:04:31Z</time>
      </trkpt>
      <trkpt lat="47.8222" lon="7.01374">
        <ele>1128.6</ele>
        <time>2023-05-21T10:04:52Z</time>
      </trkpt>
      <trkpt lat="47.82223" lon="7.0143">
        <ele>1120.1</ele>
        <time>2023-05-21T10:05:24Z</time>
      </trkpt>
      <trkpt lat="47.82228" lon="7.01458">
        <ele>1116.3</ele>
        <time>2023-05-21T10:05:40Z</time>
      </trkpt>
      <trkpt lat="47.8223" lon="7.01465">
        <ele>1115.5</ele>
        <time>2023-05-21T10:05:44Z</time>
      </trkpt>
      <trkpt lat="47.82233" lon="7.01478">
        <ele>1114.2</ele>
        <time>2023-05-21T10:05:52Z</time>
      </trkpt>
      <trkpt lat="47.82231" lon="7.01536">
        <ele>1110.2</ele>
        <time>2023-05-21T10:06:24Z</time>
      </trkpt>
      <trkpt lat="47.82232" lon="7.01597">
        <ele>1108.3</ele>
        <time>2023-05-21T10:06:55Z</time>
      </trkpt>
      <trkpt lat="47.82232" lon="7.01613">
        <ele>1108</ele>
        <time>2023-05-21T10:07:03Z</time>
      </trkpt>
      <trkpt lat="47.82232" lon="7.01673">
        <ele>1108.5</ele>
        <time>2023-05-21T10:07:34Z</time>
      </trkpt>
      <trkpt lat="47.82234" lon="7.0173">
        <ele>1108.2</ele>
        <time>2023-05-21T10:08:07Z</time>
      </trkpt>
      <trkpt lat="47.82235" lon="7.0174">
        <ele>1108.3</ele>
        <time>2023-05-21T10:08:15Z</time>
      </trkpt>
      <trkpt lat="47.8224" lon="7.01768">
        <ele>1108.5</ele>
        <time>2023-05-21T10:08:30Z</time>
      </trkpt>
      <trkpt lat="47.82241" lon="7.01774">
        <ele>1108.6</ele>
        <time>2023-05-21T10:08:34Z</time>
      </trkpt>
      <trkpt lat="47.82246" lon="7.01794">
        <ele>1108.3</ele>
        <time>2023-05-21T10:08:46Z</time>
      </trkpt>
      <trkpt lat="47.82246" lon="7.01808">
        <ele>1107.8</ele>
        <time>2023-05-21T10:08:53Z</time>
      </trkpt>
      <trkpt lat="47.82252" lon="7.01845">
        <ele>1106.5</ele>
        <time>2023-05-21T10:09:13Z</time>
      </trkpt>
      <trkpt lat="47.82253" lon="7.01853">
        <ele>1106.3</ele>
        <time>2023-05-21T10:09:17Z</time>
      </trkpt>
      <trkpt lat="47.82256" lon="7.01876">
        <ele>1105.9</ele>
        <time>2023-05-21T10:09:29Z</time>
      </trkpt>
      <trkpt lat="47.82256" lon="7.01884">
        <ele>1105.8</ele>
        <time>2023-05-21T10:09:33Z</time>
      </trkpt>
      <trkpt lat="47.82258" lon="7.01906">
        <ele>1105.3</ele>
        <time>2023-05-21T10:09:44Z</time>
      </trkpt>
      <trkpt lat="47.8226" lon="7.01913">
        <ele>1105.1</ele>
        <time>2023-05-21T10:09:48Z</time>
      </trkpt>
      <trkpt lat="47.82264" lon="7.01939">
        <ele>1104.2</ele>
        <time>2023-05-21T10:10:03Z</time>
      </trkpt>
      <trkpt lat="47.82269" lon="7.01942">
        <ele>1104.1</ele>
        <time>2023-05-21T10:10:11Z</time>
      </trkpt>
      <trkpt lat="47.82267" lon="7.0195">
        <ele>1103.9</ele>
        <time>2023-05-21T10:10:16Z</time>
      </trkpt>
      <trkpt lat="47.82271" lon="7.01979">
        <ele>1103.7</ele>
        <time>2023-05-21T10:10:32Z</time>
      </trkpt>
      <trkpt lat="47.82274" lon="7.01986">
        <ele>1103.8</ele>
        <time>2023-05-21T10:10:36Z</time>
      </trkpt>
      <trkpt lat="47.82277" lon="7.01991">
        <ele>1104</ele>
        <time>2023-05-21T10:10:40Z</time>
      </trkpt>
      <trkpt lat="47.82273" lon="7.01997">
        <ele>1103.7</ele>
        <time>2023-05-21T10:10:48Z</time>
      </trkpt>
      <trkpt lat="47.82252" lon="7.02017">
        <ele>1102.1</ele>
        <time>2023-05-21T10:11:09Z</time>
      </trkpt>
      <trkpt lat="47.82236" lon="7.02028">
        <ele>1100</ele>
        <time>2023-05-21T10:11:25Z</time>
      </trkpt>
      <trkpt lat="47.82228" lon="7.02036">
        <ele>1098.5</ele>
        <time>2023-05-21T10:11:33Z</time>
      </trkpt>
      <trkpt lat="47.82225" lon="7.02041">
        <ele>1097.9</ele>
        <time>2023-05-21T10:11:37Z</time>
      </trkpt>
      <trkpt lat="47.82205" lon="7.02093">
        <ele>1093.9</ele>
        <time>2023-05-21T10:12:09Z</time>
      </trkpt>
      <trkpt lat="47.82183" lon="7.02145">
        <ele>1090.2</ele>
        <time>2023-05-21T10:12:41Z</time>
      </trkpt>
      <trkpt lat="47.82164" lon="7.02196">
        <ele>1086.4</ele>
        <time>2023-05-21T10:13:13Z</time>
      </trkpt>
      <trkpt lat="47.82157" lon="7.02216">
        <ele>1085.3</ele>
        <time>2023-05-21T10:13:25Z</time>
      </trkpt>
      <trkpt lat="47.82132" lon="7.02261">
        <ele>1082.5</ele>
        <time>2023-05-21T10:13:56Z</time>
      </trkpt>
      <trkpt lat="47.82128" lon="7.02265">
        <ele>1081.9</ele>
        <time>2023-05-21T10:14:00Z</time>
      </trkpt>
      <trkpt lat="47.82104" lon="7.02311">
        <ele>1081</ele>
        <time>2023-05-21T10:14:31Z</time>
      </trkpt>
      <trkpt lat="47.82087" lon="7.02339">
        <ele>1080.9</ele>
        <time>2023-05-21T10:14:50Z</time>
      </trkpt>
      <trkpt lat="47.82082" lon="7.02343">
        <ele>1080.3</ele>
        <time>2023-05-21T10:14:55Z</time>
      </trkpt>
      <trkpt lat="47.82073" lon="7.0236">
        <ele>1080.5</ele>
        <time>2023-05-21T10:15:08Z</time>
      </trkpt>
      <trkpt lat="47.82061" lon="7.0237">
        <ele>1078</ele>
        <time>2023-05-21T10:15:21Z</time>
      </trkpt>
      <trkpt lat="47.82033" lon="7.0241">
        <ele>1075.3</ele>
        <time>2023-05-21T10:15:50Z</time>
      </trkpt>
      <trkpt lat="47.81996" lon="7.02434">
        <ele>1073.4</ele>
        <time>2023-05-21T10:16:21Z</time>
      </trkpt>
      <trkpt lat="47.8196" lon="7.02454">
        <ele>1069.5</ele>
        <time>2023-05-21T10:16:53Z</time>
      </trkpt>
      <trkpt lat="47.81928" lon="7.02474">
        <ele>1067.5</ele>
        <time>2023-05-21T10:17:20Z</time>
      </trkpt>
      <trkpt lat="47.81919" lon="7.02477">
        <ele>1066.6</ele>
        <time>2023-05-21T10:17:28Z</time>
      </trkpt>
      <trkpt lat="47.81905" lon="7.02488">
        <ele>1068</ele>
        <time>2023-05-21T10:17:38Z</time>
      </trkpt>
      <trkpt lat="47.81903" lon="7.02481">
        <ele>1065.9</ele>
        <time>2023-05-21T10:17:42Z</time>
      </trkpt>
      <trkpt lat="47.81897" lon="7.0248">
        <ele>1065</ele>
        <time>2023-05-21T10:17:51Z</time>
      </trkpt>
      <trkpt lat="47.81893" lon="7.0248">
        <ele>1064.6</ele>
        <time>2023-05-21T10:17:55Z</time>
      </trkpt>
      <trkpt lat="47.81888" lon="7.02478">
        <ele>1063.6</ele>
        <time>2023-05-21T10:18:00Z</time>
      </trkpt>
      <trkpt lat="47.81878" lon="7.02479">
        <ele>1063.6</ele>
        <time>2023-05-21T10:18:12Z</time>
      </trkpt>
      <trkpt lat="47.81872" lon="7.02479">
        <ele>1063.3</ele>
        <time>2023-05-21T10:18:15Z</time>
      </trkpt>
      <trkpt lat="47.81867" lon="7.02478">
        <ele>1062.9</ele>
        <time>2023-05-21T10:18:20Z</time>
      </trkpt>
      <trkpt lat="47.81847" lon="7.02472">
        <ele>1059.9</ele>
        <time>2023-05-21T10:18:34Z</time>
      </trkpt>
      <trkpt lat="47.81843" lon="7.02468">
        <ele>1058.3</ele>
        <time>2023-05-21T10:18:39Z</time>
      </trkpt>
      <trkpt lat="47.81833" lon="7.02468">
        <ele>1057.6</ele>
        <time>2023-05-21T10:18:47Z</time>
      </trkpt>
      <trkpt lat="47.81822" lon="7.02456">
        <ele>1052.7</ele>
        <time>2023-05-21T10:18:58Z</time>
      </trkpt>
      <trkpt lat="47.81807" lon="7.0245">
        <ele>1049.1</ele>
        <time>2023-05-21T10:19:12Z</time>
      </trkpt>
      <trkpt lat="47.81796" lon="7.02452">
        <ele>1048.3</ele>
        <time>2023-05-21T10:19:20Z</time>
      </trkpt>
      <trkpt lat="47.81785" lon="7.02454">
        <ele>1047.2</ele>
        <time>2023-05-21T10:19:31Z</time>
      </trkpt>
      <trkpt lat="47.8178" lon="7.02452">
        <ele>1045.8</ele>
        <time>2023-05-21T10:19:35Z</time>
      </trkpt>
      <trkpt lat="47.81776" lon="7.02452">
        <ele>1045</ele>
        <time>2023-05-21T10:19:39Z</time>
      </trkpt>
      <trkpt lat="47.81772" lon="7.02452">
        <ele>1044.1</ele>
        <time>2023-05-21T10:19:44Z</time>
      </trkpt>
      <trkpt lat="47.81762" lon="7.02454">
        <ele>1042.5</ele>
        <time>2023-05-21T10:19:51Z</time>
      </trkpt>
      <trkpt lat="47.81758" lon="7.02459">
        <ele>1043.1</ele>
        <time>2023-05-21T10:20:01Z</time>
      </trkpt>
      <trkpt lat="47.81755" lon="7.02464">
        <ele>1043.8</ele>
        <time>2023-05-21T10:20:04Z</time>
      </trkpt>
      <trkpt lat="47.8175" lon="7.02463">
        <ele>1042.3</ele>
        <time>2023-05-21T10:20:07Z</time>
      </trkpt>
      <trkpt lat="47.81746" lon="7.02466">
        <ele>1042.2</ele>
        <time>2023-05-21T10:20:11Z</time>
      </trkpt>
      <trkpt lat="47.81741" lon="7.02467">
        <ele>1041.2</ele>
        <time>2023-05-21T10:20:14Z</time>
      </trkpt>
      <trkpt lat="47.81736" lon="7.02466">
        <ele>1039.6</ele>
        <time>2023-05-21T10:20:18Z</time>
      </trkpt>
      <trkpt lat="47.81731" lon="7.02467">
        <ele>1038.6</ele>
        <time>2023-05-21T10:20:21Z</time>
      </trkpt>
      <trkpt lat="47.81726" lon="7.02464">
        <ele>1036.3</ele>
        <time>2023-05-21T10:20:24Z</time>
      </trkpt>
      <trkpt lat="47.81721" lon="7.02465">
        <ele>1035.4</ele>
        <time>2023-05-21T10:20:27Z</time>
      </trkpt>
      <trkpt lat="47.81707" lon="7.02476">
        <ele>1035.7</ele>
        <time>2023-05-21T10:20:37Z</time>
      </trkpt>
      <trkpt lat="47.81697" lon="7.02472">
        <ele>1032.5</ele>
        <time>2023-05-21T10:20:45Z</time>
      </trkpt>
      <trkpt lat="47.81694" lon="7.02476">
        <ele>1033</ele>
        <time>2023-05-21T10:20:51Z</time>
      </trkpt>
      <trkpt lat="47.81684" lon="7.02475">
        <ele>1030.2</ele>
        <time>2023-05-21T10:20:57Z</time>
      </trkpt>
      <trkpt lat="47.81678" lon="7.02472">
        <ele>1027.8</ele>
        <time>2023-05-21T10:21:01Z</time>
      </trkpt>
      <trkpt lat="47.81666" lon="7.02474">
        <ele>1025.3</ele>
        <time>2023-05-21T10:21:15Z</time>
      </trkpt>
      <trkpt lat="47.81662" lon="7.02479">
        <ele>1025.6</ele>
        <time>2023-05-21T10:21:19Z</time>
      </trkpt>
      <trkpt lat="47.81657" lon="7.02481">
        <ele>1024.7</ele>
        <time>2023-05-21T10:21:26Z</time>
      </trkpt>
      <trkpt lat="47.81647" lon="7.02474">
        <ele>1019.8</ele>
        <time>2023-05-21T10:21:34Z</time>
      </trkpt>
      <trkpt lat="47.81642" lon="7.02474">
        <ele>1018.4</ele>
        <time>2023-05-21T10:21:38Z</time>
      </trkpt>
      <trkpt lat="47.81638" lon="7.02475">
        <ele>1017.5</ele>
        <time>2023-05-21T10:21:43Z</time>
      </trkpt>
      <trkpt lat="47.81633" lon="7.02478">
        <ele>1016.7</ele>
        <time>2023-05-21T10:21:47Z</time>
      </trkpt>
      <trkpt lat="47.81628" lon="7.02479">
        <ele>1015.2</ele>
        <time>2023-05-21T10:21:50Z</time>
      </trkpt>
      <trkpt lat="47.81625" lon="7.02487">
        <ele>1016.2</ele>
        <time>2023-05-21T10:21:59Z</time>
      </trkpt>
      <trkpt lat="47.8161" lon="7.02501">
        <ele>1013.7</ele>
        <time>2023-05-21T10:22:13Z</time>
      </trkpt>
      <trkpt lat="47.81607" lon="7.02508">
        <ele>1013.7</ele>
        <time>2023-05-21T10:22:16Z</time>
      </trkpt>
      <trkpt lat="47.81603" lon="7.02512">
        <ele>1012.8</ele>
        <time>2023-05-21T10:22:20Z</time>
      </trkpt>
      <trkpt lat="47.81596" lon="7.02522">
        <ele>1011.9</ele>
        <time>2023-05-21T10:22:27Z</time>
      </trkpt>
      <trkpt lat="47.81586" lon="7.02532">
        <ele>1009.6</ele>
        <time>2023-05-21T10:22:39Z</time>
      </trkpt>
      <trkpt lat="47.81572" lon="7.02539">
        <ele>1005.3</ele>
        <time>2023-05-21T10:22:55Z</time>
      </trkpt>
      <trkpt lat="47.81548" lon="7.02571">
        <ele>1000.7</ele>
        <time>2023-05-21T10:23:22Z</time>
      </trkpt>
      <trkpt lat="47.81543" lon="7.02571">
        <ele>998.7</ele>
        <time>2023-05-21T10:23:26Z</time>
      </trkpt>
      <trkpt lat="47.81538" lon="7.02575">
        <ele>997.4</ele>
        <time>2023-05-21T10:23:32Z</time>
      </trkpt>
      <trkpt lat="47.81533" lon="7.02581">
        <ele>996.5</ele>
        <time>2023-05-21T10:23:39Z</time>
      </trkpt>
      <trkpt lat="47.81529" lon="7.02583">
        <ele>995.4</ele>
        <time>2023-05-21T10:23:43Z</time>
      </trkpt>
      <trkpt lat="47.81526" lon="7.02589">
        <ele>994.7</ele>
        <time>2023-05-21T10:23:48Z</time>
      </trkpt>
      <trkpt lat="47.81524" lon="7.02597">
        <ele>994.4</ele>
        <time>2023-05-21T10:23:52Z</time>
      </trkpt>
      <trkpt lat="47.81511" lon="7.0261">
        <ele>990.3</ele>
        <time>2023-05-21T10:24:09Z</time>
      </trkpt>
      <trkpt lat="47.81506" lon="7.02624">
        <ele>988.3</ele>
        <time>2023-05-21T10:24:19Z</time>
      </trkpt>
      <trkpt lat="47.81498" lon="7.02632">
        <ele>985.2</ele>
        <time>2023-05-21T10:24:26Z</time>
      </trkpt>
      <trkpt lat="47.81498" lon="7.02648">
        <ele>984.2</ele>
        <time>2023-05-21T10:24:35Z</time>
      </trkpt>
      <trkpt lat="47.81497" lon="7.02656">
        <ele>983</ele>
        <time>2023-05-21T10:24:39Z</time>
      </trkpt>
      <trkpt lat="47.81493" lon="7.02661">
        <ele>980.8</ele>
        <time>2023-05-21T10:24:43Z</time>
      </trkpt>
      <trkpt lat="47.81493" lon="7.02667">
        <ele>980.2</ele>
        <time>2023-05-21T10:24:48Z</time>
      </trkpt>
      <trkpt lat="47.81496" lon="7.02673">
        <ele>980.1</ele>
        <time>2023-05-21T10:24:54Z</time>
      </trkpt>
      <trkpt lat="47.81498" lon="7.02682">
        <ele>978.9</ele>
        <time>2023-05-21T10:25:04Z</time>
      </trkpt>
      <trkpt lat="47.815" lon="7.02689">
        <ele>978.2</ele>
        <time>2023-05-21T10:25:10Z</time>
      </trkpt>
      <trkpt lat="47.81508" lon="7.02704">
        <ele>977.5</ele>
        <time>2023-05-21T10:25:22Z</time>
      </trkpt>
      <trkpt lat="47.81526" lon="7.02746">
        <ele>973.3</ele>
        <time>2023-05-21T10:25:49Z</time>
      </trkpt>
      <trkpt lat="47.81524" lon="7.02752">
        <ele>970.9</ele>
        <time>2023-05-21T10:25:52Z</time>
      </trkpt>
      <trkpt lat="47.81535" lon="7.02772">
        <ele>969.1</ele>
        <time>2023-05-21T10:26:09Z</time>
      </trkpt>
      <trkpt lat="47.81542" lon="7.02783">
        <ele>967.9</ele>
        <time>2023-05-21T10:26:17Z</time>
      </trkpt>
      <trkpt lat="47.81546" lon="7.02778">
        <ele>970.8</ele>
        <time>2023-05-21T10:26:22Z</time>
      </trkpt>
      <trkpt lat="47.81554" lon="7.02783">
        <ele>971.8</ele>
        <time>2023-05-21T10:26:25Z</time>
      </trkpt>
      <trkpt lat="47.81552" lon="7.02792">
        <ele>968.2</ele>
        <time>2023-05-21T10:26:29Z</time>
      </trkpt>
      <trkpt lat="47.81555" lon="7.028">
        <ele>966.6</ele>
        <time>2023-05-21T10:26:32Z</time>
      </trkpt>
      <trkpt lat="47.81553" lon="7.02807">
        <ele>963.7</ele>
        <time>2023-05-21T10:26:34Z</time>
      </trkpt>
      <trkpt lat="47.81556" lon="7.02812">
        <ele>962.8</ele>
        <time>2023-05-21T10:26:37Z</time>
      </trkpt>
      <trkpt lat="47.81561" lon="7.02818">
        <ele>962</ele>
        <time>2023-05-21T10:26:42Z</time>
      </trkpt>
      <trkpt lat="47.81567" lon="7.02814">
        <ele>965.3</ele>
        <time>2023-05-21T10:26:46Z</time>
      </trkpt>
      <trkpt lat="47.81574" lon="7.02828">
        <ele>961.3</ele>
        <time>2023-05-21T10:26:56Z</time>
      </trkpt>
      <trkpt lat="47.81594" lon="7.02844">
        <ele>959.6</ele>
        <time>2023-05-21T10:27:19Z</time>
      </trkpt>
      <trkpt lat="47.81597" lon="7.02851">
        <ele>957.6</ele>
        <time>2023-05-21T10:27:23Z</time>
      </trkpt>
      <trkpt lat="47.81608" lon="7.02865">
        <ele>955.6</ele>
        <time>2023-05-21T10:27:39Z</time>
      </trkpt>
      <trkpt lat="47.81613" lon="7.02877">
        <ele>952.9</ele>
        <time>2023-05-21T10:27:44Z</time>
      </trkpt>
      <trkpt lat="47.81619" lon="7.02883">
        <ele>952.5</ele>
        <time>2023-05-21T10:27:50Z</time>
      </trkpt>
      <trkpt lat="47.81636" lon="7.0289">
        <ele>954.8</ele>
        <time>2023-05-21T10:28:04Z</time>
      </trkpt>
      <trkpt lat="47.81634" lon="7.02922">
        <ele>945.9</ele>
        <time>2023-05-21T10:28:20Z</time>
      </trkpt>
      <trkpt lat="47.81641" lon="7.02923">
        <ele>949.5</ele>
        <time>2023-05-21T10:28:30Z</time>
      </trkpt>
      <trkpt lat="47.81642" lon="7.02937">
        <ele>950.7</ele>
        <time>2023-05-21T10:28:44Z</time>
      </trkpt>
      <trkpt lat="47.81642" lon="7.02945">
        <ele>951</ele>
        <time>2023-05-21T10:28:46Z</time>
      </trkpt>
      <trkpt lat="47.81638" lon="7.02954">
        <ele>948.8</ele>
        <time>2023-05-21T10:28:55Z</time>
      </trkpt>
      <trkpt lat="47.81627" lon="7.02955">
        <ele>941.7</ele>
        <time>2023-05-21T10:28:59Z</time>
      </trkpt>
      <trkpt lat="47.81633" lon="7.0297">
        <ele>946.1</ele>
        <time>2023-05-21T10:29:05Z</time>
      </trkpt>
      <trkpt lat="47.81627" lon="7.02984">
        <ele>943.1</ele>
        <time>2023-05-21T10:29:14Z</time>
      </trkpt>
      <trkpt lat="47.81626" lon="7.02999">
        <ele>943.6</ele>
        <time>2023-05-21T10:29:27Z</time>
      </trkpt>
      <trkpt lat="47.81618" lon="7.03015">
        <ele>939.3</ele>
        <time>2023-05-21T10:29:41Z</time>
      </trkpt>
      <trkpt lat="47.81617" lon="7.03029">
        <ele>939.4</ele>
        <time>2023-05-21T10:29:46Z</time>
      </trkpt>
      <trkpt lat="47.81615" lon="7.03034">
        <ele>938.4</ele>
        <time>2023-05-21T10:29:51Z</time>
      </trkpt>
      <trkpt lat="47.81611" lon="7.03039">
        <ele>936.3</ele>
        <time>2023-05-21T10:29:53Z</time>
      </trkpt>
      <trkpt lat="47.81604" lon="7.03046">
        <ele>932.5</ele>
        <time>2023-05-21T10:30:00Z</time>
      </trkpt>
      <trkpt lat="47.81601" lon="7.03051">
        <ele>931</ele>
        <time>2023-05-21T10:30:06Z</time>
      </trkpt>
      <trkpt lat="47.81598" lon="7.03071">
        <ele>929.7</ele>
        <time>2023-05-21T10:30:14Z</time>
      </trkpt>
      <trkpt lat="47.8159" lon="7.03106">
        <ele>926.9</ele>
        <time>2023-05-21T10:30:36Z</time>
      </trkpt>
      <trkpt lat="47.81585" lon="7.03111">
        <ele>924.8</ele>
        <time>2023-05-21T10:30:41Z</time>
      </trkpt>
      <trkpt lat="47.81581" lon="7.0312">
        <ele>923.5</ele>
        <time>2023-05-21T10:30:46Z</time>
      </trkpt>
      <trkpt lat="47.81579" lon="7.03128">
        <ele>923.2</ele>
        <time>2023-05-21T10:30:49Z</time>
      </trkpt>
      <trkpt lat="47.81574" lon="7.03137">
        <ele>921.5</ele>
        <time>2023-05-21T10:30:52Z</time>
      </trkpt>
      <trkpt lat="47.81572" lon="7.03143">
        <ele>921.1</ele>
        <time>2023-05-21T10:30:54Z</time>
      </trkpt>
      <trkpt lat="47.81564" lon="7.03149">
        <ele>918.2</ele>
        <time>2023-05-21T10:31:01Z</time>
      </trkpt>
      <trkpt lat="47.81564" lon="7.03159">
        <ele>919.4</ele>
        <time>2023-05-21T10:31:13Z</time>
      </trkpt>
      <trkpt lat="47.81537" lon="7.03201">
        <ele>915.1</ele>
        <time>2023-05-21T10:31:45Z</time>
      </trkpt>
      <trkpt lat="47.81525" lon="7.03214">
        <ele>913.7</ele>
        <time>2023-05-21T10:32:00Z</time>
      </trkpt>
      <trkpt lat="47.81522" lon="7.0322">
        <ele>913.9</ele>
        <time>2023-05-21T10:32:06Z</time>
      </trkpt>
      <trkpt lat="47.81517" lon="7.03223">
        <ele>913</ele>
        <time>2023-05-21T10:32:09Z</time>
      </trkpt>
      <trkpt lat="47.81512" lon="7.03224">
        <ele>911.8</ele>
        <time>2023-05-21T10:32:11Z</time>
      </trkpt>
      <trkpt lat="47.81501" lon="7.0324">
        <ele>912.1</ele>
        <time>2023-05-21T10:32:22Z</time>
      </trkpt>
      <trkpt lat="47.81496" lon="7.03241">
        <ele>911.2</ele>
        <time>2023-05-21T10:32:25Z</time>
      </trkpt>
      <trkpt lat="47.81491" lon="7.03238">
        <ele>909.5</ele>
        <time>2023-05-21T10:32:27Z</time>
      </trkpt>
      <trkpt lat="47.81487" lon="7.03235">
        <ele>908</ele>
        <time>2023-05-21T10:32:32Z</time>
      </trkpt>
      <trkpt lat="47.8148" lon="7.03237">
        <ele>906.9</ele>
        <time>2023-05-21T10:32:38Z</time>
      </trkpt>
      <trkpt lat="47.81473" lon="7.03234">
        <ele>904.7</ele>
        <time>2023-05-21T10:32:44Z</time>
      </trkpt>
      <trkpt lat="47.81468" lon="7.03231">
        <ele>903.1</ele>
        <time>2023-05-21T10:32:49Z</time>
      </trkpt>
      <trkpt lat="47.81461" lon="7.03238">
        <ele>903.7</ele>
        <time>2023-05-21T10:32:54Z</time>
      </trkpt>
      <trkpt lat="47.81453" lon="7.03242">
        <ele>903.6</ele>
        <time>2023-05-21T10:33:03Z</time>
      </trkpt>
      <trkpt lat="47.81429" lon="7.0325">
        <ele>902.8</ele>
        <time>2023-05-21T10:33:23Z</time>
      </trkpt>
      <trkpt lat="47.81419" lon="7.03245">
        <ele>899.6</ele>
        <time>2023-05-21T10:33:32Z</time>
      </trkpt>
      <trkpt lat="47.81394" lon="7.03243">
        <ele>894.6</ele>
        <time>2023-05-21T10:33:54Z</time>
      </trkpt>
      <trkpt lat="47.81385" lon="7.0324">
        <ele>892.3</ele>
        <time>2023-05-21T10:34:03Z</time>
      </trkpt>
      <trkpt lat="47.8138" lon="7.03242">
        <ele>892.2</ele>
        <time>2023-05-21T10:34:07Z</time>
      </trkpt>
      <trkpt lat="47.81376" lon="7.03239">
        <ele>890.8</ele>
        <time>2023-05-21T10:34:11Z</time>
      </trkpt>
      <trkpt lat="47.8137" lon="7.03241">
        <ele>890.6</ele>
        <time>2023-05-21T10:34:15Z</time>
      </trkpt>
      <trkpt lat="47.81361" lon="7.03246">
        <ele>890.8</ele>
        <time>2023-05-21T10:34:24Z</time>
      </trkpt>
      <trkpt lat="47.81347" lon="7.03245">
        <ele>888.9</ele>
        <time>2023-05-21T10:34:35Z</time>
      </trkpt>
      <trkpt lat="47.81343" lon="7.03241">
        <ele>887</ele>
        <time>2023-05-21T10:34:39Z</time>
      </trkpt>
      <trkpt lat="47.81337" lon="7.03241">
        <ele>886.2</ele>
        <time>2023-05-21T10:34:43Z</time>
      </trkpt>
      <trkpt lat="47.81322" lon="7.03245">
        <ele>885.7</ele>
        <time>2023-05-21T10:34:55Z</time>
      </trkpt>
      <trkpt lat="47.81316" lon="7.03249">
        <ele>886.2</ele>
        <time>2023-05-21T10:34:58Z</time>
      </trkpt>
      <trkpt lat="47.81311" lon="7.03249">
        <ele>885.5</ele>
        <time>2023-05-21T10:35:02Z</time>
      </trkpt>
      <trkpt lat="47.81307" lon="7.03247">
        <ele>884.3</ele>
        <time>2023-05-21T10:35:06Z</time>
      </trkpt>
      <trkpt lat="47.81296" lon="7.03248">
        <ele>883.7</ele>
        <time>2023-05-21T10:35:14Z</time>
      </trkpt>
      <trkpt lat="47.81285" lon="7.03243">
        <ele>881.5</ele>
        <time>2023-05-21T10:35:24Z</time>
      </trkpt>
      <trkpt lat="47.81277" lon="7.0324">
        <ele>880</ele>
        <time>2023-05-21T10:35:33Z</time>
      </trkpt>
      <trkpt lat="47.81283" lon="7.03237">
        <ele>879.6</ele>
        <time>2023-05-21T10:35:49Z</time>
      </trkpt>
      <trkpt lat="47.81285" lon="7.03231">
        <ele>878</ele>
        <time>2023-05-21T10:36:07Z</time>
      </trkpt>
      <trkpt lat="47.81281" lon="7.03234">
        <ele>878.6</ele>
        <time>2023-05-21T10:36:48Z</time>
      </trkpt>
      <trkpt lat="47.81277" lon="7.03235">
        <ele>878.6</ele>
        <time>2023-05-21T10:36:50Z</time>
      </trkpt>
      <trkpt lat="47.81272" lon="7.03235">
        <ele>878</ele>
        <time>2023-05-21T10:36:52Z</time>
      </trkpt>
      <trkpt lat="47.81263" lon="7.03238">
        <ele>877.6</ele>
        <time>2023-05-21T10:37:04Z</time>
      </trkpt>
      <trkpt lat="47.81253" lon="7.03242">
        <ele>877.4</ele>
        <time>2023-05-21T10:37:11Z</time>
      </trkpt>
      <trkpt lat="47.81248" lon="7.03241">
        <ele>876.4</ele>
        <time>2023-05-21T10:37:15Z</time>
      </trkpt>
      <trkpt lat="47.81235" lon="7.03248">
        <ele>876.3</ele>
        <time>2023-05-21T10:37:27Z</time>
      </trkpt>
      <trkpt lat="47.8121" lon="7.03255">
        <ele>873.3</ele>
        <time>2023-05-21T10:37:50Z</time>
      </trkpt>
      <trkpt lat="47.81205" lon="7.03255">
        <ele>872.3</ele>
        <time>2023-05-21T10:37:54Z</time>
      </trkpt>
      <trkpt lat="47.81196" lon="7.03258">
        <ele>870.9</ele>
        <time>2023-05-21T10:38:02Z</time>
      </trkpt>
      <trkpt lat="47.8119" lon="7.03262">
        <ele>870.2</ele>
        <time>2023-05-21T10:38:12Z</time>
      </trkpt>
      <trkpt lat="47.81187" lon="7.03267">
        <ele>870.1</ele>
        <time>2023-05-21T10:38:17Z</time>
      </trkpt>
      <trkpt lat="47.81185" lon="7.03273">
        <ele>870.1</ele>
        <time>2023-05-21T10:38:22Z</time>
      </trkpt>
      <trkpt lat="47.81183" lon="7.03281">
        <ele>869.6</ele>
        <time>2023-05-21T10:38:27Z</time>
      </trkpt>
      <trkpt lat="47.8118" lon="7.03293">
        <ele>868</ele>
        <time>2023-05-21T10:38:33Z</time>
      </trkpt>
      <trkpt lat="47.81174" lon="7.03304">
        <ele>866.2</ele>
        <time>2023-05-21T10:38:41Z</time>
      </trkpt>
      <trkpt lat="47.81167" lon="7.03327">
        <ele>863.5</ele>
        <time>2023-05-21T10:38:54Z</time>
      </trkpt>
      <trkpt lat="47.81165" lon="7.03341">
        <ele>862.4</ele>
        <time>2023-05-21T10:39:04Z</time>
      </trkpt>
      <trkpt lat="47.81166" lon="7.03349">
        <ele>861.9</ele>
        <time>2023-05-21T10:39:08Z</time>
      </trkpt>
      <trkpt lat="47.81169" lon="7.03354">
        <ele>861.6</ele>
        <time>2023-05-21T10:39:12Z</time>
      </trkpt>
      <trkpt lat="47.81172" lon="7.0337">
        <ele>860.1</ele>
        <time>2023-05-21T10:39:22Z</time>
      </trkpt>
      <trkpt lat="47.81174" lon="7.03376">
        <ele>859.4</ele>
        <time>2023-05-21T10:39:26Z</time>
      </trkpt>
      <trkpt lat="47.81174" lon="7.03382">
        <ele>858.6</ele>
        <time>2023-05-21T10:39:30Z</time>
      </trkpt>
      <trkpt lat="47.81177" lon="7.03388">
        <ele>857.7</ele>
        <time>2023-05-21T10:39:34Z</time>
      </trkpt>
      <trkpt lat="47.81177" lon="7.0341">
        <ele>855</ele>
        <time>2023-05-21T10:39:45Z</time>
      </trkpt>
      <trkpt lat="47.81173" lon="7.03418">
        <ele>854.7</ele>
        <time>2023-05-21T10:39:48Z</time>
      </trkpt>
      <trkpt lat="47.81168" lon="7.03442">
        <ele>852.9</ele>
        <time>2023-05-21T10:40:03Z</time>
      </trkpt>
      <trkpt lat="47.81166" lon="7.03447">
        <ele>853</ele>
        <time>2023-05-21T10:40:06Z</time>
      </trkpt>
      <trkpt lat="47.81165" lon="7.03455">
        <ele>852.5</ele>
        <time>2023-05-21T10:40:10Z</time>
      </trkpt>
      <trkpt lat="47.81162" lon="7.03461">
        <ele>853.2</ele>
        <time>2023-05-21T10:40:14Z</time>
      </trkpt>
      <trkpt lat="47.81159" lon="7.03481">
        <ele>851.8</ele>
        <time>2023-05-21T10:40:27Z</time>
      </trkpt>
      <trkpt lat="47.81157" lon="7.03487">
        <ele>851.7</ele>
        <time>2023-05-21T10:40:30Z</time>
      </trkpt>
      <trkpt lat="47.81151" lon="7.03509">
        <ele>849.9</ele>
        <time>2023-05-21T10:40:44Z</time>
      </trkpt>
      <trkpt lat="47.81143" lon="7.03525">
        <ele>849.6</ele>
        <time>2023-05-21T10:40:53Z</time>
      </trkpt>
      <trkpt lat="47.8114" lon="7.03564">
        <ele>842.4</ele>
        <time>2023-05-21T10:41:17Z</time>
      </trkpt>
      <trkpt lat="47.81138" lon="7.03571">
        <ele>842</ele>
        <time>2023-05-21T10:41:21Z</time>
      </trkpt>
      <trkpt lat="47.81134" lon="7.03576">
        <ele>842.3</ele>
        <time>2023-05-21T10:41:25Z</time>
      </trkpt>
      <trkpt lat="47.81132" lon="7.03582">
        <ele>841.8</ele>
        <time>2023-05-21T10:41:28Z</time>
      </trkpt>
      <trkpt lat="47.81128" lon="7.03586">
        <ele>841.9</ele>
        <time>2023-05-21T10:41:32Z</time>
      </trkpt>
      <trkpt lat="47.81124" lon="7.03589">
        <ele>842.1</ele>
        <time>2023-05-21T10:41:36Z</time>
      </trkpt>
      <trkpt lat="47.81119" lon="7.03594">
        <ele>841.8</ele>
        <time>2023-05-21T10:41:40Z</time>
      </trkpt>
      <trkpt lat="47.81101" lon="7.03605">
        <ele>842.2</ele>
        <time>2023-05-21T10:41:57Z</time>
      </trkpt>
      <trkpt lat="47.81093" lon="7.03614">
        <ele>841</ele>
        <time>2023-05-21T10:42:05Z</time>
      </trkpt>
      <trkpt lat="47.81087" lon="7.03624">
        <ele>838.7</ele>
        <time>2023-05-21T10:42:13Z</time>
      </trkpt>
      <trkpt lat="47.81082" lon="7.03636">
        <ele>835.8</ele>
        <time>2023-05-21T10:42:20Z</time>
      </trkpt>
      <trkpt lat="47.81079" lon="7.0364">
        <ele>835.7</ele>
        <time>2023-05-21T10:42:24Z</time>
      </trkpt>
      <trkpt lat="47.81077" lon="7.03647">
        <ele>834.5</ele>
        <time>2023-05-21T10:42:28Z</time>
      </trkpt>
      <trkpt lat="47.81074" lon="7.03651">
        <ele>834.7</ele>
        <time>2023-05-21T10:42:32Z</time>
      </trkpt>
      <trkpt lat="47.81069" lon="7.03666">
        <ele>832.9</ele>
        <time>2023-05-21T10:42:39Z</time>
      </trkpt>
      <trkpt lat="47.81067" lon="7.03682">
        <ele>830</ele>
        <time>2023-05-21T10:42:50Z</time>
      </trkpt>
      <trkpt lat="47.81065" lon="7.03688">
        <ele>829.5</ele>
        <time>2023-05-21T10:42:54Z</time>
      </trkpt>
      <trkpt lat="47.81064" lon="7.03703">
        <ele>826.3</ele>
        <time>2023-05-21T10:43:03Z</time>
      </trkpt>
      <trkpt lat="47.8106" lon="7.03707">
        <ele>827.4</ele>
        <time>2023-05-21T10:43:06Z</time>
      </trkpt>
      <trkpt lat="47.81057" lon="7.03713">
        <ele>827.5</ele>
        <time>2023-05-21T10:43:09Z</time>
      </trkpt>
      <trkpt lat="47.81052" lon="7.03721">
        <ele>828.1</ele>
        <time>2023-05-21T10:43:15Z</time>
      </trkpt>
      <trkpt lat="47.81047" lon="7.03733">
        <ele>826.7</ele>
        <time>2023-05-21T10:43:21Z</time>
      </trkpt>
      <trkpt lat="47.81037" lon="7.0375">
        <ele>825.7</ele>
        <time>2023-05-21T10:43:32Z</time>
      </trkpt>
      <trkpt lat="47.81035" lon="7.03756">
        <ele>824.4</ele>
        <time>2023-05-21T10:43:36Z</time>
      </trkpt>
      <trkpt lat="47.81013" lon="7.03776">
        <ele>819.2</ele>
        <time>2023-05-21T10:43:59Z</time>
      </trkpt>
      <trkpt lat="47.80999" lon="7.03775">
        <ele>818.9</ele>
        <time>2023-05-21T10:44:10Z</time>
      </trkpt>
      <trkpt lat="47.80994" lon="7.03771">
        <ele>819.3</ele>
        <time>2023-05-21T10:44:15Z</time>
      </trkpt>
      <trkpt lat="47.80969" lon="7.0377">
        <ele>814.4</ele>
        <time>2023-05-21T10:44:34Z</time>
      </trkpt>
      <trkpt lat="47.80964" lon="7.03773">
        <ele>812.6</ele>
        <time>2023-05-21T10:44:38Z</time>
      </trkpt>
      <trkpt lat="47.80954" lon="7.0377">
        <ele>813.1</ele>
        <time>2023-05-21T10:44:46Z</time>
      </trkpt>
      <trkpt lat="47.80943" lon="7.0377">
        <ele>812.4</ele>
        <time>2023-05-21T10:44:55Z</time>
      </trkpt>
      <trkpt lat="47.80939" lon="7.03772">
        <ele>811.5</ele>
        <time>2023-05-21T10:44:59Z</time>
      </trkpt>
      <trkpt lat="47.80926" lon="7.03782">
        <ele>807.3</ele>
        <time>2023-05-21T10:45:14Z</time>
      </trkpt>
      <trkpt lat="47.80917" lon="7.03784">
        <ele>806.8</ele>
        <time>2023-05-21T10:45:21Z</time>
      </trkpt>
      <trkpt lat="47.8091" lon="7.03795">
        <ele>804.8</ele>
        <time>2023-05-21T10:45:27Z</time>
      </trkpt>
      <trkpt lat="47.80905" lon="7.03798">
        <ele>805.2</ele>
        <time>2023-05-21T10:45:31Z</time>
      </trkpt>
      <trkpt lat="47.809" lon="7.03798">
        <ele>806.7</ele>
        <time>2023-05-21T10:45:34Z</time>
      </trkpt>
      <trkpt lat="47.80893" lon="7.03805">
        <ele>806</ele>
        <time>2023-05-21T10:45:41Z</time>
      </trkpt>
      <trkpt lat="47.80892" lon="7.03811">
        <ele>804.1</ele>
        <time>2023-05-21T10:45:46Z</time>
      </trkpt>
      <trkpt lat="47.80884" lon="7.03824">
        <ele>802.9</ele>
        <time>2023-05-21T10:45:56Z</time>
      </trkpt>
      <trkpt lat="47.80884" lon="7.03831">
        <ele>800.6</ele>
        <time>2023-05-21T10:45:59Z</time>
      </trkpt>
      <trkpt lat="47.8088" lon="7.03835">
        <ele>801.5</ele>
        <time>2023-05-21T10:46:03Z</time>
      </trkpt>
      <trkpt lat="47.80874" lon="7.03848">
        <ele>800.6</ele>
        <time>2023-05-21T10:46:11Z</time>
      </trkpt>
      <trkpt lat="47.80873" lon="7.03855">
        <ele>798.9</ele>
        <time>2023-05-21T10:46:15Z</time>
      </trkpt>
      <trkpt lat="47.80861" lon="7.03882">
        <ele>796.8</ele>
        <time>2023-05-21T10:46:32Z</time>
      </trkpt>
      <trkpt lat="47.80859" lon="7.03898">
        <ele>792</ele>
        <time>2023-05-21T10:46:40Z</time>
      </trkpt>
      <trkpt lat="47.80854" lon="7.03912">
        <ele>791</ele>
        <time>2023-05-21T10:46:48Z</time>
      </trkpt>
      <trkpt lat="47.80854" lon="7.03919">
        <ele>788.9</ele>
        <time>2023-05-21T10:46:52Z</time>
      </trkpt>
      <trkpt lat="47.80853" lon="7.03925">
        <ele>788.5</ele>
        <time>2023-05-21T10:46:56Z</time>
      </trkpt>
      <trkpt lat="47.8085" lon="7.03932">
        <ele>789.8</ele>
        <time>2023-05-21T10:46:59Z</time>
      </trkpt>
      <trkpt lat="47.80851" lon="7.03955">
        <ele>786.3</ele>
        <time>2023-05-21T10:47:10Z</time>
      </trkpt>
      <trkpt lat="47.80855" lon="7.0398">
        <ele>783</ele>
        <time>2023-05-21T10:47:24Z</time>
      </trkpt>
      <trkpt lat="47.80848" lon="7.0401">
        <ele>783.5</ele>
        <time>2023-05-21T10:47:42Z</time>
      </trkpt>
      <trkpt lat="47.80835" lon="7.0403">
        <ele>782.5</ele>
        <time>2023-05-21T10:47:55Z</time>
      </trkpt>
      <trkpt lat="47.8083" lon="7.04033">
        <ele>782.6</ele>
        <time>2023-05-21T10:47:58Z</time>
      </trkpt>
      <trkpt lat="47.80819" lon="7.04045">
        <ele>779.6</ele>
        <time>2023-05-21T10:48:08Z</time>
      </trkpt>
      <trkpt lat="47.80815" lon="7.04048">
        <ele>779</ele>
        <time>2023-05-21T10:48:11Z</time>
      </trkpt>
      <trkpt lat="47.80799" lon="7.0406">
        <ele>776.6</ele>
        <time>2023-05-21T10:48:24Z</time>
      </trkpt>
      <trkpt lat="47.8079" lon="7.04065">
        <ele>776.7</ele>
        <time>2023-05-21T10:48:33Z</time>
      </trkpt>
      <trkpt lat="47.80772" lon="7.0409">
        <ele>772.3</ele>
        <time>2023-05-21T10:48:53Z</time>
      </trkpt>
      <trkpt lat="47.80771" lon="7.04096">
        <ele>770.5</ele>
        <time>2023-05-21T10:48:57Z</time>
      </trkpt>
      <trkpt lat="47.80761" lon="7.04113">
        <ele>768.6</ele>
        <time>2023-05-21T10:49:09Z</time>
      </trkpt>
      <trkpt lat="47.80757" lon="7.04116">
        <ele>769.2</ele>
        <time>2023-05-21T10:49:13Z</time>
      </trkpt>
      <trkpt lat="47.80752" lon="7.04128">
        <ele>767.1</ele>
        <time>2023-05-21T10:49:22Z</time>
      </trkpt>
      <trkpt lat="47.80751" lon="7.04136">
        <ele>764.6</ele>
        <time>2023-05-21T10:49:26Z</time>
      </trkpt>
      <trkpt lat="47.80748" lon="7.04142">
        <ele>763.9</ele>
        <time>2023-05-21T10:49:29Z</time>
      </trkpt>
      <trkpt lat="47.80745" lon="7.04147">
        <ele>763.5</ele>
        <time>2023-05-21T10:49:32Z</time>
      </trkpt>
      <trkpt lat="47.80737" lon="7.04157">
        <ele>763.7</ele>
        <time>2023-05-21T10:49:39Z</time>
      </trkpt>
      <trkpt lat="47.80732" lon="7.04169">
        <ele>762</ele>
        <time>2023-05-21T10:49:47Z</time>
      </trkpt>
      <trkpt lat="47.80725" lon="7.04179">
        <ele>761.8</ele>
        <time>2023-05-21T10:49:56Z</time>
      </trkpt>
      <trkpt lat="47.80718" lon="7.04198">
        <ele>757.7</ele>
        <time>2023-05-21T10:50:05Z</time>
      </trkpt>
      <trkpt lat="47.80715" lon="7.04204">
        <ele>756.1</ele>
        <time>2023-05-21T10:50:08Z</time>
      </trkpt>
      <trkpt lat="47.80711" lon="7.04208">
        <ele>755.7</ele>
        <time>2023-05-21T10:50:11Z</time>
      </trkpt>
      <trkpt lat="47.80709" lon="7.04215">
        <ele>753.5</ele>
        <time>2023-05-21T10:50:16Z</time>
      </trkpt>
      <trkpt lat="47.80703" lon="7.04224">
        <ele>751.9</ele>
        <time>2023-05-21T10:50:24Z</time>
      </trkpt>
      <trkpt lat="47.80675" lon="7.04248">
        <ele>748.5</ele>
        <time>2023-05-21T10:50:53Z</time>
      </trkpt>
      <trkpt lat="47.80669" lon="7.04249">
        <ele>749</ele>
        <time>2023-05-21T10:50:57Z</time>
      </trkpt>
      <trkpt lat="47.80656" lon="7.04258">
        <ele>748.3</ele>
        <time>2023-05-21T10:51:08Z</time>
      </trkpt>
      <trkpt lat="47.8066" lon="7.04262">
        <ele>748</ele>
        <time>2023-05-21T10:51:16Z</time>
      </trkpt>
      <trkpt lat="47.80675" lon="7.04259">
        <ele>746.8</ele>
        <time>2023-05-21T10:51:27Z</time>
      </trkpt>
      <trkpt lat="47.80679" lon="7.04257">
        <ele>746.5</ele>
        <time>2023-05-21T10:51:30Z</time>
      </trkpt>
      <trkpt lat="47.80683" lon="7.04253">
        <ele>746.3</ele>
        <time>2023-05-21T10:51:34Z</time>
      </trkpt>
      <trkpt lat="47.80693" lon="7.0425">
        <ele>745.2</ele>
        <time>2023-05-21T10:51:41Z</time>
      </trkpt>
      <trkpt lat="47.80689" lon="7.04257">
        <ele>745</ele>
        <time>2023-05-21T10:51:50Z</time>
      </trkpt>
      <trkpt lat="47.80675" lon="7.04281">
        <ele>745</ele>
        <time>2023-05-21T10:54:39Z</time>
      </trkpt>
      <trkpt lat="47.80668" lon="7.04267">
        <ele>747</ele>
        <time>2023-05-21T12:50:28Z</time>
      </trkpt>
      <trkpt lat="47.80667" lon="7.04267">
        <ele>747.1</ele>
        <time>2023-05-21T12:50:29Z</time>
      </trkpt>
      <trkpt lat="47.80664" lon="7.04271">
        <ele>747</ele>
        <time>2023-05-21T12:50:38Z</time>
      </trkpt>
      <trkpt lat="47.80661" lon="7.04276">
        <ele>746.9</ele>
        <time>2023-05-21T12:50:43Z</time>
      </trkpt>
      <trkpt lat="47.80657" lon="7.04282">
        <ele>748.1</ele>
        <time>2023-05-21T12:50:53Z</time>
      </trkpt>
      <trkpt lat="47.80655" lon="7.04289">
        <ele>749.6</ele>
        <time>2023-05-21T12:50:56Z</time>
      </trkpt>
      <trkpt lat="47.80661" lon="7.0429">
        <ele>748.5</ele>
        <time>2023-05-21T12:51:03Z</time>
      </trkpt>
      <trkpt lat="47.80669" lon="7.04305">
        <ele>748.4</ele>
        <time>2023-05-21T12:51:17Z</time>
      </trkpt>
      <trkpt lat="47.80674" lon="7.04308">
        <ele>747.7</ele>
        <time>2023-05-21T12:51:23Z</time>
      </trkpt>
      <trkpt lat="47.80679" lon="7.04323">
        <ele>748.9</ele>
        <time>2023-05-21T12:51:32Z</time>
      </trkpt>
      <trkpt lat="47.80678" lon="7.0433">
        <ele>750.5</ele>
        <time>2023-05-21T12:51:36Z</time>
      </trkpt>
      <trkpt lat="47.80686" lon="7.0435">
        <ele>750.2</ele>
        <time>2023-05-21T12:51:50Z</time>
      </trkpt>
      <trkpt lat="47.80683" lon="7.04359">
        <ele>753.2</ele>
        <time>2023-05-21T12:51:57Z</time>
      </trkpt>
      <trkpt lat="47.80682" lon="7.04368">
        <ele>756.7</ele>
        <time>2023-05-21T12:52:05Z</time>
      </trkpt>
      <trkpt lat="47.80689" lon="7.0438">
        <ele>757.3</ele>
        <time>2023-05-21T12:52:18Z</time>
      </trkpt>
      <trkpt lat="47.80692" lon="7.04392">
        <ele>759.6</ele>
        <time>2023-05-21T12:52:28Z</time>
      </trkpt>
      <trkpt lat="47.80696" lon="7.04398">
        <ele>758</ele>
        <time>2023-05-21T12:52:33Z</time>
      </trkpt>
      <trkpt lat="47.807" lon="7.04412">
        <ele>757.1</ele>
        <time>2023-05-21T12:52:41Z</time>
      </trkpt>
      <trkpt lat="47.80705" lon="7.04424">
        <ele>755.9</ele>
        <time>2023-05-21T12:52:49Z</time>
      </trkpt>
      <trkpt lat="47.80707" lon="7.04431">
        <ele>755.9</ele>
        <time>2023-05-21T12:52:54Z</time>
      </trkpt>
      <trkpt lat="47.80715" lon="7.0445">
        <ele>754.4</ele>
        <time>2023-05-21T12:53:07Z</time>
      </trkpt>
      <trkpt lat="47.80717" lon="7.04461">
        <ele>755.9</ele>
        <time>2023-05-21T12:53:15Z</time>
      </trkpt>
      <trkpt lat="47.8072" lon="7.04469">
        <ele>755.8</ele>
        <time>2023-05-21T12:53:21Z</time>
      </trkpt>
      <trkpt lat="47.80722" lon="7.04474">
        <ele>755.7</ele>
        <time>2023-05-21T12:53:25Z</time>
      </trkpt>
      <trkpt lat="47.80722" lon="7.04488">
        <ele>760.3</ele>
        <time>2023-05-21T12:53:34Z</time>
      </trkpt>
      <trkpt lat="47.80729" lon="7.04504">
        <ele>760.8</ele>
        <time>2023-05-21T12:53:50Z</time>
      </trkpt>
      <trkpt lat="47.80731" lon="7.04518">
        <ele>763.5</ele>
        <time>2023-05-21T12:53:59Z</time>
      </trkpt>
      <trkpt lat="47.80735" lon="7.04525">
        <ele>762.9</ele>
        <time>2023-05-21T12:54:04Z</time>
      </trkpt>
      <trkpt lat="47.80738" lon="7.04529">
        <ele>762.1</ele>
        <time>2023-05-21T12:54:08Z</time>
      </trkpt>
      <trkpt lat="47.80742" lon="7.04542">
        <ele>763.2</ele>
        <time>2023-05-21T12:54:17Z</time>
      </trkpt>
      <trkpt lat="47.80742" lon="7.04549">
        <ele>765.2</ele>
        <time>2023-05-21T12:54:21Z</time>
      </trkpt>
      <trkpt lat="47.80745" lon="7.04556">
        <ele>764.9</ele>
        <time>2023-05-21T12:54:29Z</time>
      </trkpt>
      <trkpt lat="47.80746" lon="7.04563">
        <ele>765.5</ele>
        <time>2023-05-21T12:54:34Z</time>
      </trkpt>
      <trkpt lat="47.80749" lon="7.04575">
        <ele>765.4</ele>
        <time>2023-05-21T12:54:45Z</time>
      </trkpt>
      <trkpt lat="47.80748" lon="7.04589">
        <ele>768.3</ele>
        <time>2023-05-21T12:54:52Z</time>
      </trkpt>
      <trkpt lat="47.80748" lon="7.04597">
        <ele>769.1</ele>
        <time>2023-05-21T12:54:57Z</time>
      </trkpt>
      <trkpt lat="47.80742" lon="7.04619">
        <ele>776.3</ele>
        <time>2023-05-21T12:55:15Z</time>
      </trkpt>
      <trkpt lat="47.80747" lon="7.04639">
        <ele>778.6</ele>
        <time>2023-05-21T12:55:31Z</time>
      </trkpt>
      <trkpt lat="47.80761" lon="7.04646">
        <ele>780.6</ele>
        <time>2023-05-21T12:55:43Z</time>
      </trkpt>
      <trkpt lat="47.80766" lon="7.04645">
        <ele>780.4</ele>
        <time>2023-05-21T12:55:49Z</time>
      </trkpt>
      <trkpt lat="47.80771" lon="7.04647">
        <ele>781.4</ele>
        <time>2023-05-21T12:55:58Z</time>
      </trkpt>
      <trkpt lat="47.80778" lon="7.04648">
        <ele>781.9</ele>
        <time>2023-05-21T12:56:05Z</time>
      </trkpt>
      <trkpt lat="47.80793" lon="7.04656">
        <ele>779.8</ele>
        <time>2023-05-21T12:56:32Z</time>
      </trkpt>
      <trkpt lat="47.80799" lon="7.04668">
        <ele>784</ele>
        <time>2023-05-21T12:56:42Z</time>
      </trkpt>
      <trkpt lat="47.80803" lon="7.0467">
        <ele>784.1</ele>
        <time>2023-05-21T12:56:47Z</time>
      </trkpt>
      <trkpt lat="47.80803" lon="7.04679">
        <ele>788.3</ele>
        <time>2023-05-21T12:56:51Z</time>
      </trkpt>
      <trkpt lat="47.80812" lon="7.04689">
        <ele>792.3</ele>
        <time>2023-05-21T12:57:00Z</time>
      </trkpt>
      <trkpt lat="47.80802" lon="7.04689">
        <ele>793.2</ele>
        <time>2023-05-21T12:57:13Z</time>
      </trkpt>
      <trkpt lat="47.80798" lon="7.04692">
        <ele>795.5</ele>
        <time>2023-05-21T12:57:17Z</time>
      </trkpt>
      <trkpt lat="47.80782" lon="7.04691">
        <ele>798.5</ele>
        <time>2023-05-21T12:57:32Z</time>
      </trkpt>
      <trkpt lat="47.80788" lon="7.04694">
        <ele>798.6</ele>
        <time>2023-05-21T12:57:52Z</time>
      </trkpt>
      <trkpt lat="47.80794" lon="7.04694">
        <ele>797.3</ele>
        <time>2023-05-21T12:57:57Z</time>
      </trkpt>
      <trkpt lat="47.80798" lon="7.04694">
        <ele>796.4</ele>
        <time>2023-05-21T12:58:00Z</time>
      </trkpt>
      <trkpt lat="47.80804" lon="7.047">
        <ele>797.7</ele>
        <time>2023-05-21T12:58:08Z</time>
      </trkpt>
      <trkpt lat="47.80809" lon="7.04706">
        <ele>799.6</ele>
        <time>2023-05-21T12:58:13Z</time>
      </trkpt>
      <trkpt lat="47.80815" lon="7.0471">
        <ele>800.7</ele>
        <time>2023-05-21T12:58:17Z</time>
      </trkpt>
      <trkpt lat="47.80821" lon="7.04713">
        <ele>801.2</ele>
        <time>2023-05-21T12:58:26Z</time>
      </trkpt>
      <trkpt lat="47.80824" lon="7.04718">
        <ele>802.7</ele>
        <time>2023-05-21T12:58:35Z</time>
      </trkpt>
      <trkpt lat="47.80831" lon="7.04727">
        <ele>804.4</ele>
        <time>2023-05-21T12:58:47Z</time>
      </trkpt>
      <trkpt lat="47.80833" lon="7.04733">
        <ele>805.4</ele>
        <time>2023-05-21T12:58:51Z</time>
      </trkpt>
      <trkpt lat="47.80835" lon="7.04752">
        <ele>807.9</ele>
        <time>2023-05-21T12:59:05Z</time>
      </trkpt>
      <trkpt lat="47.80833" lon="7.04758">
        <ele>809.4</ele>
        <time>2023-05-21T12:59:09Z</time>
      </trkpt>
      <trkpt lat="47.80833" lon="7.04765">
        <ele>809.7</ele>
        <time>2023-05-21T12:59:12Z</time>
      </trkpt>
      <trkpt lat="47.80835" lon="7.04783">
        <ele>808.8</ele>
        <time>2023-05-21T12:59:25Z</time>
      </trkpt>
      <trkpt lat="47.80832" lon="7.04794">
        <ele>810.2</ele>
        <time>2023-05-21T12:59:33Z</time>
      </trkpt>
      <trkpt lat="47.80823" lon="7.04814">
        <ele>814.2</ele>
        <time>2023-05-21T12:59:51Z</time>
      </trkpt>
      <trkpt lat="47.8082" lon="7.04819">
        <ele>815.4</ele>
        <time>2023-05-21T12:59:55Z</time>
      </trkpt>
      <trkpt lat="47.80814" lon="7.0483">
        <ele>818.1</ele>
        <time>2023-05-21T13:00:08Z</time>
      </trkpt>
      <trkpt lat="47.80813" lon="7.04839">
        <ele>817.5</ele>
        <time>2023-05-21T13:00:14Z</time>
      </trkpt>
      <trkpt lat="47.80805" lon="7.04857">
        <ele>820.1</ele>
        <time>2023-05-21T13:00:30Z</time>
      </trkpt>
      <trkpt lat="47.80804" lon="7.04875">
        <ele>820.1</ele>
        <time>2023-05-21T13:00:42Z</time>
      </trkpt>
      <trkpt lat="47.80805" lon="7.04887">
        <ele>819.4</ele>
        <time>2023-05-21T13:00:50Z</time>
      </trkpt>
      <trkpt lat="47.80801" lon="7.04895">
        <ele>822.8</ele>
        <time>2023-05-21T13:00:55Z</time>
      </trkpt>
      <trkpt lat="47.80799" lon="7.04909">
        <ele>826</ele>
        <time>2023-05-21T13:01:08Z</time>
      </trkpt>
      <trkpt lat="47.80802" lon="7.04915">
        <ele>824.9</ele>
        <time>2023-05-21T13:01:14Z</time>
      </trkpt>
      <trkpt lat="47.80804" lon="7.04921">
        <ele>825.2</ele>
        <time>2023-05-21T13:01:16Z</time>
      </trkpt>
      <trkpt lat="47.80804" lon="7.04933">
        <ele>828.6</ele>
        <time>2023-05-21T13:01:27Z</time>
      </trkpt>
      <trkpt lat="47.80806" lon="7.0494">
        <ele>829.5</ele>
        <time>2023-05-21T13:01:33Z</time>
      </trkpt>
      <trkpt lat="47.80812" lon="7.04943">
        <ele>828</ele>
        <time>2023-05-21T13:01:40Z</time>
      </trkpt>
      <trkpt lat="47.8081" lon="7.04951">
        <ele>831.6</ele>
        <time>2023-05-21T13:01:46Z</time>
      </trkpt>
      <trkpt lat="47.80814" lon="7.04957">
        <ele>832</ele>
        <time>2023-05-21T13:01:52Z</time>
      </trkpt>
      <trkpt lat="47.8082" lon="7.04965">
        <ele>832.3</ele>
        <time>2023-05-21T13:02:00Z</time>
      </trkpt>
      <trkpt lat="47.80826" lon="7.04986">
        <ele>837</ele>
        <time>2023-05-21T13:02:18Z</time>
      </trkpt>
      <trkpt lat="47.80831" lon="7.04989">
        <ele>836</ele>
        <time>2023-05-21T13:02:22Z</time>
      </trkpt>
      <trkpt lat="47.80835" lon="7.04997">
        <ele>837.5</ele>
        <time>2023-05-21T13:02:28Z</time>
      </trkpt>
      <trkpt lat="47.80842" lon="7.05002">
        <ele>837.6</ele>
        <time>2023-05-21T13:02:34Z</time>
      </trkpt>
      <trkpt lat="47.80844" lon="7.05009">
        <ele>839.7</ele>
        <time>2023-05-21T13:02:42Z</time>
      </trkpt>
      <trkpt lat="47.80854" lon="7.05016">
        <ele>840</ele>
        <time>2023-05-21T13:02:54Z</time>
      </trkpt>
      <trkpt lat="47.80863" lon="7.05025">
        <ele>841.4</ele>
        <time>2023-05-21T13:03:06Z</time>
      </trkpt>
      <trkpt lat="47.80865" lon="7.05037">
        <ele>845.7</ele>
        <time>2023-05-21T13:03:17Z</time>
      </trkpt>
      <trkpt lat="47.8087" lon="7.0504">
        <ele>845.6</ele>
        <time>2023-05-21T13:03:21Z</time>
      </trkpt>
      <trkpt lat="47.80881" lon="7.05047">
        <ele>845.6</ele>
        <time>2023-05-21T13:03:32Z</time>
      </trkpt>
      <trkpt lat="47.80902" lon="7.05058">
        <ele>846.5</ele>
        <time>2023-05-21T13:03:51Z</time>
      </trkpt>
      <trkpt lat="47.80907" lon="7.05064">
        <ele>847</ele>
        <time>2023-05-21T13:03:58Z</time>
      </trkpt>
      <trkpt lat="47.80908" lon="7.05072">
        <ele>848.1</ele>
        <time>2023-05-21T13:04:05Z</time>
      </trkpt>
      <trkpt lat="47.80906" lon="7.05087">
        <ele>850.1</ele>
        <time>2023-05-21T13:04:13Z</time>
      </trkpt>
      <trkpt lat="47.80914" lon="7.05098">
        <ele>847.6</ele>
        <time>2023-05-21T13:04:21Z</time>
      </trkpt>
      <trkpt lat="47.8091" lon="7.05131">
        <ele>844.6</ele>
        <time>2023-05-21T13:04:39Z</time>
      </trkpt>
      <trkpt lat="47.80907" lon="7.05138">
        <ele>844.2</ele>
        <time>2023-05-21T13:04:44Z</time>
      </trkpt>
      <trkpt lat="47.80906" lon="7.05148">
        <ele>842.7</ele>
        <time>2023-05-21T13:04:51Z</time>
      </trkpt>
      <trkpt lat="47.80903" lon="7.05157">
        <ele>841.7</ele>
        <time>2023-05-21T13:04:59Z</time>
      </trkpt>
      <trkpt lat="47.809" lon="7.05163">
        <ele>841.1</ele>
        <time>2023-05-21T13:05:04Z</time>
      </trkpt>
      <trkpt lat="47.80895" lon="7.05168">
        <ele>840.7</ele>
        <time>2023-05-21T13:05:09Z</time>
      </trkpt>
      <trkpt lat="47.80881" lon="7.05192">
        <ele>836.1</ele>
        <time>2023-05-21T13:05:25Z</time>
      </trkpt>
      <trkpt lat="47.80872" lon="7.05196">
        <ele>836.6</ele>
        <time>2023-05-21T13:05:31Z</time>
      </trkpt>
      <trkpt lat="47.8087" lon="7.05201">
        <ele>835.4</ele>
        <time>2023-05-21T13:05:35Z</time>
      </trkpt>
      <trkpt lat="47.80865" lon="7.05212">
        <ele>832.7</ele>
        <time>2023-05-21T13:05:44Z</time>
      </trkpt>
      <trkpt lat="47.80848" lon="7.05231">
        <ele>829.8</ele>
        <time>2023-05-21T13:06:03Z</time>
      </trkpt>
      <trkpt lat="47.80844" lon="7.05234">
        <ele>829.7</ele>
        <time>2023-05-21T13:06:08Z</time>
      </trkpt>
      <trkpt lat="47.8084" lon="7.05239">
        <ele>829</ele>
        <time>2023-05-21T13:06:12Z</time>
      </trkpt>
      <trkpt lat="47.80834" lon="7.05244">
        <ele>828.8</ele>
        <time>2023-05-21T13:06:19Z</time>
      </trkpt>
      <trkpt lat="47.80828" lon="7.05254">
        <ele>826.4</ele>
        <time>2023-05-21T13:06:27Z</time>
      </trkpt>
      <trkpt lat="47.80819" lon="7.05264">
        <ele>824.6</ele>
        <time>2023-05-21T13:06:35Z</time>
      </trkpt>
      <trkpt lat="47.80809" lon="7.05274">
        <ele>823.4</ele>
        <time>2023-05-21T13:06:46Z</time>
      </trkpt>
      <trkpt lat="47.80804" lon="7.05275">
        <ele>824.2</ele>
        <time>2023-05-21T13:06:50Z</time>
      </trkpt>
      <trkpt lat="47.80801" lon="7.0528">
        <ele>823.3</ele>
        <time>2023-05-21T13:06:54Z</time>
      </trkpt>
      <trkpt lat="47.80786" lon="7.05299">
        <ele>820.9</ele>
        <time>2023-05-21T13:07:07Z</time>
      </trkpt>
      <trkpt lat="47.80781" lon="7.05311">
        <ele>818.6</ele>
        <time>2023-05-21T13:07:15Z</time>
      </trkpt>
      <trkpt lat="47.80776" lon="7.05313">
        <ele>819.2</ele>
        <time>2023-05-21T13:07:23Z</time>
      </trkpt>
      <trkpt lat="47.80768" lon="7.05322">
        <ele>818</ele>
        <time>2023-05-21T13:07:33Z</time>
      </trkpt>
      <trkpt lat="47.80766" lon="7.05329">
        <ele>816.1</ele>
        <time>2023-05-21T13:07:37Z</time>
      </trkpt>
      <trkpt lat="47.8076" lon="7.05336">
        <ele>814.6</ele>
        <time>2023-05-21T13:07:44Z</time>
      </trkpt>
      <trkpt lat="47.80754" lon="7.05343">
        <ele>813</ele>
        <time>2023-05-21T13:07:53Z</time>
      </trkpt>
      <trkpt lat="47.80745" lon="7.05348">
        <ele>812.6</ele>
        <time>2023-05-21T13:08:01Z</time>
      </trkpt>
      <trkpt lat="47.80735" lon="7.05358">
        <ele>810.8</ele>
        <time>2023-05-21T13:08:12Z</time>
      </trkpt>
      <trkpt lat="47.80721" lon="7.05368">
        <ele>810.5</ele>
        <time>2023-05-21T13:08:26Z</time>
      </trkpt>
      <trkpt lat="47.80716" lon="7.05375">
        <ele>810.4</ele>
        <time>2023-05-21T13:08:35Z</time>
      </trkpt>
      <trkpt lat="47.80702" lon="7.05411">
        <ele>806.7</ele>
        <time>2023-05-21T13:09:01Z</time>
      </trkpt>
      <trkpt lat="47.80701" lon="7.05418">
        <ele>805.3</ele>
        <time>2023-05-21T13:09:05Z</time>
      </trkpt>
      <trkpt lat="47.80697" lon="7.0543">
        <ele>803.7</ele>
        <time>2023-05-21T13:09:14Z</time>
      </trkpt>
      <trkpt lat="47.80694" lon="7.05436">
        <ele>803.3</ele>
        <time>2023-05-21T13:09:19Z</time>
      </trkpt>
      <trkpt lat="47.80691" lon="7.05449">
        <ele>801.5</ele>
        <time>2023-05-21T13:09:27Z</time>
      </trkpt>
      <trkpt lat="47.80689" lon="7.05454">
        <ele>801.4</ele>
        <time>2023-05-21T13:09:31Z</time>
      </trkpt>
      <trkpt lat="47.80688" lon="7.05463">
        <ele>799.9</ele>
        <time>2023-05-21T13:09:36Z</time>
      </trkpt>
      <trkpt lat="47.80676" lon="7.05505">
        <ele>796.9</ele>
        <time>2023-05-21T13:10:03Z</time>
      </trkpt>
      <trkpt lat="47.80675" lon="7.05515">
        <ele>795.9</ele>
        <time>2023-05-21T13:10:11Z</time>
      </trkpt>
      <trkpt lat="47.80674" lon="7.05522">
        <ele>795.4</ele>
        <time>2023-05-21T13:10:14Z</time>
      </trkpt>
      <trkpt lat="47.80675" lon="7.05531">
        <ele>793.6</ele>
        <time>2023-05-21T13:10:21Z</time>
      </trkpt>
      <trkpt lat="47.8067" lon="7.05568">
        <ele>790.6</ele>
        <time>2023-05-21T13:10:41Z</time>
      </trkpt>
      <trkpt lat="47.80667" lon="7.0558">
        <ele>790.3</ele>
        <time>2023-05-21T13:10:49Z</time>
      </trkpt>
      <trkpt lat="47.80666" lon="7.05617">
        <ele>786.8</ele>
        <time>2023-05-21T13:11:09Z</time>
      </trkpt>
      <trkpt lat="47.80667" lon="7.05624">
        <ele>785.9</ele>
        <time>2023-05-21T13:11:13Z</time>
      </trkpt>
      <trkpt lat="47.80667" lon="7.05641">
        <ele>784.7</ele>
        <time>2023-05-21T13:11:25Z</time>
      </trkpt>
      <trkpt lat="47.80669" lon="7.05652">
        <ele>783</ele>
        <time>2023-05-21T13:11:32Z</time>
      </trkpt>
      <trkpt lat="47.80669" lon="7.05658">
        <ele>782.6</ele>
        <time>2023-05-21T13:11:36Z</time>
      </trkpt>
      <trkpt lat="47.8067" lon="7.05665">
        <ele>781.7</ele>
        <time>2023-05-21T13:11:40Z</time>
      </trkpt>
      <trkpt lat="47.80667" lon="7.0568">
        <ele>781.9</ele>
        <time>2023-05-21T13:11:50Z</time>
      </trkpt>
      <trkpt lat="47.80674" lon="7.05719">
        <ele>776.9</ele>
        <time>2023-05-21T13:12:15Z</time>
      </trkpt>
      <trkpt lat="47.80678" lon="7.05724">
        <ele>775.1</ele>
        <time>2023-05-21T13:12:19Z</time>
      </trkpt>
      <trkpt lat="47.8068" lon="7.05741">
        <ele>773.9</ele>
        <time>2023-05-21T13:12:33Z</time>
      </trkpt>
      <trkpt lat="47.80683" lon="7.05748">
        <ele>772.6</ele>
        <time>2023-05-21T13:12:38Z</time>
      </trkpt>
      <trkpt lat="47.80688" lon="7.05804">
        <ele>769.4</ele>
        <time>2023-05-21T13:13:10Z</time>
      </trkpt>
      <trkpt lat="47.80697" lon="7.05831">
        <ele>765.8</ele>
        <time>2023-05-21T13:13:28Z</time>
      </trkpt>
      <trkpt lat="47.80695" lon="7.05845">
        <ele>765.9</ele>
        <time>2023-05-21T13:13:36Z</time>
      </trkpt>
      <trkpt lat="47.80697" lon="7.05854">
        <ele>764.5</ele>
        <time>2023-05-21T13:13:42Z</time>
      </trkpt>
      <trkpt lat="47.80705" lon="7.05874">
        <ele>761.1</ele>
        <time>2023-05-21T13:13:56Z</time>
      </trkpt>
      <trkpt lat="47.80705" lon="7.05881">
        <ele>761</ele>
        <time>2023-05-21T13:14:00Z</time>
      </trkpt>
      <trkpt lat="47.80709" lon="7.05894">
        <ele>759.4</ele>
        <time>2023-05-21T13:14:09Z</time>
      </trkpt>
      <trkpt lat="47.80708" lon="7.05902">
        <ele>758.9</ele>
        <time>2023-05-21T13:14:13Z</time>
      </trkpt>
      <trkpt lat="47.8071" lon="7.05909">
        <ele>757.9</ele>
        <time>2023-05-21T13:14:17Z</time>
      </trkpt>
      <trkpt lat="47.80708" lon="7.05916">
        <ele>757.6</ele>
        <time>2023-05-21T13:14:20Z</time>
      </trkpt>
      <trkpt lat="47.80696" lon="7.05929">
        <ele>755.8</ele>
        <time>2023-05-21T13:14:30Z</time>
      </trkpt>
      <trkpt lat="47.80664" lon="7.0594">
        <ele>747.9</ele>
        <time>2023-05-21T13:14:58Z</time>
      </trkpt>
      <trkpt lat="47.80653" lon="7.0594">
        <ele>746.2</ele>
        <time>2023-05-21T13:15:05Z</time>
      </trkpt>
      <trkpt lat="47.80648" lon="7.05938">
        <ele>746</ele>
        <time>2023-05-21T13:15:08Z</time>
      </trkpt>
      <trkpt lat="47.80644" lon="7.05938">
        <ele>745.4</ele>
        <time>2023-05-21T13:15:11Z</time>
      </trkpt>
      <trkpt lat="47.80638" lon="7.05934">
        <ele>745.5</ele>
        <time>2023-05-21T13:15:18Z</time>
      </trkpt>
      <trkpt lat="47.80634" lon="7.05937">
        <ele>744.4</ele>
        <time>2023-05-21T13:15:22Z</time>
      </trkpt>
      <trkpt lat="47.80628" lon="7.05936">
        <ele>744</ele>
        <time>2023-05-21T13:15:25Z</time>
      </trkpt>
      <trkpt lat="47.80625" lon="7.05934">
        <ele>744.1</ele>
        <time>2023-05-21T13:15:28Z</time>
      </trkpt>
      <trkpt lat="47.8062" lon="7.05936">
        <ele>743.1</ele>
        <time>2023-05-21T13:15:32Z</time>
      </trkpt>
      <trkpt lat="47.80614" lon="7.05936">
        <ele>742.5</ele>
        <time>2023-05-21T13:15:36Z</time>
      </trkpt>
      <trkpt lat="47.8061" lon="7.05932">
        <ele>742.8</ele>
        <time>2023-05-21T13:15:41Z</time>
      </trkpt>
      <trkpt lat="47.80601" lon="7.05929">
        <ele>742.9</ele>
        <time>2023-05-21T13:15:47Z</time>
      </trkpt>
      <trkpt lat="47.80597" lon="7.05925">
        <ele>742.8</ele>
        <time>2023-05-21T13:15:52Z</time>
      </trkpt>
      <trkpt lat="47.80596" lon="7.05934">
        <ele>742.7</ele>
        <time>2023-05-21T13:15:59Z</time>
      </trkpt>
      <trkpt lat="47.80597" lon="7.0594">
        <ele>742.6</ele>
        <time>2023-05-21T13:16:03Z</time>
      </trkpt>
      <trkpt lat="47.806" lon="7.05947">
        <ele>741.9</ele>
        <time>2023-05-21T13:16:08Z</time>
      </trkpt>
      <trkpt lat="47.80601" lon="7.05957">
        <ele>740.5</ele>
        <time>2023-05-21T13:16:14Z</time>
      </trkpt>
      <trkpt lat="47.80599" lon="7.05971">
        <ele>739.2</ele>
        <time>2023-05-21T13:16:22Z</time>
      </trkpt>
      <trkpt lat="47.80594" lon="7.05983">
        <ele>738.4</ele>
        <time>2023-05-21T13:16:28Z</time>
      </trkpt>
      <trkpt lat="47.80587" lon="7.0599">
        <ele>738.9</ele>
        <time>2023-05-21T13:16:35Z</time>
      </trkpt>
      <trkpt lat="47.80584" lon="7.05997">
        <ele>738.4</ele>
        <time>2023-05-21T13:16:40Z</time>
      </trkpt>
      <trkpt lat="47.80579" lon="7.06">
        <ele>738.6</ele>
        <time>2023-05-21T13:16:43Z</time>
      </trkpt>
      <trkpt lat="47.80575" lon="7.06001">
        <ele>739</ele>
        <time>2023-05-21T13:16:46Z</time>
      </trkpt>
      <trkpt lat="47.80571" lon="7.06005">
        <ele>738.8</ele>
        <time>2023-05-21T13:16:49Z</time>
      </trkpt>
      <trkpt lat="47.80568" lon="7.06011">
        <ele>738.1</ele>
        <time>2023-05-21T13:16:53Z</time>
      </trkpt>
      <trkpt lat="47.80564" lon="7.06013">
        <ele>738.5</ele>
        <time>2023-05-21T13:16:57Z</time>
      </trkpt>
      <trkpt lat="47.80558" lon="7.06016">
        <ele>739.2</ele>
        <time>2023-05-21T13:17:03Z</time>
      </trkpt>
      <trkpt lat="47.80557" lon="7.06031">
        <ele>737.2</ele>
        <time>2023-05-21T13:17:12Z</time>
      </trkpt>
      <trkpt lat="47.80555" lon="7.06057">
        <ele>733.7</ele>
        <time>2023-05-21T13:17:26Z</time>
      </trkpt>
      <trkpt lat="47.8055" lon="7.06063">
        <ele>732.9</ele>
        <time>2023-05-21T13:17:33Z</time>
      </trkpt>
      <trkpt lat="47.80543" lon="7.06075">
        <ele>730.9</ele>
        <time>2023-05-21T13:17:41Z</time>
      </trkpt>
      <trkpt lat="47.80535" lon="7.06081">
        <ele>730.5</ele>
        <time>2023-05-21T13:17:48Z</time>
      </trkpt>
      <trkpt lat="47.80531" lon="7.06085">
        <ele>730.1</ele>
        <time>2023-05-21T13:17:52Z</time>
      </trkpt>
      <trkpt lat="47.80521" lon="7.0609">
        <ele>728.9</ele>
        <time>2023-05-21T13:18:00Z</time>
      </trkpt>
      <trkpt lat="47.80495" lon="7.06096">
        <ele>725.7</ele>
        <time>2023-05-21T13:18:22Z</time>
      </trkpt>
      <trkpt lat="47.80457" lon="7.06093">
        <ele>720.5</ele>
        <time>2023-05-21T13:18:53Z</time>
      </trkpt>
      <trkpt lat="47.80439" lon="7.06086">
        <ele>718.7</ele>
        <time>2023-05-21T13:19:08Z</time>
      </trkpt>
      <trkpt lat="47.80429" lon="7.06084">
        <ele>717.6</ele>
        <time>2023-05-21T13:19:16Z</time>
      </trkpt>
      <trkpt lat="47.80425" lon="7.06087">
        <ele>716.5</ele>
        <time>2023-05-21T13:19:21Z</time>
      </trkpt>
      <trkpt lat="47.80419" lon="7.06086">
        <ele>715.8</ele>
        <time>2023-05-21T13:19:25Z</time>
      </trkpt>
      <trkpt lat="47.8041" lon="7.0609">
        <ele>713.8</ele>
        <time>2023-05-21T13:19:33Z</time>
      </trkpt>
      <trkpt lat="47.80399" lon="7.06088">
        <ele>712.3</ele>
        <time>2023-05-21T13:19:41Z</time>
      </trkpt>
      <trkpt lat="47.80394" lon="7.06088">
        <ele>711.5</ele>
        <time>2023-05-21T13:19:44Z</time>
      </trkpt>
      <trkpt lat="47.80386" lon="7.06084">
        <ele>710.9</ele>
        <time>2023-05-21T13:19:53Z</time>
      </trkpt>
      <trkpt lat="47.8038" lon="7.06085">
        <ele>710.6</ele>
        <time>2023-05-21T13:19:57Z</time>
      </trkpt>
      <trkpt lat="47.80376" lon="7.0609">
        <ele>710.3</ele>
        <time>2023-05-21T13:20:01Z</time>
      </trkpt>
      <trkpt lat="47.80375" lon="7.06104">
        <ele>709.8</ele>
        <time>2023-05-21T13:20:09Z</time>
      </trkpt>
      <trkpt lat="47.8038" lon="7.06122">
        <ele>708.1</ele>
        <time>2023-05-21T13:20:25Z</time>
      </trkpt>
      <trkpt lat="47.8038" lon="7.06129">
        <ele>707.4</ele>
        <time>2023-05-21T13:20:29Z</time>
      </trkpt>
      <trkpt lat="47.80378" lon="7.06137">
        <ele>706.8</ele>
        <time>2023-05-21T13:20:34Z</time>
      </trkpt>
      <trkpt lat="47.80374" lon="7.06144">
        <ele>706.7</ele>
        <time>2023-05-21T13:20:39Z</time>
      </trkpt>
      <trkpt lat="47.80372" lon="7.06151">
        <ele>706.5</ele>
        <time>2023-05-21T13:20:43Z</time>
      </trkpt>
      <trkpt lat="47.80372" lon="7.06165">
        <ele>705.4</ele>
        <time>2023-05-21T13:20:50Z</time>
      </trkpt>
      <trkpt lat="47.80374" lon="7.0618">
        <ele>704.3</ele>
        <time>2023-05-21T13:20:58Z</time>
      </trkpt>
      <trkpt lat="47.80374" lon="7.06202">
        <ele>703.4</ele>
        <time>2023-05-21T13:21:12Z</time>
      </trkpt>
      <trkpt lat="47.80376" lon="7.06211">
        <ele>702.3</ele>
        <time>2023-05-21T13:21:18Z</time>
      </trkpt>
      <trkpt lat="47.80378" lon="7.06261">
        <ele>699.5</ele>
        <time>2023-05-21T13:21:47Z</time>
      </trkpt>
      <trkpt lat="47.80377" lon="7.06274">
        <ele>699.6</ele>
        <time>2023-05-21T13:21:55Z</time>
      </trkpt>
      <trkpt lat="47.80378" lon="7.06316">
        <ele>699.4</ele>
        <time>2023-05-21T13:22:18Z</time>
      </trkpt>
      <trkpt lat="47.80375" lon="7.06336">
        <ele>699.7</ele>
        <time>2023-05-21T13:22:30Z</time>
      </trkpt>
      <trkpt lat="47.80372" lon="7.06342">
        <ele>700.1</ele>
        <time>2023-05-21T13:22:34Z</time>
      </trkpt>
      <trkpt lat="47.80367" lon="7.06364">
        <ele>699.3</ele>
        <time>2023-05-21T13:22:47Z</time>
      </trkpt>
      <trkpt lat="47.80345" lon="7.06405">
        <ele>698.4</ele>
        <time>2023-05-21T13:23:13Z</time>
      </trkpt>
      <trkpt lat="47.80344" lon="7.06416">
        <ele>696.2</ele>
        <time>2023-05-21T13:23:21Z</time>
      </trkpt>
      <trkpt lat="47.80338" lon="7.06429">
        <ele>697.8</ele>
        <time>2023-05-21T13:23:29Z</time>
      </trkpt>
      <trkpt lat="47.80327" lon="7.06461">
        <ele>700.3</ele>
        <time>2023-05-21T13:23:48Z</time>
      </trkpt>
      <trkpt lat="47.80327" lon="7.06468">
        <ele>699.8</ele>
        <time>2023-05-21T13:23:52Z</time>
      </trkpt>
      <trkpt lat="47.80325" lon="7.06474">
        <ele>700.2</ele>
        <time>2023-05-21T13:23:56Z</time>
      </trkpt>
      <trkpt lat="47.80326" lon="7.06482">
        <ele>699.1</ele>
        <time>2023-05-21T13:24:00Z</time>
      </trkpt>
      <trkpt lat="47.80313" lon="7.06534">
        <ele>699.7</ele>
        <time>2023-05-21T13:24:34Z</time>
      </trkpt>
      <trkpt lat="47.80311" lon="7.0654">
        <ele>700.1</ele>
        <time>2023-05-21T13:24:37Z</time>
      </trkpt>
      <trkpt lat="47.80312" lon="7.06563">
        <ele>699.2</ele>
        <time>2023-05-21T13:24:49Z</time>
      </trkpt>
      <trkpt lat="47.80311" lon="7.06569">
        <ele>699.8</ele>
        <time>2023-05-21T13:24:52Z</time>
      </trkpt>
      <trkpt lat="47.80312" lon="7.06583">
        <ele>700.1</ele>
        <time>2023-05-21T13:25:00Z</time>
      </trkpt>
      <trkpt lat="47.80314" lon="7.06589">
        <ele>699.8</ele>
        <time>2023-05-21T13:25:04Z</time>
      </trkpt>
      <trkpt lat="47.80321" lon="7.066">
        <ele>698.5</ele>
        <time>2023-05-21T13:25:12Z</time>
      </trkpt>
      <trkpt lat="47.80326" lon="7.06612">
        <ele>698</ele>
        <time>2023-05-21T13:25:21Z</time>
      </trkpt>
      <trkpt lat="47.80333" lon="7.06624">
        <ele>697.9</ele>
        <time>2023-05-21T13:25:29Z</time>
      </trkpt>
      <trkpt lat="47.80339" lon="7.06629">
        <ele>696.3</ele>
        <time>2023-05-21T13:25:33Z</time>
      </trkpt>
      <trkpt lat="47.80343" lon="7.06635">
        <ele>695.4</ele>
        <time>2023-05-21T13:25:39Z</time>
      </trkpt>
      <trkpt lat="47.80361" lon="7.06659">
        <ele>689.5</ele>
        <time>2023-05-21T13:26:03Z</time>
      </trkpt>
      <trkpt lat="47.80362" lon="7.06665">
        <ele>689.4</ele>
        <time>2023-05-21T13:26:07Z</time>
      </trkpt>
      <trkpt lat="47.80376" lon="7.06688">
        <ele>683.1</ele>
        <time>2023-05-21T13:26:27Z</time>
      </trkpt>
      <trkpt lat="47.80375" lon="7.06726">
        <ele>683.7</ele>
        <time>2023-05-21T13:26:48Z</time>
      </trkpt>
      <trkpt lat="47.80377" lon="7.06733">
        <ele>682.3</ele>
        <time>2023-05-21T13:26:53Z</time>
      </trkpt>
      <trkpt lat="47.80377" lon="7.0674">
        <ele>681.8</ele>
        <time>2023-05-21T13:26:58Z</time>
      </trkpt>
      <trkpt lat="47.80376" lon="7.06757">
        <ele>679.9</ele>
        <time>2023-05-21T13:27:08Z</time>
      </trkpt>
      <trkpt lat="47.80374" lon="7.06765">
        <ele>678.5</ele>
        <time>2023-05-21T13:27:12Z</time>
      </trkpt>
      <trkpt lat="47.80371" lon="7.06769">
        <ele>678.3</ele>
        <time>2023-05-21T13:27:15Z</time>
      </trkpt>
      <trkpt lat="47.80352" lon="7.06782">
        <ele>677.8</ele>
        <time>2023-05-21T13:27:31Z</time>
      </trkpt>
      <trkpt lat="47.80327" lon="7.06811">
        <ele>670.3</ele>
        <time>2023-05-21T13:27:56Z</time>
      </trkpt>
      <trkpt lat="47.80323" lon="7.06814">
        <ele>669.6</ele>
        <time>2023-05-21T13:28:00Z</time>
      </trkpt>
      <trkpt lat="47.80318" lon="7.06815">
        <ele>670.2</ele>
        <time>2023-05-21T13:28:04Z</time>
      </trkpt>
      <trkpt lat="47.80311" lon="7.06824">
        <ele>667.7</ele>
        <time>2023-05-21T13:28:14Z</time>
      </trkpt>
      <trkpt lat="47.80308" lon="7.06829">
        <ele>666.2</ele>
        <time>2023-05-21T13:28:18Z</time>
      </trkpt>
      <trkpt lat="47.80279" lon="7.06859">
        <ele>663.5</ele>
        <time>2023-05-21T13:28:51Z</time>
      </trkpt>
      <trkpt lat="47.80272" lon="7.06868">
        <ele>663.5</ele>
        <time>2023-05-21T13:28:59Z</time>
      </trkpt>
      <trkpt lat="47.80267" lon="7.06889">
        <ele>660.2</ele>
        <time>2023-05-21T13:29:12Z</time>
      </trkpt>
      <trkpt lat="47.80269" lon="7.06903">
        <ele>658</ele>
        <time>2023-05-21T13:29:21Z</time>
      </trkpt>
      <trkpt lat="47.80278" lon="7.06924">
        <ele>651.9</ele>
        <time>2023-05-21T13:29:35Z</time>
      </trkpt>
      <trkpt lat="47.80279" lon="7.06933">
        <ele>651.3</ele>
        <time>2023-05-21T13:29:41Z</time>
      </trkpt>
      <trkpt lat="47.8028" lon="7.06953">
        <ele>649.9</ele>
        <time>2023-05-21T13:29:53Z</time>
      </trkpt>
      <trkpt lat="47.80276" lon="7.0701">
        <ele>645.2</ele>
        <time>2023-05-21T13:30:27Z</time>
      </trkpt>
      <trkpt lat="47.80275" lon="7.07024">
        <ele>643.5</ele>
        <time>2023-05-21T13:30:35Z</time>
      </trkpt>
      <trkpt lat="47.80266" lon="7.07044">
        <ele>640.5</ele>
        <time>2023-05-21T13:30:50Z</time>
      </trkpt>
      <trkpt lat="47.80254" lon="7.07058">
        <ele>640.5</ele>
        <time>2023-05-21T13:31:03Z</time>
      </trkpt>
      <trkpt lat="47.80252" lon="7.07065">
        <ele>638.7</ele>
        <time>2023-05-21T13:31:07Z</time>
      </trkpt>
      <trkpt lat="47.80248" lon="7.07067">
        <ele>639.3</ele>
        <time>2023-05-21T13:31:11Z</time>
      </trkpt>
      <trkpt lat="47.80244" lon="7.07075">
        <ele>637.5</ele>
        <time>2023-05-21T13:31:17Z</time>
      </trkpt>
      <trkpt lat="47.80241" lon="7.07079">
        <ele>637</ele>
        <time>2023-05-21T13:31:20Z</time>
      </trkpt>
      <trkpt lat="47.80239" lon="7.07085">
        <ele>635.5</ele>
        <time>2023-05-21T13:31:24Z</time>
      </trkpt>
      <trkpt lat="47.80237" lon="7.07093">
        <ele>633.1</ele>
        <time>2023-05-21T13:31:28Z</time>
      </trkpt>
      <trkpt lat="47.80225" lon="7.07109">
        <ele>630.1</ele>
        <time>2023-05-21T13:31:43Z</time>
      </trkpt>
      <trkpt lat="47.80208" lon="7.07138">
        <ele>624.4</ele>
        <time>2023-05-21T13:32:05Z</time>
      </trkpt>
      <trkpt lat="47.80205" lon="7.07141">
        <ele>624.7</ele>
        <time>2023-05-21T13:32:08Z</time>
      </trkpt>
      <trkpt lat="47.80202" lon="7.07148">
        <ele>624.1</ele>
        <time>2023-05-21T13:32:12Z</time>
      </trkpt>
      <trkpt lat="47.80199" lon="7.07162">
        <ele>622.1</ele>
        <time>2023-05-21T13:32:18Z</time>
      </trkpt>
      <trkpt lat="47.80197" lon="7.07168">
        <ele>621.5</ele>
        <time>2023-05-21T13:32:22Z</time>
      </trkpt>
      <trkpt lat="47.80194" lon="7.07172">
        <ele>621.4</ele>
        <time>2023-05-21T13:32:25Z</time>
      </trkpt>
      <trkpt lat="47.80189" lon="7.07173">
        <ele>620.3</ele>
        <time>2023-05-21T13:32:30Z</time>
      </trkpt>
      <trkpt lat="47.80183" lon="7.07169">
        <ele>620.3</ele>
        <time>2023-05-21T13:32:35Z</time>
      </trkpt>
      <trkpt lat="47.80179" lon="7.07169">
        <ele>619.6</ele>
        <time>2023-05-21T13:32:39Z</time>
      </trkpt>
      <trkpt lat="47.80175" lon="7.0717">
        <ele>618.7</ele>
        <time>2023-05-21T13:32:43Z</time>
      </trkpt>
      <trkpt lat="47.80171" lon="7.07172">
        <ele>617.6</ele>
        <time>2023-05-21T13:32:48Z</time>
      </trkpt>
      <trkpt lat="47.80152" lon="7.07197">
        <ele>612.2</ele>
        <time>2023-05-21T13:33:11Z</time>
      </trkpt>
      <trkpt lat="47.80151" lon="7.07203">
        <ele>611.5</ele>
        <time>2023-05-21T13:33:14Z</time>
      </trkpt>
      <trkpt lat="47.80137" lon="7.07225">
        <ele>611.2</ele>
        <time>2023-05-21T13:33:27Z</time>
      </trkpt>
      <trkpt lat="47.80128" lon="7.07229">
        <ele>611.8</ele>
        <time>2023-05-21T13:33:33Z</time>
      </trkpt>
      <trkpt lat="47.80124" lon="7.0723">
        <ele>612.1</ele>
        <time>2023-05-21T13:33:36Z</time>
      </trkpt>
      <trkpt lat="47.80119" lon="7.07234">
        <ele>612.7</ele>
        <time>2023-05-21T13:33:40Z</time>
      </trkpt>
      <trkpt lat="47.80113" lon="7.0724">
        <ele>613.8</ele>
        <time>2023-05-21T13:33:49Z</time>
      </trkpt>
      <trkpt lat="47.80108" lon="7.0725">
        <ele>615</ele>
        <time>2023-05-21T13:33:56Z</time>
      </trkpt>
      <trkpt lat="47.80084" lon="7.0728">
        <ele>618.1</ele>
        <time>2023-05-21T13:34:26Z</time>
      </trkpt>
      <trkpt lat="47.80067" lon="7.07296">
        <ele>618.1</ele>
        <time>2023-05-21T13:34:44Z</time>
      </trkpt>
      <trkpt lat="47.80058" lon="7.07307">
        <ele>619.3</ele>
        <time>2023-05-21T13:34:56Z</time>
      </trkpt>
      <trkpt lat="47.80052" lon="7.0731">
        <ele>619.2</ele>
        <time>2023-05-21T13:35:00Z</time>
      </trkpt>
      <trkpt lat="47.80043" lon="7.07321">
        <ele>619.8</ele>
        <time>2023-05-21T13:35:11Z</time>
      </trkpt>
      <trkpt lat="47.80035" lon="7.07328">
        <ele>619.9</ele>
        <time>2023-05-21T13:35:18Z</time>
      </trkpt>
      <trkpt lat="47.8003" lon="7.07338">
        <ele>621.1</ele>
        <time>2023-05-21T13:35:25Z</time>
      </trkpt>
      <trkpt lat="47.80025" lon="7.07341">
        <ele>620.8</ele>
        <time>2023-05-21T13:35:29Z</time>
      </trkpt>
      <trkpt lat="47.80021" lon="7.07346">
        <ele>620.8</ele>
        <time>2023-05-21T13:35:33Z</time>
      </trkpt>
      <trkpt lat="47.80017" lon="7.07349">
        <ele>620.5</ele>
        <time>2023-05-21T13:35:37Z</time>
      </trkpt>
      <trkpt lat="47.80014" lon="7.07355">
        <ele>620.9</ele>
        <time>2023-05-21T13:35:41Z</time>
      </trkpt>
      <trkpt lat="47.80009" lon="7.0736">
        <ele>620.7</ele>
        <time>2023-05-21T13:35:48Z</time>
      </trkpt>
      <trkpt lat="47.80005" lon="7.07362">
        <ele>620.2</ele>
        <time>2023-05-21T13:35:52Z</time>
      </trkpt>
      <trkpt lat="47.79998" lon="7.07375">
        <ele>620.2</ele>
        <time>2023-05-21T13:36:03Z</time>
      </trkpt>
      <trkpt lat="47.79995" lon="7.07387">
        <ele>620.8</ele>
        <time>2023-05-21T13:36:10Z</time>
      </trkpt>
      <trkpt lat="47.79991" lon="7.07393">
        <ele>619.8</ele>
        <time>2023-05-21T13:36:14Z</time>
      </trkpt>
      <trkpt lat="47.79989" lon="7.07404">
        <ele>619.9</ele>
        <time>2023-05-21T13:36:27Z</time>
      </trkpt>
      <trkpt lat="47.79975" lon="7.0743">
        <ele>617.5</ele>
        <time>2023-05-21T13:36:44Z</time>
      </trkpt>
      <trkpt lat="47.79961" lon="7.07469">
        <ele>617.1</ele>
        <time>2023-05-21T13:37:08Z</time>
      </trkpt>
      <trkpt lat="47.7995" lon="7.07492">
        <ele>615.3</ele>
        <time>2023-05-21T13:37:24Z</time>
      </trkpt>
      <trkpt lat="47.79945" lon="7.07506">
        <ele>614.9</ele>
        <time>2023-05-21T13:37:33Z</time>
      </trkpt>
      <trkpt lat="47.79939" lon="7.07517">
        <ele>614</ele>
        <time>2023-05-21T13:37:41Z</time>
      </trkpt>
      <trkpt lat="47.79934" lon="7.07522">
        <ele>612.9</ele>
        <time>2023-05-21T13:37:45Z</time>
      </trkpt>
      <trkpt lat="47.79932" lon="7.07529">
        <ele>613.1</ele>
        <time>2023-05-21T13:37:50Z</time>
      </trkpt>
      <trkpt lat="47.79924" lon="7.07538">
        <ele>611.2</ele>
        <time>2023-05-21T13:37:56Z</time>
      </trkpt>
      <trkpt lat="47.79922" lon="7.07543">
        <ele>610.9</ele>
        <time>2023-05-21T13:38:00Z</time>
      </trkpt>
      <trkpt lat="47.7992" lon="7.07551">
        <ele>610.9</ele>
        <time>2023-05-21T13:38:04Z</time>
      </trkpt>
      <trkpt lat="47.79918" lon="7.07557">
        <ele>610.5</ele>
        <time>2023-05-21T13:38:08Z</time>
      </trkpt>
      <trkpt lat="47.79911" lon="7.07607">
        <ele>607.1</ele>
        <time>2023-05-21T13:38:41Z</time>
      </trkpt>
      <trkpt lat="47.79912" lon="7.07616">
        <ele>607.7</ele>
        <time>2023-05-21T13:38:47Z</time>
      </trkpt>
      <trkpt lat="47.7991" lon="7.07623">
        <ele>606.7</ele>
        <time>2023-05-21T13:38:52Z</time>
      </trkpt>
      <trkpt lat="47.79909" lon="7.07629">
        <ele>606.3</ele>
        <time>2023-05-21T13:38:56Z</time>
      </trkpt>
      <trkpt lat="47.79904" lon="7.07641">
        <ele>604.2</ele>
        <time>2023-05-21T13:39:03Z</time>
      </trkpt>
      <trkpt lat="47.79898" lon="7.07669">
        <ele>603.4</ele>
        <time>2023-05-21T13:39:21Z</time>
      </trkpt>
      <trkpt lat="47.79895" lon="7.07673">
        <ele>602.3</ele>
        <time>2023-05-21T13:39:25Z</time>
      </trkpt>
      <trkpt lat="47.79893" lon="7.0768">
        <ele>601.9</ele>
        <time>2023-05-21T13:39:29Z</time>
      </trkpt>
      <trkpt lat="47.79892" lon="7.07687">
        <ele>601.9</ele>
        <time>2023-05-21T13:39:33Z</time>
      </trkpt>
      <trkpt lat="47.79883" lon="7.0771">
        <ele>599.7</ele>
        <time>2023-05-21T13:39:49Z</time>
      </trkpt>
      <trkpt lat="47.79879" lon="7.07716">
        <ele>598.6</ele>
        <time>2023-05-21T13:39:53Z</time>
      </trkpt>
      <trkpt lat="47.79849" lon="7.07753">
        <ele>588.7</ele>
        <time>2023-05-21T13:40:27Z</time>
      </trkpt>
      <trkpt lat="47.79845" lon="7.07756">
        <ele>587.3</ele>
        <time>2023-05-21T13:40:30Z</time>
      </trkpt>
      <trkpt lat="47.79841" lon="7.07758">
        <ele>586</ele>
        <time>2023-05-21T13:40:35Z</time>
      </trkpt>
      <trkpt lat="47.79832" lon="7.07767">
        <ele>583.2</ele>
        <time>2023-05-21T13:40:44Z</time>
      </trkpt>
      <trkpt lat="47.79821" lon="7.07771">
        <ele>580.2</ele>
        <time>2023-05-21T13:40:56Z</time>
      </trkpt>
      <trkpt lat="47.79797" lon="7.07769">
        <ele>574.3</ele>
        <time>2023-05-21T13:41:18Z</time>
      </trkpt>
      <trkpt lat="47.79794" lon="7.07764">
        <ele>573.4</ele>
        <time>2023-05-21T13:41:21Z</time>
      </trkpt>
      <trkpt lat="47.79791" lon="7.07757">
        <ele>572.4</ele>
        <time>2023-05-21T13:41:24Z</time>
      </trkpt>
      <trkpt lat="47.79778" lon="7.07751">
        <ele>569.2</ele>
        <time>2023-05-21T13:41:35Z</time>
      </trkpt>
      <trkpt lat="47.79765" lon="7.07739">
        <ele>566.3</ele>
        <time>2023-05-21T13:41:45Z</time>
      </trkpt>
      <trkpt lat="47.79761" lon="7.07737">
        <ele>565.6</ele>
        <time>2023-05-21T13:41:47Z</time>
      </trkpt>
      <trkpt lat="47.79752" lon="7.07729">
        <ele>563.4</ele>
        <time>2023-05-21T13:41:54Z</time>
      </trkpt>
      <trkpt lat="47.79748" lon="7.07726">
        <ele>562.5</ele>
        <time>2023-05-21T13:41:57Z</time>
      </trkpt>
      <trkpt lat="47.79742" lon="7.07719">
        <ele>560.7</ele>
        <time>2023-05-21T13:42:05Z</time>
      </trkpt>
      <trkpt lat="47.79737" lon="7.07717">
        <ele>559.9</ele>
        <time>2023-05-21T13:42:09Z</time>
      </trkpt>
      <trkpt lat="47.79732" lon="7.07715">
        <ele>559.1</ele>
        <time>2023-05-21T13:42:12Z</time>
      </trkpt>
      <trkpt lat="47.79728" lon="7.07712">
        <ele>558.2</ele>
        <time>2023-05-21T13:42:15Z</time>
      </trkpt>
      <trkpt lat="47.79709" lon="7.07711">
        <ele>554.9</ele>
        <time>2023-05-21T13:42:30Z</time>
      </trkpt>
      <trkpt lat="47.79704" lon="7.07711">
        <ele>553.9</ele>
        <time>2023-05-21T13:42:33Z</time>
      </trkpt>
      <trkpt lat="47.79694" lon="7.07708">
        <ele>551.3</ele>
        <time>2023-05-21T13:42:45Z</time>
      </trkpt>
      <trkpt lat="47.79687" lon="7.07708">
        <ele>549.7</ele>
        <time>2023-05-21T13:42:47Z</time>
      </trkpt>
      <trkpt lat="47.79678" lon="7.07713">
        <ele>548.4</ele>
        <time>2023-05-21T13:42:55Z</time>
      </trkpt>
      <trkpt lat="47.79662" lon="7.07724">
        <ele>545.8</ele>
        <time>2023-05-21T13:43:13Z</time>
      </trkpt>
      <trkpt lat="47.79653" lon="7.07727">
        <ele>543.6</ele>
        <time>2023-05-21T13:43:21Z</time>
      </trkpt>
      <trkpt lat="47.79649" lon="7.07731">
        <ele>542.9</ele>
        <time>2023-05-21T13:43:26Z</time>
      </trkpt>
      <trkpt lat="47.79646" lon="7.07735">
        <ele>542.4</ele>
        <time>2023-05-21T13:43:30Z</time>
      </trkpt>
      <trkpt lat="47.79636" lon="7.07743">
        <ele>540.4</ele>
        <time>2023-05-21T13:43:39Z</time>
      </trkpt>
      <trkpt lat="47.79634" lon="7.07753">
        <ele>540.8</ele>
        <time>2023-05-21T13:43:45Z</time>
      </trkpt>
      <trkpt lat="47.79631" lon="7.07758">
        <ele>540.2</ele>
        <time>2023-05-21T13:43:49Z</time>
      </trkpt>
      <trkpt lat="47.79629" lon="7.07766">
        <ele>540.1</ele>
        <time>2023-05-21T13:43:54Z</time>
      </trkpt>
      <trkpt lat="47.79624" lon="7.0777">
        <ele>538.8</ele>
        <time>2023-05-21T13:43:57Z</time>
      </trkpt>
      <trkpt lat="47.7961" lon="7.07799">
        <ele>534.8</ele>
        <time>2023-05-21T13:44:17Z</time>
      </trkpt>
      <trkpt lat="47.79607" lon="7.07807">
        <ele>534.2</ele>
        <time>2023-05-21T13:44:21Z</time>
      </trkpt>
      <trkpt lat="47.79604" lon="7.07813">
        <ele>533.5</ele>
        <time>2023-05-21T13:44:26Z</time>
      </trkpt>
      <trkpt lat="47.79602" lon="7.07821">
        <ele>532.8</ele>
        <time>2023-05-21T13:44:30Z</time>
      </trkpt>
      <trkpt lat="47.79598" lon="7.07832">
        <ele>531.7</ele>
        <time>2023-05-21T13:44:38Z</time>
      </trkpt>
      <trkpt lat="47.79596" lon="7.07844">
        <ele>530.1</ele>
        <time>2023-05-21T13:44:47Z</time>
      </trkpt>
      <trkpt lat="47.79586" lon="7.07868">
        <ele>524.7</ele>
        <time>2023-05-21T13:45:03Z</time>
      </trkpt>
      <trkpt lat="47.79579" lon="7.0788">
        <ele>521.1</ele>
        <time>2023-05-21T13:45:14Z</time>
      </trkpt>
      <trkpt lat="47.79576" lon="7.07884">
        <ele>519.6</ele>
        <time>2023-05-21T13:45:19Z</time>
      </trkpt>
      <trkpt lat="47.79571" lon="7.07886">
        <ele>517.9</ele>
        <time>2023-05-21T13:45:24Z</time>
      </trkpt>
      <trkpt lat="47.79564" lon="7.07885">
        <ele>516.1</ele>
        <time>2023-05-21T13:45:30Z</time>
      </trkpt>
      <trkpt lat="47.79555" lon="7.07881">
        <ele>514.2</ele>
        <time>2023-05-21T13:45:40Z</time>
      </trkpt>
      <trkpt lat="47.79549" lon="7.07882">
        <ele>511.9</ele>
        <time>2023-05-21T13:45:46Z</time>
      </trkpt>
      <trkpt lat="47.79545" lon="7.0789">
        <ele>509</ele>
        <time>2023-05-21T13:45:54Z</time>
      </trkpt>
      <trkpt lat="47.79546" lon="7.07906">
        <ele>506.5</ele>
        <time>2023-05-21T13:46:04Z</time>
      </trkpt>
      <trkpt lat="47.79551" lon="7.07914">
        <ele>506.8</ele>
        <time>2023-05-21T13:46:11Z</time>
      </trkpt>
      <trkpt lat="47.79552" lon="7.07921">
        <ele>505.8</ele>
        <time>2023-05-21T13:46:15Z</time>
      </trkpt>
      <trkpt lat="47.79558" lon="7.07935">
        <ele>504.8</ele>
        <time>2023-05-21T13:46:27Z</time>
      </trkpt>
      <trkpt lat="47.79561" lon="7.07951">
        <ele>502.8</ele>
        <time>2023-05-21T13:46:36Z</time>
      </trkpt>
      <trkpt lat="47.79557" lon="7.07985">
        <ele>496.5</ele>
        <time>2023-05-21T13:46:55Z</time>
      </trkpt>
      <trkpt lat="47.79559" lon="7.07992">
        <ele>496</ele>
        <time>2023-05-21T13:46:59Z</time>
      </trkpt>
      <trkpt lat="47.79555" lon="7.07998">
        <ele>494.1</ele>
        <time>2023-05-21T13:47:02Z</time>
      </trkpt>
      <trkpt lat="47.79556" lon="7.08004">
        <ele>493.5</ele>
        <time>2023-05-21T13:47:06Z</time>
      </trkpt>
      <trkpt lat="47.79554" lon="7.08017">
        <ele>491.2</ele>
        <time>2023-05-21T13:47:14Z</time>
      </trkpt>
      <trkpt lat="47.79554" lon="7.08025">
        <ele>490.1</ele>
        <time>2023-05-21T13:47:17Z</time>
      </trkpt>
      <trkpt lat="47.79554" lon="7.08032">
        <ele>489.4</ele>
        <time>2023-05-21T13:47:20Z</time>
      </trkpt>
      <trkpt lat="47.79554" lon="7.0804">
        <ele>488.8</ele>
        <time>2023-05-21T13:47:24Z</time>
      </trkpt>
      <trkpt lat="47.79548" lon="7.08053">
        <ele>486.6</ele>
        <time>2023-05-21T13:47:31Z</time>
      </trkpt>
      <trkpt lat="47.79548" lon="7.08059">
        <ele>486</ele>
        <time>2023-05-21T13:47:35Z</time>
      </trkpt>
      <trkpt lat="47.79546" lon="7.08067">
        <ele>484.7</ele>
        <time>2023-05-21T13:47:39Z</time>
      </trkpt>
      <trkpt lat="47.79543" lon="7.08072">
        <ele>483.7</ele>
        <time>2023-05-21T13:47:43Z</time>
      </trkpt>
      <trkpt lat="47.7954" lon="7.08079">
        <ele>482.7</ele>
        <time>2023-05-21T13:47:47Z</time>
      </trkpt>
      <trkpt lat="47.7954" lon="7.08093">
        <ele>481.6</ele>
        <time>2023-05-21T13:47:53Z</time>
      </trkpt>
      <trkpt lat="47.7953" lon="7.0811">
        <ele>479.3</ele>
        <time>2023-05-21T13:48:05Z</time>
      </trkpt>
      <trkpt lat="47.79524" lon="7.08129">
        <ele>477.2</ele>
        <time>2023-05-21T13:48:17Z</time>
      </trkpt>
      <trkpt lat="47.79521" lon="7.08134">
        <ele>476.5</ele>
        <time>2023-05-21T13:48:20Z</time>
      </trkpt>
      <trkpt lat="47.79516" lon="7.08136">
        <ele>475.8</ele>
        <time>2023-05-21T13:48:22Z</time>
      </trkpt>
      <trkpt lat="47.79512" lon="7.0814">
        <ele>475.2</ele>
        <time>2023-05-21T13:48:26Z</time>
      </trkpt>
      <trkpt lat="47.79506" lon="7.08153">
        <ele>473.6</ele>
        <time>2023-05-21T13:48:36Z</time>
      </trkpt>
      <trkpt lat="47.79502" lon="7.08167">
        <ele>472.2</ele>
        <time>2023-05-21T13:48:44Z</time>
      </trkpt>
      <trkpt lat="47.79498" lon="7.08175">
        <ele>471.6</ele>
        <time>2023-05-21T13:48:48Z</time>
      </trkpt>
      <trkpt lat="47.79494" lon="7.08178">
        <ele>471.3</ele>
        <time>2023-05-21T13:48:51Z</time>
      </trkpt>
      <trkpt lat="47.79492" lon="7.08185">
        <ele>471.1</ele>
        <time>2023-05-21T13:48:54Z</time>
      </trkpt>
      <trkpt lat="47.7949" lon="7.08192">
        <ele>471</ele>
        <time>2023-05-21T13:48:58Z</time>
      </trkpt>
      <trkpt lat="47.79489" lon="7.08206">
        <ele>471.3</ele>
        <time>2023-05-21T13:49:05Z</time>
      </trkpt>
      <trkpt lat="47.79486" lon="7.08213">
        <ele>471.7</ele>
        <time>2023-05-21T13:49:10Z</time>
      </trkpt>
      <trkpt lat="47.79477" lon="7.08217">
        <ele>472.3</ele>
        <time>2023-05-21T13:49:15Z</time>
      </trkpt>
      <trkpt lat="47.79474" lon="7.08217">
        <ele>472.5</ele>
        <time>2023-05-21T13:49:18Z</time>
      </trkpt>
      <trkpt lat="47.79469" lon="7.08215">
        <ele>472.7</ele>
        <time>2023-05-21T13:49:22Z</time>
      </trkpt>
      <trkpt lat="47.79464" lon="7.08216">
        <ele>473.1</ele>
        <time>2023-05-21T13:49:26Z</time>
      </trkpt>
      <trkpt lat="47.79458" lon="7.08217">
        <ele>473.6</ele>
        <time>2023-05-21T13:49:30Z</time>
      </trkpt>
      <trkpt lat="47.79452" lon="7.08216">
        <ele>474</ele>
        <time>2023-05-21T13:49:36Z</time>
      </trkpt>
      <trkpt lat="47.79441" lon="7.08221">
        <ele>474.9</ele>
        <time>2023-05-21T13:49:46Z</time>
      </trkpt>
      <trkpt lat="47.79437" lon="7.08222">
        <ele>475</ele>
        <time>2023-05-21T13:49:49Z</time>
      </trkpt>
      <trkpt lat="47.79432" lon="7.08226">
        <ele>475.4</ele>
        <time>2023-05-21T13:49:56Z</time>
      </trkpt>
      <trkpt lat="47.79426" lon="7.08227">
        <ele>475.6</ele>
        <time>2023-05-21T13:49:59Z</time>
      </trkpt>
      <trkpt lat="47.79422" lon="7.08229">
        <ele>475.9</ele>
        <time>2023-05-21T13:50:03Z</time>
      </trkpt>
      <trkpt lat="47.7941" lon="7.0823">
        <ele>476.1</ele>
        <time>2023-05-21T13:50:12Z</time>
      </trkpt>
      <trkpt lat="47.79403" lon="7.08234">
        <ele>476.7</ele>
        <time>2023-05-21T13:50:21Z</time>
      </trkpt>
      <trkpt lat="47.79397" lon="7.08229">
        <ele>476</ele>
        <time>2023-05-21T13:50:30Z</time>
      </trkpt>
      <trkpt lat="47.79386" lon="7.08225">
        <ele>475.1</ele>
        <time>2023-05-21T13:50:38Z</time>
      </trkpt>
      <trkpt lat="47.79381" lon="7.08227">
        <ele>474.8</ele>
        <time>2023-05-21T13:50:42Z</time>
      </trkpt>
      <trkpt lat="47.79378" lon="7.0823">
        <ele>474.9</ele>
        <time>2023-05-21T13:50:46Z</time>
      </trkpt>
      <trkpt lat="47.79367" lon="7.08232">
        <ele>474</ele>
        <time>2023-05-21T13:50:57Z</time>
      </trkpt>
      <trkpt lat="47.79362" lon="7.08236">
        <ele>474.1</ele>
        <time>2023-05-21T13:51:04Z</time>
      </trkpt>
      <trkpt lat="47.79356" lon="7.08241">
        <ele>473.9</ele>
        <time>2023-05-21T13:51:10Z</time>
      </trkpt>
      <trkpt lat="47.79348" lon="7.08251">
        <ele>474.2</ele>
        <time>2023-05-21T13:51:17Z</time>
      </trkpt>
      <trkpt lat="47.79342" lon="7.08253">
        <ele>473.6</ele>
        <time>2023-05-21T13:51:19Z</time>
      </trkpt>
      <trkpt lat="47.79338" lon="7.08257">
        <ele>473.6</ele>
        <time>2023-05-21T13:51:24Z</time>
      </trkpt>
      <trkpt lat="47.79318" lon="7.08265">
        <ele>473.1</ele>
        <time>2023-05-21T13:51:41Z</time>
      </trkpt>
      <trkpt lat="47.79312" lon="7.08264">
        <ele>472.5</ele>
        <time>2023-05-21T13:51:43Z</time>
      </trkpt>
      <trkpt lat="47.79308" lon="7.08261">
        <ele>471.8</ele>
        <time>2023-05-21T13:51:47Z</time>
      </trkpt>
      <trkpt lat="47.79304" lon="7.08265">
        <ele>472.1</ele>
        <time>2023-05-21T13:51:51Z</time>
      </trkpt>
      <trkpt lat="47.79283" lon="7.08262">
        <ele>470.9</ele>
        <time>2023-05-21T13:52:09Z</time>
      </trkpt>
      <trkpt lat="47.79278" lon="7.08264">
        <ele>471</ele>
        <time>2023-05-21T13:52:12Z</time>
      </trkpt>
      <trkpt lat="47.79262" lon="7.0827">
        <ele>471.5</ele>
        <time>2023-05-21T13:52:27Z</time>
      </trkpt>
      <trkpt lat="47.79257" lon="7.08274">
        <ele>471.8</ele>
        <time>2023-05-21T13:52:31Z</time>
      </trkpt>
      <trkpt lat="47.79247" lon="7.08274">
        <ele>471.5</ele>
        <time>2023-05-21T13:52:37Z</time>
      </trkpt>
      <trkpt lat="47.79238" lon="7.08276">
        <ele>471.4</ele>
        <time>2023-05-21T13:52:44Z</time>
      </trkpt>
      <trkpt lat="47.79226" lon="7.08275">
        <ele>470.9</ele>
        <time>2023-05-21T13:52:56Z</time>
      </trkpt>
      <trkpt lat="47.79215" lon="7.08278">
        <ele>470.5</ele>
        <time>2023-05-21T13:53:07Z</time>
      </trkpt>
      <trkpt lat="47.79209" lon="7.08279">
        <ele>470.1</ele>
        <time>2023-05-21T13:53:12Z</time>
      </trkpt>
      <trkpt lat="47.7919" lon="7.08289">
        <ele>468.8</ele>
        <time>2023-05-21T13:53:27Z</time>
      </trkpt>
      <trkpt lat="47.79183" lon="7.08293">
        <ele>468.1</ele>
        <time>2023-05-21T13:53:34Z</time>
      </trkpt>
      <trkpt lat="47.7916" lon="7.08305">
        <ele>466.2</ele>
        <time>2023-05-21T13:53:55Z</time>
      </trkpt>
      <trkpt lat="47.79155" lon="7.08305">
        <ele>465.7</ele>
        <time>2023-05-21T13:53:59Z</time>
      </trkpt>
      <trkpt lat="47.7915" lon="7.08307">
        <ele>465.3</ele>
        <time>2023-05-21T13:54:03Z</time>
      </trkpt>
      <trkpt lat="47.79139" lon="7.08316">
        <ele>464.8</ele>
        <time>2023-05-21T13:54:13Z</time>
      </trkpt>
      <trkpt lat="47.79133" lon="7.08315">
        <ele>464.2</ele>
        <time>2023-05-21T13:54:16Z</time>
      </trkpt>
      <trkpt lat="47.79123" lon="7.08323">
        <ele>464.3</ele>
        <time>2023-05-21T13:54:26Z</time>
      </trkpt>
      <trkpt lat="47.79112" lon="7.08328">
        <ele>464.3</ele>
        <time>2023-05-21T13:54:34Z</time>
      </trkpt>
      <trkpt lat="47.79096" lon="7.08334">
        <ele>464.5</ele>
        <time>2023-05-21T13:54:47Z</time>
      </trkpt>
      <trkpt lat="47.79092" lon="7.08339">
        <ele>464.7</ele>
        <time>2023-05-21T13:54:51Z</time>
      </trkpt>
      <trkpt lat="47.79083" lon="7.08346">
        <ele>464.9</ele>
        <time>2023-05-21T13:54:59Z</time>
      </trkpt>
      <trkpt lat="47.79079" lon="7.08351">
        <ele>464.8</ele>
        <time>2023-05-21T13:55:04Z</time>
      </trkpt>
      <trkpt lat="47.79075" lon="7.08361">
        <ele>465.4</ele>
        <time>2023-05-21T13:55:12Z</time>
      </trkpt>
      <trkpt lat="47.79051" lon="7.08402">
        <ele>465.9</ele>
        <time>2023-05-21T13:55:41Z</time>
      </trkpt>
      <trkpt lat="47.79046" lon="7.08406">
        <ele>465.9</ele>
        <time>2023-05-21T13:55:46Z</time>
      </trkpt>
      <trkpt lat="47.79038" lon="7.08416">
        <ele>466</ele>
        <time>2023-05-21T13:55:53Z</time>
      </trkpt>
      <trkpt lat="47.79007" lon="7.08444">
        <ele>466</ele>
        <time>2023-05-21T13:56:25Z</time>
      </trkpt>
      <trkpt lat="47.79002" lon="7.08447">
        <ele>466</ele>
        <time>2023-05-21T13:56:28Z</time>
      </trkpt>
      <trkpt lat="47.78999" lon="7.08453">
        <ele>466</ele>
        <time>2023-05-21T13:56:32Z</time>
      </trkpt>
      <trkpt lat="47.78998" lon="7.0846">
        <ele>466</ele>
        <time>2023-05-21T13:56:36Z</time>
      </trkpt>
      <trkpt lat="47.79" lon="7.0847">
        <ele>466</ele>
        <time>2023-05-21T13:56:44Z</time>
      </trkpt>
      <trkpt lat="47.7901" lon="7.08482">
        <ele>466</ele>
        <time>2023-05-21T13:56:57Z</time>
      </trkpt>
      <trkpt lat="47.79013" lon="7.08491">
        <ele>466</ele>
        <time>2023-05-21T13:57:03Z</time>
      </trkpt>
      <trkpt lat="47.79018" lon="7.08504">
        <ele>465.9</ele>
        <time>2023-05-21T13:57:11Z</time>
      </trkpt>
      <trkpt lat="47.79022" lon="7.0851">
        <ele>465.6</ele>
        <time>2023-05-21T13:57:15Z</time>
      </trkpt>
      <trkpt lat="47.79023" lon="7.08516">
        <ele>465.4</ele>
        <time>2023-05-21T13:57:19Z</time>
      </trkpt>
      <trkpt lat="47.7903" lon="7.08527">
        <ele>464.9</ele>
        <time>2023-05-21T13:57:27Z</time>
      </trkpt>
      <trkpt lat="47.79041" lon="7.08547">
        <ele>463</ele>
        <time>2023-05-21T13:57:44Z</time>
      </trkpt>
      <trkpt lat="47.79045" lon="7.08551">
        <ele>462.6</ele>
        <time>2023-05-21T13:57:48Z</time>
      </trkpt>
      <trkpt lat="47.79051" lon="7.08554">
        <ele>462.2</ele>
        <time>2023-05-21T13:57:52Z</time>
      </trkpt>
      <trkpt lat="47.79055" lon="7.08562">
        <ele>461.8</ele>
        <time>2023-05-21T13:57:57Z</time>
      </trkpt>
      <trkpt lat="47.79055" lon="7.08569">
        <ele>461.5</ele>
        <time>2023-05-21T13:58:00Z</time>
      </trkpt>
      <trkpt lat="47.79059" lon="7.08573">
        <ele>461.1</ele>
        <time>2023-05-21T13:58:03Z</time>
      </trkpt>
      <trkpt lat="47.79064" lon="7.08574">
        <ele>460.7</ele>
        <time>2023-05-21T13:58:05Z</time>
      </trkpt>
      <trkpt lat="47.79062" lon="7.08585">
        <ele>460.5</ele>
        <time>2023-05-21T13:58:13Z</time>
      </trkpt>
      <trkpt lat="47.79063" lon="7.08591">
        <ele>460.2</ele>
        <time>2023-05-21T13:58:17Z</time>
      </trkpt>
      <trkpt lat="47.79075" lon="7.08616">
        <ele>458.2</ele>
        <time>2023-05-21T13:58:35Z</time>
      </trkpt>
      <trkpt lat="47.79076" lon="7.08622">
        <ele>457.7</ele>
        <time>2023-05-21T13:58:39Z</time>
      </trkpt>
      <trkpt lat="47.79094" lon="7.08652">
        <ele>454.4</ele>
        <time>2023-05-21T13:59:03Z</time>
      </trkpt>
      <trkpt lat="47.79092" lon="7.08658">
        <ele>454.4</ele>
        <time>2023-05-21T13:59:06Z</time>
      </trkpt>
      <trkpt lat="47.79093" lon="7.08673">
        <ele>453.6</ele>
        <time>2023-05-21T13:59:13Z</time>
      </trkpt>
      <trkpt lat="47.79093" lon="7.08679">
        <ele>453.2</ele>
        <time>2023-05-21T13:59:16Z</time>
      </trkpt>
      <trkpt lat="47.79095" lon="7.08686">
        <ele>452.6</ele>
        <time>2023-05-21T13:59:19Z</time>
      </trkpt>
      <trkpt lat="47.79093" lon="7.087">
        <ele>451.9</ele>
        <time>2023-05-21T13:59:27Z</time>
      </trkpt>
      <trkpt lat="47.79096" lon="7.08706">
        <ele>451.3</ele>
        <time>2023-05-21T13:59:31Z</time>
      </trkpt>
      <trkpt lat="47.79095" lon="7.08713">
        <ele>450.8</ele>
        <time>2023-05-21T13:59:35Z</time>
      </trkpt>
      <trkpt lat="47.79099" lon="7.08727">
        <ele>449.6</ele>
        <time>2023-05-21T13:59:42Z</time>
      </trkpt>
      <trkpt lat="47.79099" lon="7.08735">
        <ele>449.2</ele>
        <time>2023-05-21T13:59:47Z</time>
      </trkpt>
      <trkpt lat="47.79095" lon="7.08748">
        <ele>448.7</ele>
        <time>2023-05-21T13:59:53Z</time>
      </trkpt>
      <trkpt lat="47.79097" lon="7.08756">
        <ele>448.1</ele>
        <time>2023-05-21T13:59:57Z</time>
      </trkpt>
      <trkpt lat="47.79102" lon="7.08768">
        <ele>447</ele>
        <time>2023-05-21T14:00:05Z</time>
      </trkpt>
      <trkpt lat="47.79103" lon="7.08776">
        <ele>446.4</ele>
        <time>2023-05-21T14:00:09Z</time>
      </trkpt>
      <trkpt lat="47.79108" lon="7.08795">
        <ele>444.9</ele>
        <time>2023-05-21T14:00:21Z</time>
      </trkpt>
      <trkpt lat="47.79107" lon="7.08802">
        <ele>444.4</ele>
        <time>2023-05-21T14:00:26Z</time>
      </trkpt>
      <trkpt lat="47.79112" lon="7.08816">
        <ele>443.6</ele>
        <time>2023-05-21T14:00:33Z</time>
      </trkpt>
      <trkpt lat="47.79111" lon="7.08838">
        <ele>442.7</ele>
        <time>2023-05-21T14:00:45Z</time>
      </trkpt>
      <trkpt lat="47.7911" lon="7.08846">
        <ele>442.1</ele>
        <time>2023-05-21T14:00:49Z</time>
      </trkpt>
      <trkpt lat="47.79112" lon="7.08853">
        <ele>441.5</ele>
        <time>2023-05-21T14:00:54Z</time>
      </trkpt>
      <trkpt lat="47.79112" lon="7.0886">
        <ele>441</ele>
        <time>2023-05-21T14:00:57Z</time>
      </trkpt>
      <trkpt lat="47.79118" lon="7.08885">
        <ele>439</ele>
        <time>2023-05-21T14:01:10Z</time>
      </trkpt>
      <trkpt lat="47.79118" lon="7.08894">
        <ele>438.6</ele>
        <time>2023-05-21T14:01:15Z</time>
      </trkpt>
      <trkpt lat="47.79121" lon="7.089">
        <ele>438.2</ele>
        <time>2023-05-21T14:01:20Z</time>
      </trkpt>
      <trkpt lat="47.7912" lon="7.08907">
        <ele>438</ele>
        <time>2023-05-21T14:01:23Z</time>
      </trkpt>
      <trkpt lat="47.7912" lon="7.08923">
        <ele>437.3</ele>
        <time>2023-05-21T14:01:31Z</time>
      </trkpt>
      <trkpt lat="47.79126" lon="7.08941">
        <ele>436.2</ele>
        <time>2023-05-21T14:01:40Z</time>
      </trkpt>
      <trkpt lat="47.79126" lon="7.08955">
        <ele>435.6</ele>
        <time>2023-05-21T14:01:48Z</time>
      </trkpt>
      <trkpt lat="47.79134" lon="7.09006">
        <ele>433.6</ele>
        <time>2023-05-21T14:02:20Z</time>
      </trkpt>
      <trkpt lat="47.79139" lon="7.09019">
        <ele>433.3</ele>
        <time>2023-05-21T14:02:28Z</time>
      </trkpt>
      <trkpt lat="47.79141" lon="7.09054">
        <ele>431.8</ele>
        <time>2023-05-21T14:02:48Z</time>
      </trkpt>
      <trkpt lat="47.7914" lon="7.09062">
        <ele>431.6</ele>
        <time>2023-05-21T14:02:52Z</time>
      </trkpt>
      <trkpt lat="47.7914" lon="7.09084">
        <ele>430.9</ele>
        <time>2023-05-21T14:03:04Z</time>
      </trkpt>
      <trkpt lat="47.79137" lon="7.09098">
        <ele>430.4</ele>
        <time>2023-05-21T14:03:12Z</time>
      </trkpt>
      <trkpt lat="47.79137" lon="7.09105">
        <ele>430.2</ele>
        <time>2023-05-21T14:03:16Z</time>
      </trkpt>
      <trkpt lat="47.79139" lon="7.0912">
        <ele>429.7</ele>
        <time>2023-05-21T14:03:24Z</time>
      </trkpt>
      <trkpt lat="47.79139" lon="7.09137">
        <ele>429.1</ele>
        <time>2023-05-21T14:03:34Z</time>
      </trkpt>
      <trkpt lat="47.79139" lon="7.09143">
        <ele>428.7</ele>
        <time>2023-05-21T14:03:38Z</time>
      </trkpt>
      <trkpt lat="47.79136" lon="7.09156">
        <ele>427.7</ele>
        <time>2023-05-21T14:03:45Z</time>
      </trkpt>
      <trkpt lat="47.79136" lon="7.09163">
        <ele>427.3</ele>
        <time>2023-05-21T14:03:48Z</time>
      </trkpt>
      <trkpt lat="47.79135" lon="7.0917">
        <ele>426.9</ele>
        <time>2023-05-21T14:03:51Z</time>
      </trkpt>
      <trkpt lat="47.79137" lon="7.09183">
        <ele>426.4</ele>
        <time>2023-05-21T14:04:00Z</time>
      </trkpt>
      <trkpt lat="47.79132" lon="7.09223">
        <ele>424</ele>
        <time>2023-05-21T14:04:26Z</time>
      </trkpt>
      <trkpt lat="47.79133" lon="7.09229">
        <ele>423.8</ele>
        <time>2023-05-21T14:04:30Z</time>
      </trkpt>
      <trkpt lat="47.7913" lon="7.09242">
        <ele>423.3</ele>
        <time>2023-05-21T14:04:38Z</time>
      </trkpt>
      <trkpt lat="47.79131" lon="7.09251">
        <ele>422.9</ele>
        <time>2023-05-21T14:04:44Z</time>
      </trkpt>
      <trkpt lat="47.79131" lon="7.09259">
        <ele>422.4</ele>
        <time>2023-05-21T14:04:49Z</time>
      </trkpt>
      <trkpt lat="47.79133" lon="7.09265">
        <ele>421.9</ele>
        <time>2023-05-21T14:04:53Z</time>
      </trkpt>
      <trkpt lat="47.79131" lon="7.09284">
        <ele>420.4</ele>
        <time>2023-05-21T14:05:04Z</time>
      </trkpt>
      <trkpt lat="47.79131" lon="7.09306">
        <ele>418.3</ele>
        <time>2023-05-21T14:05:16Z</time>
      </trkpt>
      <trkpt lat="47.7913" lon="7.09319">
        <ele>417.4</ele>
        <time>2023-05-21T14:05:24Z</time>
      </trkpt>
      <trkpt lat="47.79131" lon="7.09326">
        <ele>416.8</ele>
        <time>2023-05-21T14:05:29Z</time>
      </trkpt>
      <trkpt lat="47.79132" lon="7.09333">
        <ele>416.3</ele>
        <time>2023-05-21T14:05:33Z</time>
      </trkpt>
      <trkpt lat="47.79132" lon="7.09343">
        <ele>415.6</ele>
        <time>2023-05-21T14:05:39Z</time>
      </trkpt>
      <trkpt lat="47.79135" lon="7.09359">
        <ele>414.3</ele>
        <time>2023-05-21T14:05:48Z</time>
      </trkpt>
      <trkpt lat="47.79135" lon="7.09367">
        <ele>413.5</ele>
        <time>2023-05-21T14:05:52Z</time>
      </trkpt>
      <trkpt lat="47.79133" lon="7.09374">
        <ele>412.9</ele>
        <time>2023-05-21T14:05:57Z</time>
      </trkpt>
      <trkpt lat="47.79132" lon="7.0939">
        <ele>411.4</ele>
        <time>2023-05-21T14:06:05Z</time>
      </trkpt>
      <trkpt lat="47.7913" lon="7.09404">
        <ele>410.6</ele>
        <time>2023-05-21T14:06:12Z</time>
      </trkpt>
      <trkpt lat="47.79127" lon="7.09414">
        <ele>410</ele>
        <time>2023-05-21T14:06:19Z</time>
      </trkpt>
      <trkpt lat="47.79128" lon="7.09429">
        <ele>408.9</ele>
        <time>2023-05-21T14:06:28Z</time>
      </trkpt>
      <trkpt lat="47.7913" lon="7.09434">
        <ele>408.4</ele>
        <time>2023-05-21T14:06:32Z</time>
      </trkpt>
      <trkpt lat="47.79129" lon="7.09444">
        <ele>407.7</ele>
        <time>2023-05-21T14:06:38Z</time>
      </trkpt>
      <trkpt lat="47.79131" lon="7.09452">
        <ele>406.8</ele>
        <time>2023-05-21T14:06:41Z</time>
      </trkpt>
      <trkpt lat="47.7913" lon="7.09474">
        <ele>404.8</ele>
        <time>2023-05-21T14:06:53Z</time>
      </trkpt>
      <trkpt lat="47.79128" lon="7.09495">
        <ele>403.5</ele>
        <time>2023-05-21T14:07:02Z</time>
      </trkpt>
      <trkpt lat="47.79131" lon="7.095">
        <ele>402.9</ele>
        <time>2023-05-21T14:07:06Z</time>
      </trkpt>
      <trkpt lat="47.79135" lon="7.09503">
        <ele>402.2</ele>
        <time>2023-05-21T14:07:11Z</time>
      </trkpt>
      <trkpt lat="47.79138" lon="7.0951">
        <ele>401.4</ele>
        <time>2023-05-21T14:07:16Z</time>
      </trkpt>
      <trkpt lat="47.79141" lon="7.09515">
        <ele>400.6</ele>
        <time>2023-05-21T14:07:20Z</time>
      </trkpt>
      <trkpt lat="47.79147" lon="7.09515">
        <ele>399.8</ele>
        <time>2023-05-21T14:07:24Z</time>
      </trkpt>
      <trkpt lat="47.79151" lon="7.09518">
        <ele>399</ele>
        <time>2023-05-21T14:07:28Z</time>
      </trkpt>
      <trkpt lat="47.79155" lon="7.09511">
        <ele>398.9</ele>
        <time>2023-05-21T14:07:36Z</time>
      </trkpt>
      <trkpt lat="47.79164" lon="7.09512">
        <ele>397.5</ele>
        <time>2023-05-21T14:07:45Z</time>
      </trkpt>
      <trkpt lat="47.79179" lon="7.09526">
        <ele>393.9</ele>
        <time>2023-05-21T14:07:56Z</time>
      </trkpt>
      <trkpt lat="47.79196" lon="7.09531">
        <ele>390.6</ele>
        <time>2023-05-21T14:08:12Z</time>
      </trkpt>
      <trkpt lat="47.79201" lon="7.0953">
        <ele>389.7</ele>
        <time>2023-05-21T14:08:15Z</time>
      </trkpt>
      <trkpt lat="47.79206" lon="7.09532">
        <ele>388.8</ele>
        <time>2023-05-21T14:08:24Z</time>
      </trkpt>
      <trkpt lat="47.79216" lon="7.09519">
        <ele>387.4</ele>
        <time>2023-05-21T14:08:39Z</time>
      </trkpt>
      <trkpt lat="47.79221" lon="7.09519">
        <ele>386.5</ele>
        <time>2023-05-21T14:08:42Z</time>
      </trkpt>
      <trkpt lat="47.79238" lon="7.09536">
        <ele>383.4</ele>
        <time>2023-05-21T14:08:57Z</time>
      </trkpt>
      <trkpt lat="47.79242" lon="7.09542">
        <ele>382.6</ele>
        <time>2023-05-21T14:09:00Z</time>
      </trkpt>
      <trkpt lat="47.7925" lon="7.09558">
        <ele>380.9</ele>
        <time>2023-05-21T14:09:12Z</time>
      </trkpt>
      <trkpt lat="47.79255" lon="7.09561">
        <ele>380.1</ele>
        <time>2023-05-21T14:09:15Z</time>
      </trkpt>
      <trkpt lat="47.7926" lon="7.09574">
        <ele>378.9</ele>
        <time>2023-05-21T14:09:23Z</time>
      </trkpt>
      <trkpt lat="47.79279" lon="7.09599">
        <ele>374.6</ele>
        <time>2023-05-21T14:09:44Z</time>
      </trkpt>
      <trkpt lat="47.79284" lon="7.09602">
        <ele>373.5</ele>
        <time>2023-05-21T14:09:48Z</time>
      </trkpt>
      <trkpt lat="47.79287" lon="7.09608">
        <ele>372.5</ele>
        <time>2023-05-21T14:09:53Z</time>
      </trkpt>
      <trkpt lat="47.793" lon="7.0962">
        <ele>369.7</ele>
        <time>2023-05-21T14:10:04Z</time>
      </trkpt>
      <trkpt lat="47.7932" lon="7.09646">
        <ele>367.4</ele>
        <time>2023-05-21T14:10:25Z</time>
      </trkpt>
      <trkpt lat="47.79332" lon="7.09657">
        <ele>367</ele>
        <time>2023-05-21T14:10:35Z</time>
      </trkpt>
      <trkpt lat="47.79336" lon="7.09658">
        <ele>367.1</ele>
        <time>2023-05-21T14:10:38Z</time>
      </trkpt>
      <trkpt lat="47.7934" lon="7.0966">
        <ele>367.2</ele>
        <time>2023-05-21T14:10:41Z</time>
      </trkpt>
      <trkpt lat="47.79349" lon="7.09669">
        <ele>367.5</ele>
        <time>2023-05-21T14:10:49Z</time>
      </trkpt>
      <trkpt lat="47.79351" lon="7.09676">
        <ele>367.5</ele>
        <time>2023-05-21T14:10:53Z</time>
      </trkpt>
      <trkpt lat="47.7935" lon="7.09683">
        <ele>367.4</ele>
        <time>2023-05-21T14:10:56Z</time>
      </trkpt>
      <trkpt lat="47.79348" lon="7.09697">
        <ele>367.1</ele>
        <time>2023-05-21T14:11:02Z</time>
      </trkpt>
      <trkpt lat="47.79346" lon="7.09703">
        <ele>366.9</ele>
        <time>2023-05-21T14:11:05Z</time>
      </trkpt>
      <trkpt lat="47.79345" lon="7.09709">
        <ele>366.8</ele>
        <time>2023-05-21T14:11:08Z</time>
      </trkpt>
      <trkpt lat="47.79342" lon="7.09715">
        <ele>366.6</ele>
        <time>2023-05-21T14:11:12Z</time>
      </trkpt>
      <trkpt lat="47.79341" lon="7.09722">
        <ele>366.6</ele>
        <time>2023-05-21T14:11:16Z</time>
      </trkpt>
      <trkpt lat="47.79329" lon="7.09777">
        <ele>363.9</ele>
        <time>2023-05-21T14:11:48Z</time>
      </trkpt>
      <trkpt lat="47.79326" lon="7.0979">
        <ele>363.7</ele>
        <time>2023-05-21T14:11:56Z</time>
      </trkpt>
      <trkpt lat="47.79321" lon="7.09792">
        <ele>363.6</ele>
        <time>2023-05-21T14:12:10Z</time>
      </trkpt>
    </trkseg>
  </trk>
</gpx>